Date StartTime U_cm/s V_cm/s W_cm/s Ustd_cm/s Vstd_cm/s Wstd_cm/s Uvar_(cm/s)^2 Vvar_(cm/s)^2 Wvar_(cm/s)^2 KE_(m/s)^2 TurbulentKE_(m/s)^2 HorizWindSpeed_cm/s FrictionSpeec_cm/s DragCoef SpeedOfSound_m/s SonicTemperature_C Pressure_mb 
12/08/2013  00:00:00     -109.537      -34.412       -7.304       21.053       18.699       17.429      443.216      349.642      303.785        0.717        0.055      114.815       13.513        0.014      325.442      -10.321      861.863
12/08/2013  00:01:00     -125.958      -10.970       -9.514       20.578       25.838       15.496      423.449      667.623      240.138        0.870        0.067      126.435       12.375        0.010      325.480      -10.259      861.879
12/08/2013  00:02:00      -79.634      -27.192        3.423       40.421       17.102       20.235     1633.888      292.494      409.459        0.471        0.117       84.149       22.940        0.074      325.498      -10.230      861.882
12/08/2013  00:03:00      -70.482      -55.208        5.622       48.739       38.872       27.789     2375.451     1511.014      772.220        0.635        0.233       89.530       29.321        0.107      325.648       -9.987      861.885
12/08/2013  00:04:00     -135.015     -109.147       -7.483       60.658       55.183       28.780     3679.350     3045.173      828.286        1.887        0.378      173.615       35.732        0.042      325.647       -9.991      861.883
12/08/2013  00:05:00     -145.752     -114.356       -4.068       40.531       49.284       28.331     1642.747     2428.870      802.639        1.960        0.244      185.259       24.055        0.017      325.759       -9.809      861.894
12/08/2013  00:06:00      -89.575      -83.258       -1.364       54.792       59.159       29.937     3002.161     3499.794      896.225        1.118        0.370      122.293       25.545        0.044      325.760       -9.807      861.888
12/08/2013  00:07:00     -138.699     -118.215       -8.896       54.889       45.520       27.529     3012.773     2072.031      757.862        1.957        0.292      182.243       15.471        0.007      325.716       -9.880      861.872
12/08/2013  00:08:00     -129.747     -110.712       -6.552       46.732       53.538       36.165     2183.870     2866.332     1307.939        1.774        0.318      170.562       32.926        0.037      325.685       -9.929      861.866
12/08/2013  00:09:00     -136.855     -116.249       -5.928       39.322       36.928       27.584     1546.218     1363.662      760.867        1.797        0.184      179.564       24.771        0.019      325.677       -9.941      861.859
12/08/2013  00:10:00     -125.470      -66.133       -2.047       43.643       29.973       20.380     1904.692      898.367      415.336        1.167        0.161      141.832       18.579        0.017      325.734       -9.850      861.866
12/08/2013  00:11:00     -123.402       -6.305      -13.653       39.193       24.286       21.704     1536.093      589.798      471.069        0.903        0.130      123.563       21.640        0.031      325.782       -9.771      861.873
12/08/2013  00:12:00     -104.980       24.867      -12.504       25.679       25.673       16.630      659.387      659.094      276.545        0.669        0.080      107.885       12.819        0.014      325.613      -10.044      861.880
12/08/2013  00:13:00     -124.957       15.060       -6.484       22.196       28.211       16.466      492.681      795.867      271.125        0.872        0.078      125.861       11.755        0.009      325.530      -10.178      861.872
12/08/2013  00:14:00     -164.387        6.560      -11.458       38.484       26.673       20.090     1480.999      711.457      403.589        1.490        0.130      164.518       18.120        0.012      325.464      -10.284      861.857
12/08/2013  00:15:00     -144.770      -11.400      -15.799       35.121       43.011       26.267     1233.484     1849.952      689.960        1.255        0.189      145.218       19.100        0.017      325.402      -10.384      861.832
12/08/2013  00:16:00     -133.462      -18.203       -9.287       35.331       33.619       18.805     1248.304     1130.267      353.609        1.048        0.137      134.697       14.328        0.011      325.376      -10.427      861.801
12/08/2013  00:17:00     -125.859      -16.489       -8.898       39.020       30.154       22.694     1522.533      909.256      515.037        0.957        0.147      126.935       21.220        0.028      325.371      -10.434      861.796
12/08/2013  00:18:00      -79.082      -60.762        0.547       42.419       45.163       24.086     1799.403     2039.676      580.129        0.718        0.221       99.729       24.275        0.059      325.405      -10.382      861.790
12/08/2013  00:19:00     -108.823       -9.402       -8.099       30.450       26.857       21.394      927.214      721.322      457.702        0.705        0.105      109.229       17.232        0.025      325.487      -10.249      861.785
12/08/2013  00:20:00     -121.222      -43.646      -18.423       25.022       30.094       18.637      626.117      905.678      347.343        0.941        0.094      128.840       15.306        0.014      325.400      -10.389      861.785
12/08/2013  00:21:00     -142.697      -44.279      -11.428       27.526       21.951       16.231      757.686      481.831      263.441        1.198        0.075      149.409        7.282        0.002      325.357      -10.457      861.785
12/08/2013  00:22:00     -146.891      -17.489       -9.141       32.750       25.786       21.559     1072.582      664.893      464.803        1.208        0.110      147.928       17.804        0.014      325.392      -10.402      861.791
12/08/2013  00:23:00     -125.391       -1.622      -12.983       44.571       29.598       23.956     1986.560      876.052      573.898        0.966        0.172      125.402       22.925        0.033      325.321      -10.515      861.810
12/08/2013  00:24:00     -141.500        8.606      -17.125       40.614       30.951       31.314     1649.511      957.983      980.565        1.199        0.179      141.761       23.981        0.029      325.230      -10.663      861.817
12/08/2013  00:25:00     -110.671        9.197      -13.442       50.426       37.161       26.707     2542.829     1380.950      713.240        0.857        0.232      111.053       21.935        0.039      325.203      -10.707      861.801
12/08/2013  00:26:00     -139.138       10.815      -13.285       38.743       32.905       25.078     1501.017     1082.757      628.926        1.143        0.161      139.558       22.967        0.027      325.240      -10.647      861.783
12/08/2013  00:27:00     -132.149       -2.834      -12.560       43.384       25.424       18.992     1882.162      646.399      360.679        1.026        0.144      132.179       20.463        0.024      325.275      -10.589      861.743
12/08/2013  00:28:00     -100.146       -9.595       -4.214       43.619       32.689       23.044     1902.633     1068.578      531.043        0.682        0.175      100.604       21.095        0.044      325.216      -10.686      861.711
12/08/2013  00:29:00     -149.852       -0.143      -17.131       37.380       48.835       24.338     1397.299     2384.813      592.324        1.356        0.219      149.852       19.674        0.017      325.108      -10.860      861.691
12/08/2013  00:30:00     -159.122       -0.779      -16.536       44.271       27.575       26.988     1959.936      760.386      728.331        1.452        0.172      159.124       25.248        0.025      325.027      -10.992      861.675
12/08/2013  00:31:00     -189.178       11.613      -20.578       30.004       20.473       16.956      900.221      419.164      287.503        1.898        0.080      189.534       13.417        0.005      324.897      -11.200      861.664
12/08/2013  00:32:00     -148.006       -1.030      -11.980       39.067       29.224       25.348     1526.209      854.017      642.540        1.254        0.151      148.009       21.429        0.021      324.907      -11.184      861.651
12/08/2013  00:33:00     -162.330       -9.153      -19.535       23.935       20.309       14.052      572.902      412.450      197.470        1.400        0.059      162.587        8.622        0.003      324.884      -11.221      861.645
12/08/2013  00:34:00     -119.261        1.204      -13.896       16.348       20.082       15.816      267.247      403.294      250.155        0.767        0.046      119.267        6.528        0.003      324.955      -11.108      861.637
12/08/2013  00:35:00     -124.942       14.952      -18.637       15.178       18.543       13.804      230.372      343.859      190.545        0.847        0.038      125.834        5.019        0.002      324.901      -11.194      861.639
12/08/2013  00:36:00     -107.066      -13.847      -12.576       27.161       22.122       19.138      737.697      489.390      366.264        0.670        0.080      107.958       13.840        0.016      324.940      -11.130      861.635
12/08/2013  00:37:00     -116.458        9.195      -12.523       27.368       18.767       17.935      749.018      352.216      321.659        0.761        0.071      116.820       12.883        0.012      324.887      -11.216      861.629
12/08/2013  00:38:00     -118.290       -5.203      -10.667       43.180       26.180       23.502     1864.474      685.396      552.355        0.862        0.155      118.404       26.858        0.051      324.798      -11.360      861.603
12/08/2013  00:39:00      -80.738      -10.151       -7.466       32.647       27.907       21.621     1065.842      778.803      467.464        0.449        0.116       81.373       17.746        0.048      324.842      -11.290      861.571
12/08/2013  00:40:00     -103.717      -14.390       -3.297       45.366       22.806       22.119     2058.076      520.121      489.231        0.702        0.153      104.711       23.562        0.051      324.784      -11.382      861.564
12/08/2013  00:41:00      -70.853      -15.487        0.168       45.443       40.416       19.624     2065.028     1633.459      385.098        0.467        0.204       72.526       17.089        0.056      324.837      -11.296      861.570
12/08/2013  00:42:00      -73.673      -29.803       -1.107       44.116       37.865       21.509     1946.183     1433.744      462.633        0.508        0.192       79.472       24.204        0.093      324.778      -11.391      861.583
12/08/2013  00:43:00      -62.297      -40.729       -3.893       34.296       19.834       19.861     1176.187      393.371      394.455        0.376        0.098       74.429       14.316        0.037      324.833      -11.303      861.595
12/08/2013  00:44:00      -28.888      -21.899       -3.305       29.559       14.445       16.149      873.741      208.650      260.794        0.133        0.067       36.251       17.982        0.246      324.766      -11.411      861.623
12/08/2013  00:45:00       19.327      -40.726        1.488       22.885       23.137       21.273      523.728      535.317      452.532        0.177        0.076       45.079       16.180        0.129      324.874      -11.236      861.650
12/08/2013  00:46:00      -33.207      -38.452      -20.952       27.119       29.580       11.915      735.424      874.959      141.965        0.239        0.088       50.806       13.168        0.067      324.775      -11.398      861.661
12/08/2013  00:47:00      -75.931      -12.156       -5.648       12.149       14.360       11.776      147.607      206.210      138.672        0.322        0.025       76.898        5.028        0.004      324.791      -11.371      861.669
12/08/2013  00:48:00      -79.279      -21.040       -7.944       12.917       12.196        9.967      166.838      148.739       99.349        0.360        0.021       82.024        7.953        0.009      324.794      -11.366      861.677
12/08/2013  00:49:00      -73.961      -31.708       -4.138       18.197       17.926       14.558      331.141      321.342      211.949        0.368        0.043       80.472        6.304        0.006      324.852      -11.272      861.673
12/08/2013  00:50:00     -107.175      -16.594       -9.885       12.178       11.816       11.824      148.292      139.625      139.803        0.614        0.021      108.452        6.301        0.003      324.771      -11.403      861.657
12/08/2013  00:51:00     -129.076      -11.646      -15.664       19.216       17.954       11.869      369.272      322.351      140.884        0.894        0.042      129.600        7.292        0.003      324.706      -11.508      861.648
12/08/2013  00:52:00      -74.582       -4.715      -10.219       26.702       22.959       14.989      712.977      527.114      224.678        0.358        0.073       74.730       13.043        0.030      324.725      -11.478      861.635
12/08/2013  00:53:00      -98.455       -2.272      -14.463       21.157       15.685       14.092      447.617      246.014      198.581        0.540        0.045       98.481       11.439        0.013      324.626      -11.636      861.633
12/08/2013  00:54:00     -125.148        7.314      -15.531       23.216       21.227       17.267      539.003      450.582      298.146        0.862        0.064      125.362        8.604        0.005      324.588      -11.699      861.641
12/08/2013  00:55:00     -107.324       -6.794      -12.457       29.811       19.959       14.242      888.699      398.368      202.827        0.660        0.074      107.539       13.198        0.015      324.640      -11.614      861.658
12/08/2013  00:56:00      -93.274      -14.836      -12.318       21.003       18.894       15.030      441.136      356.983      225.898        0.505        0.051       94.446        5.148        0.003      324.696      -11.525      861.669
12/08/2013  00:57:00      -76.856      -25.000       -8.109       18.667       18.298       13.477      348.462      334.824      181.642        0.373        0.043       80.820        4.058        0.003      324.774      -11.399      861.675
12/08/2013  00:58:00       -3.307       -2.383        9.845       15.648       17.219       11.127      244.847      296.481      123.808        0.039        0.033        4.076        8.434        4.282      324.885      -11.217      861.682
12/08/2013  00:59:00        0.815      -16.485        8.207       22.166       15.865       14.237      491.347      251.684      202.680        0.064        0.047       16.505       13.947        0.714      324.962      -11.095      861.685
12/08/2013  01:00:00      -53.101      -19.106       -2.445       20.889       13.881       11.014      436.336      192.685      121.311        0.197        0.038       56.434        9.592        0.029      324.810      -11.341      861.697
12/08/2013  01:01:00      -47.431      -22.653        1.106       11.387       15.727        9.855      129.666      247.326       97.112        0.162        0.024       52.563        6.427        0.015      324.852      -11.272      861.715
12/08/2013  01:02:00      -49.977       -9.355       -6.008        7.768       10.188        8.531       60.344      103.793       72.771        0.143        0.012       50.845        3.967        0.006      324.844      -11.285      861.728
12/08/2013  01:03:00      -67.481      -14.406       -6.211       15.053       12.526       10.142      226.605      156.892      102.855        0.264        0.024       69.001        3.162        0.002      324.896      -11.203      861.737
12/08/2013  01:04:00      -90.784      -44.909       -9.315       16.173       17.455       13.708      261.577      304.687      187.913        0.555        0.038      101.285       10.584        0.011      324.895      -11.203      861.740
12/08/2013  01:05:00     -110.091      -51.941       -2.970       26.689       25.146       12.903      712.326      632.326      166.486        0.817        0.076      121.729       11.361        0.009      324.974      -11.076      861.743
12/08/2013  01:06:00     -122.739      -50.853       -3.802       28.811       29.722       16.770      830.094      883.407      281.248        0.983        0.100      132.857       13.998        0.011      324.975      -11.074      861.735
12/08/2013  01:07:00     -102.684      -21.333       -2.563       34.266       28.970       17.750     1174.161      839.263      315.073        0.667        0.116      104.876       14.654        0.020      324.959      -11.101      861.732
12/08/2013  01:08:00     -102.224      -16.714       -3.047       31.562       22.798       20.727      996.164      519.765      429.608        0.634        0.097      103.582       20.076        0.038      324.940      -11.130      861.722
12/08/2013  01:09:00      -88.757      -14.038       -3.671       26.781       22.480       17.852      717.201      505.363      318.684        0.481        0.077       89.861       15.755        0.031      324.885      -11.218      861.714
12/08/2013  01:10:00      -95.597      -27.216       -1.320       37.202       29.340       17.923     1383.965      860.835      321.243        0.622        0.128       99.396       17.071        0.029      324.934      -11.140      861.703
12/08/2013  01:11:00      -44.212      -12.335        9.326       30.810       25.477       17.331      949.281      649.072      300.361        0.205        0.095       45.901       17.673        0.148      324.954      -11.107      861.712
12/08/2013  01:12:00      -92.740      -13.508       -3.855       24.526       23.539       15.325      601.513      554.078      234.849        0.509        0.070       93.719       13.623        0.021      324.959      -11.100      861.710
12/08/2013  01:13:00      -88.714      -10.495       -7.638       30.624       19.999       13.493      937.825      399.959      182.049        0.478        0.076       89.333       13.298        0.022      324.904      -11.189      861.694
12/08/2013  01:14:00      -80.910      -20.638       -0.653       34.676       21.269       17.842     1202.443      452.382      318.323        0.447        0.099       83.501       16.277        0.038      324.958      -11.102      861.678
12/08/2013  01:15:00     -117.002      -27.529       -0.589       28.496       25.667       19.231      812.041      658.798      369.845        0.814        0.092      120.197       17.487        0.021      324.945      -11.123      861.678
12/08/2013  01:16:00     -122.209      -34.651       -4.842       27.733       21.266       13.235      769.121      452.259      175.162        0.878        0.070      127.027       14.385        0.013      324.950      -11.115      861.666
12/08/2013  01:17:00     -128.938      -28.513       -4.131       27.897       22.921       14.758      778.221      525.367      217.788        0.949        0.076      132.053       14.879        0.013      324.941      -11.129      861.650
12/08/2013  01:18:00     -114.524      -51.215       -4.603       37.738       33.269       21.720     1424.189     1106.815      471.759        0.938        0.150      125.455       21.207        0.029      324.952      -11.111      861.631
12/08/2013  01:19:00     -132.844      -47.610       -1.550       36.510       27.933       22.304     1332.978      780.247      497.477        1.126        0.131      141.118       18.136        0.017      324.986      -11.057      861.618
12/08/2013  01:20:00     -157.518      -40.621       -4.338       31.722       20.971       16.469     1006.314      439.791      271.230        1.410        0.086      162.671       17.579        0.012      324.917      -11.169      861.616
12/08/2013  01:21:00     -156.383      -48.001       -1.525       42.448       26.174       19.303     1801.809      685.097      372.594        1.481        0.143      163.584       21.121        0.017      324.877      -11.233      861.621
12/08/2013  01:22:00     -174.065      -54.932       -5.417       24.937       19.294       16.978      621.851      372.268      288.266        1.731        0.064      182.527       13.477        0.005      324.898      -11.198      861.636
12/08/2013  01:23:00     -158.958      -29.711      -13.317       30.632       20.815       19.282      938.342      433.282      371.794        1.404        0.087      161.711       19.360        0.014      324.902      -11.192      861.642
12/08/2013  01:24:00     -145.249      -35.405       -9.011       36.723       24.997       18.665     1348.615      624.852      348.396        1.238        0.116      149.502       14.097        0.009      324.849      -11.277      861.649
12/08/2013  01:25:00     -130.198      -22.615       -9.357       36.085       25.467       19.223     1302.107      648.574      369.533        0.993        0.116      132.147       17.709        0.018      324.830      -11.308      861.662
12/08/2013  01:26:00     -139.176      -54.498      -11.615       26.567       33.728       20.326      705.832     1137.604      413.132        1.237        0.113      149.466       14.593        0.010      324.901      -11.193      861.678
12/08/2013  01:27:00     -121.037      -38.583      -12.443       27.719       32.135       18.512      768.326     1032.652      342.699        0.922        0.107      127.038       14.665        0.013      324.943      -11.125      861.690
12/08/2013  01:28:00     -137.830      -36.899      -14.592       25.895       26.436       14.785      670.571      698.845      218.600        1.108        0.079      142.684        5.848        0.002      324.905      -11.187      861.709
12/08/2013  01:29:00     -101.341      -43.986       -8.596       26.665       25.005       23.302      711.023      625.236      542.967        0.708        0.094      110.475       12.541        0.013      324.901      -11.195      861.733
12/08/2013  01:30:00      -78.349      -35.832       -5.100       35.501       31.978       20.965     1260.307     1022.585      439.526        0.508        0.136       86.154       20.274        0.055      324.918      -11.167      861.748
12/08/2013  01:31:00     -112.701      -12.006      -11.932       21.831       16.610       16.376      476.612      275.904      268.181        0.700        0.051      113.338       16.088        0.020      324.863      -11.254      861.761
12/08/2013  01:32:00      -98.241        0.307       -6.014       18.948       12.905       18.313      359.042      166.539      335.353        0.527        0.043       98.241       10.922        0.012      324.973      -11.079      861.767
12/08/2013  01:33:00      -88.302      -15.790       -8.009       25.028       19.879       15.997      626.392      395.189      255.909        0.469        0.064       89.702       11.645        0.017      324.898      -11.199      861.778
12/08/2013  01:34:00      -65.552        0.465       -1.373       50.539       15.637       17.700     2554.229      244.514      313.300        0.370        0.156       65.553       24.390        0.138      324.923      -11.159      861.787
12/08/2013  01:35:00      -69.281       -7.574        1.790       37.725       23.571       18.176     1423.145      555.589      330.382        0.358        0.115       69.693       21.655        0.097      324.806      -11.347      861.802
12/08/2013  01:36:00      -87.016      -11.186       -3.146       23.992       18.740       13.715      575.609      351.175      188.103        0.441        0.056       87.732       10.497        0.014      324.790      -11.373      861.815
12/08/2013  01:37:00      -59.442      -15.395        2.138       20.453       18.558       12.702      418.324      344.408      161.334        0.235        0.046       61.403        8.621        0.020      324.852      -11.273      861.830
12/08/2013  01:38:00      -77.983      -27.029       -4.472       13.924       16.405       13.615      193.865      269.113      185.372        0.374        0.032       82.534        4.718        0.003      324.917      -11.169      861.837
12/08/2013  01:39:00      -76.544      -31.552      -12.072       11.702       12.456        9.874      136.933      155.156       97.487        0.369        0.019       82.792        6.105        0.005      324.912      -11.176      861.843
12/08/2013  01:40:00      -86.112       -4.930       -9.749       16.769       11.906        9.995      281.189      141.748       99.903        0.403        0.026       86.253        8.114        0.009      324.984      -11.059      861.858
12/08/2013  01:41:00      -67.758       -1.315       -8.489       28.895       18.705       13.877      834.931      349.862      192.571        0.302        0.069       67.770       12.523        0.034      324.909      -11.182      861.875
12/08/2013  01:42:00      -59.767       -9.070       -2.855       29.892       15.584       13.969      893.539      242.870      195.142        0.250        0.067       60.451       13.971        0.053      324.935      -11.139      861.874
12/08/2013  01:43:00      -76.522       -9.444       -8.189       19.510       16.951       13.032      380.627      287.337      169.844        0.342        0.042       77.102        9.613        0.016      324.825      -11.315      861.862
12/08/2013  01:44:00      -74.287      -14.212       -0.671       17.543       21.367       10.799      307.762      456.551      116.621        0.330        0.044       75.635        6.461        0.007      324.838      -11.295      861.843
12/08/2013  01:45:00      -74.567      -17.946       -5.037       15.815       12.541       11.354      250.128      157.275      128.904        0.322        0.027       76.697        8.199        0.011      324.827      -11.312      861.824
12/08/2013  01:46:00      -73.346      -11.574       -6.519       13.883       15.750       10.422      192.743      248.073      108.622        0.305        0.027       74.254        8.357        0.013      324.867      -11.249      861.820
12/08/2013  01:47:00      -61.718      -13.959       -2.251       13.689       13.738       11.295      187.379      188.726      127.574        0.226        0.025       63.277        9.059        0.020      324.869      -11.245      861.826
12/08/2013  01:48:00      -35.496      -26.557       -2.024       22.006       16.409       12.308      484.262      269.266      151.488        0.144        0.045       44.331       10.898        0.060      324.955      -11.106      861.826
12/08/2013  01:49:00      -21.565      -18.409       -1.462       18.151        8.412       13.054      329.467       70.757      170.415        0.069        0.029       28.354       13.054        0.212      324.940      -11.130      861.819
12/08/2013  01:50:00       -2.847        0.047        6.513        8.629        5.280        5.708       74.452       27.878       32.581        0.009        0.007        2.848        4.488        2.484      324.993      -11.044      861.810
12/08/2013  01:51:00      -18.282        1.674        0.100       25.189        6.883        8.314      634.473       47.378       69.124        0.054        0.038       18.359        8.623        0.221      324.975      -11.073      861.803
12/08/2013  01:52:00      -48.852      -12.905       -3.552       15.127       11.075        8.786      228.830      122.648       77.187        0.150        0.021       50.527        7.173        0.020      324.962      -11.096      861.812
12/08/2013  01:53:00      -49.057       -0.231       -4.370        9.546        9.341        7.850       91.135       87.262       61.616        0.133        0.012       49.057        2.152        0.002      324.979      -11.067      861.822
12/08/2013  01:54:00      -67.138       10.958       -9.448       23.692       13.030        9.234      561.311      169.791       85.273        0.277        0.041       68.026       11.504        0.029      324.864      -11.254      861.836
12/08/2013  01:55:00      -55.653       -8.606       -5.415       28.456       20.023       15.496      809.767      400.928      240.127        0.233        0.073       56.314       17.569        0.097      324.903      -11.190      861.843
12/08/2013  01:56:00      -62.239        7.668       -4.428       42.998       21.535       16.048     1848.842      463.743      257.545        0.326        0.129       62.710       22.309        0.127      324.885      -11.220      861.833
12/08/2013  01:57:00      -43.057       -3.820        2.847       31.945       24.480       14.592     1020.509      599.253      212.928        0.185        0.092       43.226       10.178        0.055      324.868      -11.249      861.836
12/08/2013  01:58:00      -78.341       12.203      -13.116       32.984       24.735       17.590     1087.928      611.822      309.415        0.423        0.100       79.286       14.578        0.034      324.853      -11.271      861.846
12/08/2013  01:59:00      -78.343       14.513      -14.811       22.126       22.291       18.418      489.581      496.906      339.231        0.395        0.066       79.676       10.322        0.017      324.845      -11.284      861.855
12/08/2013  02:00:00     -104.543        9.028      -18.728       19.332       21.305       11.693      373.726      453.890      136.734        0.616        0.048      104.932        3.229        0.001      324.832      -11.305      861.857
12/08/2013  02:01:00      -58.586       -6.086       -8.435       14.192       19.224       15.384      201.419      369.557      236.658        0.217        0.040       58.901        9.210        0.024      324.840      -11.292      861.872
12/08/2013  02:02:00      -91.878       -8.046      -10.119       21.395       13.732       15.081      457.731      188.571      227.425        0.474        0.044       92.230       14.027        0.023      324.790      -11.372      861.882
12/08/2013  02:03:00      -94.707       -6.078      -12.345       33.499       20.802       16.798     1122.151      432.726      282.182        0.550        0.092       94.902       15.572        0.027      324.655      -11.590      861.892
12/08/2013  02:04:00      -66.987       -1.976       -6.161       41.565       27.640       23.207     1727.652      763.945      538.547        0.378        0.152       67.017       19.463        0.084      324.592      -11.692      861.902
12/08/2013  02:05:00      -85.664       -3.883       -5.984       32.219       31.589       22.190     1038.095      997.847      492.377        0.496        0.126       85.752       18.732        0.048      324.610      -11.662      861.914
12/08/2013  02:06:00      -69.976        5.360       -3.660       40.432       24.294       18.247     1634.748      590.182      332.959        0.375        0.128       70.181       14.421        0.042      324.577      -11.717      861.934
12/08/2013  02:07:00      -23.320      -15.211       -4.332       30.985       24.024       19.603      960.052      577.156      384.261        0.136        0.096       27.843       15.277        0.301      324.632      -11.627      861.940
12/08/2013  02:08:00      -26.669      -18.710       -4.555       25.353       14.821       14.536      642.775      219.654      211.284        0.108        0.054       32.578       13.248        0.165      324.679      -11.551      861.943
12/08/2013  02:09:00       -5.892       -9.455        5.741        9.058       13.229       13.986       82.041      175.016      195.618        0.030        0.023       11.141       11.672        1.098      324.815      -11.332      861.947
12/08/2013  02:10:00      -19.594      -25.213       -8.276       17.018        7.320        6.327      289.599       53.587       40.032        0.074        0.019       31.931        4.345        0.019      324.817      -11.328      861.959
12/08/2013  02:11:00       -1.795      -19.218        6.848       17.522       16.126       15.200      307.028      260.057      231.050        0.061        0.040       19.302       15.561        0.650      324.814      -11.334      861.982
12/08/2013  02:12:00        9.740      -14.572        1.416       10.677       12.197       11.620      114.005      148.761      135.023        0.035        0.020       17.528        5.060        0.083      324.779      -11.391      861.995
12/08/2013  02:13:00       -4.134      -14.147       -9.847       14.280       10.768        7.190      203.926      115.945       51.694        0.034        0.019       14.739        6.537        0.197      324.759      -11.423      862.004
12/08/2013  02:14:00      -21.595      -36.191       -6.811       17.831       14.341        9.516      317.936      205.664       90.558        0.122        0.031       42.144        6.312        0.022      324.839      -11.293      862.020
12/08/2013  02:15:00      -18.657      -24.122        1.215       11.759        7.674        8.750      138.264       58.889       76.568        0.060        0.014       30.495        6.473        0.045      324.883      -11.222      862.028
12/08/2013  02:16:00      -34.584      -17.258       -4.741       15.671        7.853        7.743      245.577       61.672       59.957        0.094        0.018       38.651        5.219        0.018      324.782      -11.385      862.031
12/08/2013  02:17:00      -50.141      -12.196       -5.449       10.396        9.713        9.642      108.071       94.336       92.967        0.149        0.015       51.603        6.067        0.014      324.704      -11.512      862.041
12/08/2013  02:18:00      -45.431      -16.057       -4.732        8.263        8.594        5.840       68.271       73.855       34.103        0.126        0.009       48.185        3.438        0.005      324.718      -11.490      862.055
12/08/2013  02:19:00      -42.542      -15.707       -3.819        7.843        7.789        5.953       61.515       60.666       35.433        0.111        0.008       45.349        3.709        0.007      324.731      -11.467      862.072
12/08/2013  02:20:00      -47.416       -6.206        2.478        8.669       13.826        7.239       75.145      191.160       52.397        0.131        0.016       47.820        5.398        0.013      324.777      -11.394      862.093
12/08/2013  02:21:00      -43.323       -6.897        4.526       13.528       16.573        9.325      183.009      274.669       86.955        0.124        0.027       43.869        6.970        0.025      324.806      -11.346      862.113
12/08/2013  02:22:00      -58.252        4.320       -3.041       22.712       11.196        9.820      515.855      125.347       96.426        0.208        0.037       58.412       11.162        0.037      324.746      -11.444      862.127
12/08/2013  02:23:00      -57.054        9.051       -7.447       18.865        9.141        9.456      355.890       83.560       89.408        0.196        0.026       57.768        6.593        0.013      324.723      -11.482      862.143
12/08/2013  02:24:00      -81.436       17.278       -2.185       15.065       15.052       12.183      226.957      226.548      148.430        0.377        0.030       83.248        9.344        0.013      324.739      -11.454      862.158
12/08/2013  02:25:00      -71.333       -6.188       -5.994       17.858       15.970        9.407      318.901      255.031       88.490        0.291        0.033       71.601        7.779        0.012      324.700      -11.517      862.172
12/08/2013  02:26:00      -52.944       -3.863       -4.470       19.113       16.099       13.805      365.319      259.192      190.584        0.183        0.041       53.085       11.142        0.044      324.685      -11.541      862.188
12/08/2013  02:27:00      -62.017      -12.310        1.272       22.796       13.690       13.918      519.680      187.413      193.697        0.245        0.045       63.227       11.846        0.035      324.707      -11.507      862.195
12/08/2013  02:28:00      -57.338      -16.053        2.893       34.949       27.938       16.814     1221.450      780.531      282.710        0.292        0.114       59.542       17.381        0.085      324.661      -11.581      862.216
12/08/2013  02:29:00      -26.616      -11.368        4.904       21.885       23.766       15.017      478.953      564.814      225.504        0.107        0.063       28.942       12.431        0.184      324.652      -11.596      862.239
12/08/2013  02:30:00      -57.618        9.626       -0.845       24.308       16.874       12.943      590.888      284.728      167.514        0.223        0.052       58.417       11.297        0.037      324.480      -11.871      862.284
12/08/2013  02:31:00      -76.876        7.169       -6.224       23.510       16.638       12.621      552.699      276.818      159.300        0.349        0.049       77.210       10.577        0.019      324.439      -11.938      862.336
12/08/2013  02:32:00      -76.894        4.071       -8.049       30.846       22.283       17.798      951.483      496.548      316.778        0.388        0.088       77.002       17.886        0.054      324.401      -11.999      862.379
12/08/2013  02:33:00     -110.208       -0.415      -10.684       28.892       19.546       13.393      834.730      382.050      179.372        0.683        0.070      110.208       13.677        0.015      324.399      -12.004      862.412
12/08/2013  02:34:00     -119.637        4.691       -8.441       23.956       17.809       11.410      573.883      317.171      130.181        0.771        0.051      119.729        8.238        0.005      324.383      -12.031      862.441
12/08/2013  02:35:00      -82.091      -12.987       -6.260       45.171       17.913       17.328     2040.380      320.859      300.243        0.480        0.133       83.112       20.462        0.061      324.347      -12.086      862.455
12/08/2013  02:36:00      -80.956      -38.444        1.597       31.245       30.001       17.528      976.274      900.079      307.222        0.511        0.109       89.620       13.863        0.024      324.398      -12.004      862.454
12/08/2013  02:37:00      -76.366      -27.898        2.072       35.364       21.659       16.455     1250.639      469.100      270.769        0.430        0.100       81.303       15.867        0.038      324.384      -12.027      862.440
12/08/2013  02:38:00      -72.541      -19.476        5.093       37.890       33.330       15.253     1435.666     1110.918      232.652        0.422        0.139       75.110       14.248        0.036      324.408      -11.988      862.421
12/08/2013  02:39:00      -55.723        1.070        7.003       40.431       20.533       18.676     1634.641      421.595      348.788        0.278        0.120       55.733       20.362        0.133      324.394      -12.011      862.400
12/08/2013  02:40:00      -50.211      -21.390        0.825       28.455       19.907       13.973      809.680      396.282      195.246        0.219        0.070       54.578       12.312        0.051      324.364      -12.061      862.374
12/08/2013  02:41:00      -69.941      -13.777       -1.804       16.281       14.413       10.878      265.056      207.733      118.337        0.284        0.030       71.285        8.144        0.013      324.315      -12.138      862.366
12/08/2013  02:42:00      -76.510       -4.873       -5.438       20.894       17.012       12.698      436.546      289.412      161.231        0.340        0.044       76.665        8.693        0.013      324.330      -12.114      862.363
12/08/2013  02:43:00     -101.958      -10.010      -12.670       17.627       16.842       11.239      310.725      283.655      126.326        0.569        0.036      102.448        6.545        0.004      324.346      -12.089      862.367
12/08/2013  02:44:00      -89.353       -8.842       -3.629       21.526       13.641       12.750      463.356      186.089      162.573        0.444        0.041       89.789        7.360        0.007      324.353      -12.077      862.380
12/08/2013  02:45:00      -79.794      -14.305       -5.706       23.130       13.246       12.836      534.991      175.447      164.752        0.374        0.044       81.066       11.575        0.020      324.327      -12.120      862.391
12/08/2013  02:46:00      -72.097       -9.371       -5.448       18.206       18.897       10.545      331.464      357.090      111.199        0.306        0.040       72.703        9.129        0.016      324.186      -12.344      862.393
12/08/2013  02:47:00      -69.916       -4.867       -6.467       24.688       21.983       14.187      609.490      483.251      201.279        0.312        0.065       70.085       13.535        0.037      324.180      -12.354      862.385
12/08/2013  02:48:00      -82.527      -10.508       -4.792       27.229       16.590       16.730      741.400      275.226      279.895        0.412        0.065       83.193       16.138        0.038      324.127      -12.441      862.364
12/08/2013  02:49:00      -33.874       -5.472        1.514       30.754       17.245       10.462      945.781      297.384      109.459        0.127        0.068       34.313       11.318        0.109      324.140      -12.421      862.338
12/08/2013  02:50:00      -73.723      -13.190       -1.074       31.045       19.714       15.436      963.811      388.628      238.275        0.360        0.080       74.893       17.222        0.053      324.071      -12.531      862.327
12/08/2013  02:51:00      -68.249       -8.196       -3.971       21.185       13.641       10.674      448.803      186.068      113.940        0.274        0.037       68.740        8.719        0.016      324.103      -12.479      862.327
12/08/2013  02:52:00      -67.273      -10.496       -5.374       14.792       12.121        9.041      218.802      146.918       81.747        0.256        0.022       68.087        4.987        0.005      324.132      -12.432      862.331
12/08/2013  02:53:00      -71.794       -7.508       -7.171       17.229       13.284        7.750      296.855      176.456       60.065        0.290        0.027       72.185        4.033        0.003      324.102      -12.480      862.338
12/08/2013  02:54:00      -77.708       -0.507       -4.725       16.335        9.322       10.352      266.824       86.906      107.167        0.326        0.023       77.710        9.406        0.015      324.074      -12.525      862.358
12/08/2013  02:55:00      -77.638       -6.642       -4.089       18.601       11.225       13.261      346.001      126.007      175.864        0.337        0.032       77.922       12.323        0.025      324.112      -12.464      862.365
12/08/2013  02:56:00     -100.576      -11.292       -9.122       19.083       12.076       12.152      364.150      145.841      147.667        0.549        0.033      101.208       10.896        0.012      324.033      -12.592      862.368
12/08/2013  02:57:00     -110.332      -11.657       -6.568       20.831       15.814       13.054      433.944      250.070      170.412        0.660        0.043      110.946       11.583        0.011      323.967      -12.698      862.353
12/08/2013  02:58:00     -108.859       -8.116       -5.293       25.957       16.829       18.564      673.769      283.199      344.616        0.662        0.065      109.161       17.521        0.026      323.918      -12.777      862.328
12/08/2013  02:59:00     -119.724       -5.245       -9.521       19.556       17.262       17.157      382.453      297.960      294.356        0.771        0.049      119.839       12.966        0.012      323.851      -12.885      862.310
12/08/2013  03:00:00     -108.940       -9.299       -2.482       24.691       18.564       14.096      609.648      344.611      198.684        0.656        0.058      109.336       13.596        0.015      323.868      -12.857      862.307
12/08/2013  03:01:00     -102.049       -6.788       -2.148       37.421       23.032       16.420     1400.301      530.461      269.605        0.633        0.110      102.274       17.593        0.030      323.871      -12.852      862.327
12/08/2013  03:02:00     -116.625      -10.210       -8.183       35.660       14.982       18.649     1271.616      224.456      347.776        0.781        0.092      117.071       18.945        0.026      323.878      -12.842      862.340
12/08/2013  03:03:00     -118.683      -24.102       -8.897       21.664       19.694       16.656      469.333      387.850      277.425        0.794        0.057      121.105       10.199        0.007      323.882      -12.834      862.338
12/08/2013  03:04:00     -102.155      -50.049        0.946       31.749       21.969       19.128     1008.024      482.629      365.885        0.740        0.093      113.756       18.601        0.027      323.923      -12.769      862.334
12/08/2013  03:05:00     -107.483      -49.664       -2.976       17.893       18.366       13.678      320.168      337.307      187.078        0.744        0.042      118.402        9.439        0.006      324.017      -12.618      862.335
12/08/2013  03:06:00     -106.622      -43.892        2.494       30.077       25.585       16.330      904.605      654.585      266.675        0.756        0.091      115.303        8.464        0.005      324.069      -12.533      862.340
12/08/2013  03:07:00     -121.925      -57.592       -4.331       27.382       37.906       17.429      749.783     1436.847      303.765        1.035        0.125      134.843       14.708        0.012      324.028      -12.599      862.336
12/08/2013  03:08:00     -135.593       -1.197      -12.285       44.944       21.424       16.948     2019.963      458.970      287.218        1.065        0.138      135.598       20.030        0.022      323.817      -12.940      862.336
12/08/2013  03:09:00     -146.939       -0.386       -6.025       56.912       27.879       23.040     3239.008      777.230      530.830        1.309        0.227      146.939       25.268        0.030      323.693      -13.138      862.346
12/08/2013  03:10:00     -167.054      -33.652       -2.398       40.502       34.304       26.954     1640.387     1176.747      726.509        1.629        0.177      170.410       20.606        0.015      323.688      -13.145      862.350
12/08/2013  03:11:00     -148.878      -67.824      -10.088       46.088       33.142       25.336     2124.110     1098.377      641.908        1.536        0.193      163.600       25.337        0.024      323.681      -13.158      862.354
12/08/2013  03:12:00     -145.292      -48.155       -5.995       32.042       37.146       17.546     1026.683     1379.836      307.861        1.309        0.136      153.064       16.692        0.012      323.686      -13.151      862.367
12/08/2013  03:13:00     -140.184      -20.259       -2.980       35.335       28.128       23.342     1248.579      791.211      544.849        1.133        0.129      141.641       22.993        0.026      323.657      -13.196      862.378
12/08/2013  03:14:00     -153.227      -48.299       -3.126       28.850       26.970       20.157      832.321      727.367      406.289        1.389        0.098      160.659       16.859        0.011      323.645      -13.216      862.362
12/08/2013  03:15:00     -138.861      -42.116       -3.349       34.346       28.146       17.523     1179.624      792.222      307.039        1.167        0.114      145.107       14.027        0.009      323.740      -13.062      862.350
12/08/2013  03:16:00     -138.471      -51.466      -13.544       47.691       32.818       22.764     2274.456     1077.042      518.190        1.294        0.193      147.726       24.684        0.028      323.763      -13.024      862.350
12/08/2013  03:17:00     -134.841      -74.442       -5.153       39.209       30.713       22.191     1537.351      943.276      492.458        1.336        0.149      154.025       20.365        0.017      323.719      -13.096      862.354
12/08/2013  03:18:00     -122.548      -62.382       -2.861       33.874       26.720       18.893     1147.465      713.957      356.940        1.057        0.111      137.512       18.093        0.017      323.802      -12.963      862.355
12/08/2013  03:19:00     -100.415      -32.650        1.799       33.104       29.738       20.254     1095.853      884.329      410.213        0.677        0.120      105.590       15.210        0.021      323.960      -12.708      862.361
12/08/2013  03:20:00     -113.136      -31.037       -2.559       43.454       35.545       23.320     1888.236     1263.444      543.814        0.873        0.185      117.316       18.103        0.024      323.926      -12.763      862.379
12/08/2013  03:21:00     -123.372      -68.279       -8.809       34.222       34.406       22.834     1171.119     1183.799      521.371        1.142        0.144      141.006       19.773        0.020      323.890      -12.821      862.378
12/08/2013  03:22:00     -120.696      -58.982       -6.605       52.178       31.178       20.537     2722.543      972.039      421.753        1.110        0.206      134.337       19.432        0.021      323.925      -12.765      862.380
12/08/2013  03:23:00     -116.693      -63.326       -1.399       56.424       34.683       26.691     3183.703     1202.876      712.413        1.136        0.255      132.768       25.075        0.036      323.852      -12.882      862.398
12/08/2013  03:24:00     -127.973      -70.903       -5.290       47.167       28.049       23.111     2224.747      786.740      534.118        1.249        0.177      146.302       15.672        0.011      323.931      -12.756      862.403
12/08/2013  03:25:00     -138.363      -79.199      -16.737       28.485       31.589       19.833      811.368      997.893      393.366        1.395        0.110      159.427       13.377        0.007      323.941      -12.740      862.401
12/08/2013  03:26:00     -102.647      -54.209       -6.767       38.533       36.288       24.549     1484.818     1316.838      602.673        0.846        0.170      116.082       14.590        0.016      323.938      -12.744      862.402
12/08/2013  03:27:00     -112.614      -36.099       -0.101       38.215       38.191       22.456     1460.423     1458.537      504.273        0.870        0.171      118.259       12.959        0.012      323.917      -12.779      862.390
12/08/2013  03:28:00     -162.050        5.898      -17.386       68.861       26.229       23.166     4741.771      687.949      536.677        1.628        0.298      162.157       30.343        0.035      323.769      -13.016      862.376
12/08/2013  03:29:00     -179.957      -52.667      -11.861       43.413       42.188       24.258     1884.648     1779.855      588.465        1.978        0.213      187.506       19.397        0.011      323.681      -13.160      862.388
12/08/2013  03:30:00     -146.542      -46.964       -2.257       57.575       39.494       27.397     3314.902     1559.788      750.570        1.465        0.281      153.883       25.155        0.027      323.676      -13.166      862.396
12/08/2013  03:31:00     -184.038      -76.324      -11.541       38.353       40.031       25.996     1470.942     1602.478      675.815        2.179        0.187      199.237       15.903        0.006      323.595      -13.296      862.384
12/08/2013  03:32:00     -146.923      -63.902      -12.018       43.738       41.781       23.127     1913.047     1745.653      534.868        1.500        0.210      160.218       22.329        0.019      323.659      -13.193      862.373
12/08/2013  03:33:00     -167.881      -84.752       -6.266       45.847       34.832       26.968     2101.993     1213.270      727.250        1.972        0.202      188.061       26.655        0.020      323.545      -13.376      862.383
12/08/2013  03:34:00     -153.331      -42.534      -12.464       57.686       46.091       30.389     3327.688     2124.397      923.466        1.592        0.319      159.121       25.488        0.026      323.561      -13.350      862.376
12/08/2013  03:35:00     -151.432      -56.963       -6.104       45.100       46.098       33.223     2034.043     2125.019     1103.779        1.574        0.263      161.791       31.929        0.039      323.631      -13.239      862.367
12/08/2013  03:36:00     -145.199      -68.134       -3.402       35.304       35.601       26.382     1246.382     1267.419      695.993        1.447        0.160      160.390       14.011        0.008      323.668      -13.178      862.365
12/08/2013  03:37:00     -135.891      -62.596      -10.994       36.215       30.321       26.584     1311.562      919.364      706.701        1.272        0.147      149.615       16.944        0.013      323.644      -13.218      862.366
12/08/2013  03:38:00     -139.861      -39.126       -7.634       33.952       42.090       23.176     1152.747     1771.535      537.104        1.231        0.173      145.230       15.512        0.011      323.710      -13.111      862.362
12/08/2013  03:39:00     -160.229      -26.684      -24.203       38.219       35.278       29.428     1460.724     1244.567      866.006        1.527        0.179      162.435       25.953        0.026      323.737      -13.067      862.354
12/08/2013  03:40:00     -174.357      -41.104      -21.002       40.238       52.564       29.231     1619.111     2762.979      854.430        1.888        0.262      179.137       20.531        0.013      323.669      -13.178      862.347
12/08/2013  03:41:00     -164.603      -28.814      -16.196       42.087       44.867       26.857     1771.301     2013.029      721.314        1.635        0.225      167.106       23.862        0.020      323.601      -13.286      862.343
12/08/2013  03:42:00     -183.740      -33.273      -19.313       43.720       46.003       30.038     1911.410     2116.317      902.259        2.008        0.246      186.728       28.768        0.024      323.624      -13.250      862.350
12/08/2013  03:43:00     -180.419      -13.201      -13.615       53.415       41.918       32.515     2853.139     1757.147     1057.227        1.929        0.283      180.902       31.208        0.030      323.556      -13.359      862.384
12/08/2013  03:44:00     -166.893      -18.819      -28.991       37.738       38.744       28.964     1424.187     1501.061      838.929        1.641        0.188      167.950       17.862        0.011      323.582      -13.316      862.394
12/08/2013  03:45:00     -202.931       19.613      -17.333       39.827       41.169       27.610     1586.224     1694.919      762.316        2.295        0.202      203.877       20.159        0.010      323.582      -13.319      862.398
12/08/2013  03:46:00     -215.712       17.084      -23.774       37.495       35.750       23.376     1405.870     1278.042      546.446        2.531        0.162      216.387       18.519        0.007      323.573      -13.334      862.398
12/08/2013  03:47:00     -173.138       27.104      -16.044       41.984       43.711       23.631     1762.648     1910.662      558.412        1.760        0.212      175.246       19.407        0.012      323.577      -13.325      862.397
12/08/2013  03:48:00     -135.359       -7.172      -12.119       39.321       49.562       25.654     1546.125     2456.372      658.121        1.159        0.233      135.549       20.689        0.023      323.591      -13.303      862.387
12/08/2013  03:49:00     -133.588       42.997      -30.358       32.845       55.860       23.404     1078.784     3120.297      547.760        1.268        0.237      140.338       18.134        0.017      323.511      -13.431      862.388
12/08/2013  03:50:00     -171.099       53.355      -25.262       41.661       33.868       23.474     1735.664     1147.008      551.012        1.810        0.172      179.225        5.513        0.001      323.488      -13.466      862.391
12/08/2013  03:51:00     -142.859      -27.072      -17.157       32.790       35.832       20.214     1075.152     1283.967      408.608        1.210        0.138      145.402       14.354        0.010      323.448      -13.530      862.393
12/08/2013  03:52:00     -140.915       -4.088      -10.110       45.513       48.427       34.809     2071.426     2345.137     1211.671        1.280        0.281      140.974       19.170        0.018      323.481      -13.479      862.405
12/08/2013  03:53:00     -182.559        5.843      -25.958       28.815       48.347       24.955      830.312     2337.460      622.745        1.891        0.190      182.653       19.038        0.011      323.409      -13.594      862.401
12/08/2013  03:54:00     -151.326      -21.811       -3.902       64.700       46.992       32.381     4186.055     2208.231     1048.539        1.542        0.372      152.890       23.337        0.023      323.350      -13.689      862.394
12/08/2013  03:55:00     -140.100      -38.386      -16.641       46.823       59.172       27.859     2192.396     3501.334      776.146        1.392        0.323      145.264       18.808        0.017      323.335      -13.712      862.387
12/08/2013  03:56:00     -123.847       -2.141       -8.005       41.979       48.729       25.648     1762.256     2374.557      657.837        1.010        0.240      123.865       20.295        0.027      323.327      -13.724      862.370
12/08/2013  03:57:00     -112.241        4.464      -12.563       40.417       34.280       20.149     1633.574     1175.105      405.979        0.799        0.161      112.329       19.797        0.031      323.383      -13.635      862.353
12/08/2013  03:58:00     -106.371      -12.809      -10.713       26.431       30.114       21.532      698.577      906.836      463.618        0.683        0.103      107.140       15.520        0.021      323.430      -13.560      862.332
12/08/2013  03:59:00     -136.195       -8.734      -19.452       24.843       34.619       17.205      617.190     1198.494      296.028        1.056        0.106      136.475       10.982        0.006      323.429      -13.562      862.322
12/08/2013  04:00:00      -96.156      -17.463      -14.034       32.370       24.947       15.664     1047.812      622.333      245.352        0.583        0.096       97.729       12.754        0.017      323.423      -13.570      862.323
12/08/2013  04:01:00      -74.238      -13.124       -1.493       47.557       38.116       20.947     2261.705     1452.814      438.794        0.492        0.208       75.389       17.886        0.056      323.435      -13.552      862.312
12/08/2013  04:02:00      -92.307      -17.033      -14.106       26.974       34.799       17.818      727.588     1210.984      317.473        0.563        0.113       93.865        6.093        0.004      323.467      -13.501      862.305
12/08/2013  04:03:00     -120.376      -24.442       -5.094       43.052       33.777       21.005     1853.506     1140.853      441.217        0.927        0.172      122.832       18.387        0.022      323.481      -13.479      862.308
12/08/2013  04:04:00     -131.445      -38.029      -12.884       32.975       30.503       19.234     1087.374      930.444      369.952        1.064        0.119      136.835       16.230        0.014      323.570      -13.337      862.292
12/08/2013  04:05:00     -125.255      -21.373      -10.152       35.650       32.268       18.759     1270.896     1041.193      351.887        0.946        0.133      127.066       17.318        0.019      323.537      -13.390      862.297
12/08/2013  04:06:00      -96.174      -26.358       -0.939       37.365       33.365       16.206     1396.170     1113.227      262.644        0.636        0.139       99.721       18.322        0.034      323.587      -13.309      862.306
12/08/2013  04:07:00     -130.709      -13.554       -9.889       25.168       19.122       15.530      633.423      365.639      241.171        0.930        0.062      131.410       11.279        0.007      323.503      -13.444      862.308
12/08/2013  04:08:00     -101.263      -26.678       -5.953       33.691       23.149       18.872     1135.076      535.875      356.153        0.651        0.101      104.718       17.313        0.027      323.583      -13.315      862.313
12/08/2013  04:09:00      -66.642      -22.105       -6.187       20.344       28.804       15.883      413.867      829.686      252.258        0.323        0.075       70.212       11.842        0.028      323.690      -13.143      862.327
12/08/2013  04:10:00      -77.676      -33.210       -3.582       19.396       18.155       15.332      376.192      329.605      235.055        0.404        0.047       84.477       10.165        0.014      323.778      -13.000      862.337
12/08/2013  04:11:00      -93.225       -9.226       -8.995       19.366       11.792        9.409      375.043      139.047       88.523        0.473        0.030       93.681        4.401        0.002      323.763      -13.025      862.346
12/08/2013  04:12:00      -81.013       -9.512        3.151       26.595       22.994       14.268      707.318      528.720      203.569        0.405        0.072       81.569       13.864        0.029      323.804      -12.960      862.345
12/08/2013  04:13:00      -58.530      -30.620       -4.384       30.507       20.121       11.065      930.666      404.849      122.426        0.292        0.073       66.056       14.483        0.048      323.777      -13.002      862.356
12/08/2013  04:14:00      -12.873      -25.379        3.540       17.563       16.016       10.389      308.452      256.511      107.933        0.075        0.034       28.457        8.283        0.085      323.828      -12.922      862.351
12/08/2013  04:15:00      -31.748       -0.762        3.605       14.712       13.723        8.789      216.453      188.329       77.245        0.075        0.024       31.757        7.129        0.050      323.746      -13.052      862.340
12/08/2013  04:16:00      -45.082       -7.864        1.283       22.593       31.045       14.159      510.425      963.794      200.473        0.188        0.084       45.762        9.926        0.047      323.764      -13.023      862.330
12/08/2013  04:17:00      -62.357      -29.041       -8.417       18.090       18.764        9.635      327.232      352.091       92.838        0.279        0.039       68.788        5.152        0.006      323.639      -13.223      862.320
12/08/2013  04:18:00      -75.559      -22.946       -1.631       26.781       21.360       15.223      717.198      456.247      231.732        0.382        0.070       78.966        9.214        0.014      323.616      -13.263      862.319
12/08/2013  04:19:00     -111.232      -48.296       -0.558       28.418       31.313       16.679      807.583      980.502      278.201        0.839        0.103      121.264       11.428        0.009      323.613      -13.266      862.315
12/08/2013  04:20:00     -121.540      -87.986       -1.942       43.923       43.784       22.965     1929.235     1917.057      527.396        1.344        0.219      150.045       20.108        0.018      323.538      -13.387      862.323
12/08/2013  04:21:00      -94.135      -59.890        0.622       53.478       39.516       19.991     2859.877     1561.514      399.654        0.863        0.241      111.571       23.778        0.045      323.601      -13.285      862.330
12/08/2013  04:22:00      -92.905      -54.147       -3.029       56.708       32.879       23.792     3215.747     1081.001      566.066        0.822        0.243      107.532       21.889        0.041      323.598      -13.291      862.335
12/08/2013  04:23:00      -69.299      -38.911       -4.813       50.478       36.480       19.154     2547.981     1330.808      366.878        0.529        0.212       79.476        9.422        0.014      323.537      -13.389      862.344
12/08/2013  04:24:00      -74.227      -75.381        0.234       40.735       34.666       22.400     1659.328     1201.762      501.766        0.728        0.168      105.792       17.538        0.027      323.458      -13.517      862.359
12/08/2013  04:25:00      -99.372     -104.697      -10.922       32.097       31.621       22.580     1030.200      999.903      509.863        1.175        0.127      144.347       14.491        0.010      323.416      -13.582      862.369
12/08/2013  04:26:00     -119.883     -118.706      -15.251       21.637       28.191       17.642      468.160      794.754      311.235        1.513        0.079      168.710        9.128        0.003      323.386      -13.631      862.378
12/08/2013  04:27:00     -101.756      -93.068       -5.619       44.878       33.516       27.997     2014.026     1123.326      783.810        1.148        0.196      137.898       26.414        0.037      323.510      -13.432      862.384
12/08/2013  04:28:00     -116.441     -103.656       -6.443       30.343       31.606       17.665      920.706      998.959      312.035        1.329        0.112      155.895       17.819        0.013      323.427      -13.565      862.380
12/08/2013  04:29:00      -74.645      -63.495        7.132       37.690       36.030       18.587     1420.553     1298.151      345.475        0.636        0.153       97.997       18.453        0.035      323.518      -13.420      862.380
12/08/2013  04:30:00      -83.000      -50.701        5.367       42.206       31.458       19.835     1781.349      989.616      393.408        0.633        0.158       97.260       18.699        0.037      323.505      -13.441      862.371
12/08/2013  04:31:00      -57.909      -33.274        9.056       49.760       32.496       23.535     2476.065     1056.019      553.887        0.431        0.204       66.787       28.213        0.178      323.494      -13.456      862.368
12/08/2013  04:32:00      -75.835      -28.176       -2.098       27.186       20.038        9.692      739.068      401.531       93.926        0.389        0.062       80.900        3.013        0.001      323.380      -13.640      862.383
12/08/2013  04:33:00      -68.352      -51.491        0.698       40.801       30.266       16.285     1664.707      916.049      265.197        0.508        0.142       85.577       18.649        0.047      323.431      -13.558      862.398
12/08/2013  04:34:00      -98.727      -13.199      -11.527       11.318       22.628       14.841      128.098      512.018      220.264        0.546        0.043       99.605       10.160        0.010      323.253      -13.845      862.417
12/08/2013  04:35:00      -92.514        2.034       -0.308       29.550       21.556       16.329      873.224      464.644      266.646        0.508        0.080       92.536       14.969        0.026      323.247      -13.854      862.430
12/08/2013  04:36:00      -81.106       -8.046       -1.831       32.484       27.924       19.774     1055.189      779.777      390.996        0.444        0.111       81.504       16.454        0.041      323.169      -13.981      862.444
12/08/2013  04:37:00     -109.559        1.290       -3.318       42.209       24.536       20.023     1781.632      601.995      400.901        0.740        0.139      109.566       20.564        0.035      323.148      -14.014      862.457
12/08/2013  04:38:00     -103.325      -12.772        0.508       54.967       33.596       28.441     3021.369     1128.689      808.863        0.790        0.248      104.111       29.905        0.083      323.066      -14.145      862.452
12/08/2013  04:39:00     -144.493       -3.130      -10.190       36.847       30.521       28.223     1357.736      931.560      796.547        1.204        0.154      144.527       23.409        0.026      322.894      -14.420      862.443
12/08/2013  04:40:00     -163.337       16.886      -16.832       37.124       36.390       26.547     1378.176     1324.231      704.768        1.533        0.170      164.207       21.942        0.018      322.857      -14.479      862.433
12/08/2013  04:41:00      -90.644        3.752       -3.257       56.057       33.132       24.300     3142.387     1097.725      590.488        0.653        0.242       90.721       28.222        0.097      322.878      -14.445      862.427
12/08/2013  04:42:00      -93.801        2.027      -10.211       36.181       23.233       17.612     1309.037      539.793      310.166        0.553        0.108       93.822       12.360        0.017      322.816      -14.543      862.426
12/08/2013  04:43:00      -95.328        1.914      -10.756       26.454       29.821       17.475      699.835      889.301      305.369        0.555        0.095       95.347       15.002        0.025      322.816      -14.543      862.434
12/08/2013  04:44:00     -102.921       -4.241       -7.306       32.351       21.521       17.893     1046.585      463.171      320.166        0.625        0.091      103.009       17.732        0.030      322.848      -14.493      862.450
12/08/2013  04:45:00     -105.189       -8.056       -5.588       42.106       25.192       20.035     1772.882      634.657      401.390        0.698        0.140      105.497       23.305        0.049      322.841      -14.505      862.467
12/08/2013  04:46:00     -115.006       20.793       -3.075       26.422       19.541       18.361      698.096      381.839      337.126        0.754        0.071      116.870       15.550        0.018      322.824      -14.532      862.473
12/08/2013  04:47:00     -107.971       17.753       -2.173       40.290       21.530       16.292     1623.270      463.538      265.429        0.716        0.118      109.421       17.248        0.025      322.797      -14.574      862.483
12/08/2013  04:48:00      -61.952        3.675       -5.452       33.912       27.662       18.210     1150.024      765.214      331.591        0.306        0.112       62.061       18.402        0.088      322.824      -14.531      862.489
12/08/2013  04:49:00     -111.832        3.386      -15.414       20.436       22.021       15.743      417.649      484.908      247.843        0.695        0.058      111.884       13.649        0.015      322.748      -14.652      862.500
12/08/2013  04:50:00      -87.731       -9.130       -9.938       27.989       12.391       15.013      783.386      153.542      225.397        0.452        0.058       88.204       16.268        0.034      322.775      -14.610      862.493
12/08/2013  04:51:00      -88.991       -1.615       -8.462       20.717       10.552       11.876      429.205      111.346      141.048        0.434        0.034       89.006        8.973        0.010      322.797      -14.574      862.490
12/08/2013  04:52:00      -71.171       -4.302       -6.189       13.149        7.951        8.826      172.898       63.212       77.898        0.272        0.016       71.301        6.716        0.009      322.897      -14.417      862.500
12/08/2013  04:53:00      -71.092       -6.281       -7.378       23.016       11.000        9.907      529.744      120.999       98.147        0.295        0.037       71.369        9.175        0.017      322.940      -14.347      862.507
12/08/2013  04:54:00      -88.172       -2.649      -10.052        8.713       11.363        9.517       75.915      129.113       90.570        0.409        0.015       88.211        2.446        0.001      322.907      -14.400      862.516
12/08/2013  04:55:00      -80.629      -17.375       -5.750       25.259       14.403       13.124      638.042      207.434      172.241        0.393        0.051       82.480       14.787        0.032      322.861      -14.472      862.527
12/08/2013  04:56:00      -88.741      -29.319       -8.719       11.702       12.236        8.746      136.943      149.728       76.494        0.459        0.018       93.459        5.010        0.003      322.963      -14.309      862.529
12/08/2013  04:57:00      -72.095      -22.670       -5.692       15.729       16.738       12.264      247.388      280.176      150.411        0.321        0.034       75.575        9.114        0.015      322.975      -14.291      862.528
12/08/2013  04:58:00      -71.426      -26.821       -4.523       20.274       16.665       11.545      411.054      277.717      133.278        0.333        0.041       76.296        5.554        0.005      322.937      -14.350      862.534
12/08/2013  04:59:00      -93.406      -18.865      -11.614       20.914       14.756       11.662      437.379      217.743      136.003        0.500        0.040       95.292        4.291        0.002      322.932      -14.359      862.541
12/08/2013  05:00:00      -94.589      -17.645       -2.571       27.878       17.570       11.291      777.191      308.700      127.478        0.524        0.061       96.220       12.144        0.016      322.806      -14.562      862.550
12/08/2013  05:01:00      -37.355      -27.673        5.927       38.432       25.576       17.786     1477.007      654.131      316.339        0.232        0.122       46.488       17.304        0.139      322.865      -14.465      862.558
12/08/2013  05:02:00      -72.155      -43.790        3.197       49.726       29.438       17.673     2472.628      866.597      312.326        0.539        0.183       84.403        9.248        0.012      322.940      -14.347      862.569
12/08/2013  05:03:00      -82.229      -63.319       -1.025       56.663       34.278       19.635     3210.749     1174.995      385.514        0.777        0.239      103.782       16.830        0.026      323.012      -14.231      862.580
12/08/2013  05:04:00     -117.529      -88.025       -4.932       42.282       34.829       20.236     1787.741     1213.064      409.489        1.250        0.171      146.838       21.314        0.021      323.006      -14.239      862.585
12/08/2013  05:05:00      -86.378      -69.427        2.774       58.430       32.816       29.944     3414.065     1076.915      896.645        0.884        0.269      110.821       29.384        0.070      323.071      -14.138      862.594
12/08/2013  05:06:00      -90.543      -63.813       -2.688       42.395       39.829       26.214     1797.339     1586.353      687.194        0.817        0.204      110.771       19.290        0.030      323.025      -14.210      862.599
12/08/2013  05:07:00      -94.430      -65.639       -4.876       32.672       29.073       20.512     1067.469      845.236      420.756        0.779        0.117      115.002       14.503        0.016      323.076      -14.128      862.613
12/08/2013  05:08:00      -68.169      -17.353        2.460       30.308       28.948       20.122      918.592      837.964      404.904        0.356        0.108       70.343       19.067        0.073      322.967      -14.303      862.626
12/08/2013  05:09:00      -85.886      -15.435        2.827       33.414       24.219       13.783     1116.515      586.579      189.964        0.476        0.095       87.262       14.829        0.029      322.873      -14.453      862.642
12/08/2013  05:10:00      -61.150      -38.414        2.022       27.856       24.514       15.864      775.940      600.927      251.670        0.342        0.081       72.215       12.232        0.029      322.978      -14.285      862.660
12/08/2013  05:11:00      -31.251      -19.757       11.568       43.286       24.626       21.132     1873.681      606.457      446.550        0.221        0.146       36.973       19.073        0.266      322.956      -14.320      862.680
12/08/2013  05:12:00      -66.908      -66.251        3.966       37.105       29.765       20.840     1376.790      885.981      434.290        0.579        0.135       94.159       19.155        0.041      322.897      -14.416      862.682
12/08/2013  05:13:00      -73.974      -76.238       -2.823       45.187       31.965       25.636     2041.892     1021.762      657.187        0.751        0.186      106.228       25.926        0.060      322.994      -14.259      862.671
12/08/2013  05:14:00      -84.664      -86.451       -0.339       46.198       37.111       20.163     2134.250     1377.234      406.567        0.928        0.196      121.004       19.425        0.026      323.036      -14.193      862.655
12/08/2013  05:15:00      -70.153      -46.330       12.546       55.085       33.581       25.329     3034.353     1127.662      641.536        0.601        0.240       84.071       28.478        0.115      323.103      -14.084      862.630
12/08/2013  05:16:00      -50.520      -40.890       12.375       54.854       34.865       28.094     3008.942     1215.545      789.253        0.469        0.251       64.994       15.910        0.060      323.064      -14.148      862.617
12/08/2013  05:17:00      -40.964      -33.781       10.934       51.127       30.180       27.610     2614.006      910.828      762.310        0.361        0.214       53.096       22.989        0.187      323.051      -14.168      862.623
12/08/2013  05:18:00      -62.554      -43.057        2.238       52.845       29.595       24.189     2792.558      875.889      585.102        0.501        0.213       75.941       24.769        0.106      323.033      -14.197      862.619
12/08/2013  05:19:00      -76.258      -52.074        0.098       32.113       24.121       18.919     1031.249      581.837      357.913        0.525        0.099       92.342       10.749        0.014      323.022      -14.214      862.629
12/08/2013  05:20:00      -50.099      -44.620        0.334       40.902       30.308       11.921     1672.981      918.576      142.119        0.362        0.137       67.088       14.200        0.045      323.032      -14.199      862.640
12/08/2013  05:21:00      -80.061        5.098       -1.842       28.717       19.843       18.162      824.690      393.737      329.841        0.399        0.077       80.224       13.781        0.030      322.800      -14.570      862.652
12/08/2013  05:22:00      -70.202        1.378        2.848       35.240       20.608       22.023     1241.892      424.706      484.997        0.354        0.108       70.216       23.798        0.115      322.795      -14.579      862.662
12/08/2013  05:23:00      -70.626       -3.702       -1.075       41.023       26.059       18.868     1682.907      679.069      355.995        0.386        0.136       70.723       19.254        0.074      322.769      -14.620      862.680
12/08/2013  05:24:00      -76.743        6.550        2.137       39.392       21.706       19.844     1551.728      471.138      393.766        0.418        0.121       77.022       20.036        0.068      322.723      -14.693      862.693
12/08/2013  05:25:00      -92.900       -6.282      -10.816       25.993       21.891       16.814      675.648      479.233      282.717        0.511        0.072       93.112       15.805        0.029      322.593      -14.901      862.691
12/08/2013  05:26:00     -100.812       11.663       -8.926       39.581       27.028       19.486     1566.678      730.518      379.693        0.653        0.134      101.484       17.780        0.031      322.538      -14.990      862.694
12/08/2013  05:27:00     -140.223       -3.196      -13.096       36.211       25.627       22.825     1311.215      656.742      520.986        1.117        0.124      140.260       21.467        0.023      322.582      -14.920      862.694
12/08/2013  05:28:00     -129.557      -14.000       -2.723       39.525       28.422       21.691     1562.262      807.787      470.492        0.991        0.142      130.312       21.836        0.028      322.552      -14.967      862.703
12/08/2013  05:29:00      -73.118      -11.598       -0.786       32.474       31.999       19.209     1054.582     1023.924      369.003        0.396        0.122       74.032       16.702        0.051      322.585      -14.914      862.723
12/08/2013  05:30:00      -78.576      -12.449       -6.581       42.702       20.512       18.773     1823.451      420.742      352.409        0.448        0.130       79.556       19.622        0.061      322.587      -14.911      862.753
12/08/2013  05:31:00      -82.904        3.900       -2.665       22.241       17.477       14.521      494.659      305.455      210.861        0.395        0.051       82.995       11.747        0.020      322.566      -14.945      862.777
12/08/2013  05:32:00     -100.128        3.920       -4.644       32.712       20.498       19.109     1070.098      420.187      365.155        0.596        0.093      100.204       21.790        0.047      322.568      -14.942      862.796
12/08/2013  05:33:00     -103.429      -16.610      -11.097       15.796       18.927       12.994      249.523      358.239      168.832        0.594        0.039      104.754        7.946        0.006      322.564      -14.948      862.812
12/08/2013  05:34:00     -103.524       -4.926       -8.974       23.105       22.293       15.922      533.843      496.994      253.504        0.605        0.064      103.641       12.193        0.014      322.642      -14.823      862.834
12/08/2013  05:35:00     -109.158      -11.494       -9.530       29.550       23.784       18.669      873.187      565.694      348.524        0.696        0.089      109.761       17.527        0.026      322.531      -15.001      862.855
12/08/2013  05:36:00      -51.788       -0.236       -2.169       34.717       23.223       16.548     1205.255      539.319      273.827        0.235        0.101       51.789       12.718        0.060      322.495      -15.059      862.867
12/08/2013  05:37:00      -75.242       -2.011      -15.082       21.629       20.235       13.902      467.813      409.450      193.274        0.348        0.054       75.269       10.570        0.020      322.504      -15.044      862.880
12/08/2013  05:38:00      -73.031      -21.743       -9.224       18.509       16.555       12.130      342.594      274.070      147.143        0.333        0.038       76.199        9.257        0.015      322.476      -15.090      862.890
12/08/2013  05:39:00     -101.659       -6.844      -14.188       20.420       12.432       13.646      416.958      154.565      186.215        0.567        0.038      101.890        3.506        0.001      322.367      -15.263      862.901
12/08/2013  05:40:00      -98.023      -10.995      -16.299       20.879       14.091       13.638      435.919      198.544      185.999        0.541        0.041       98.638        6.249        0.004      322.266      -15.424      862.918
12/08/2013  05:41:00      -96.568      -13.612      -11.737       17.574       16.202       14.625      308.843      262.507      213.903        0.522        0.039       97.522        7.622        0.006      322.298      -15.373      862.927
12/08/2013  05:42:00      -76.491      -15.303       -9.839       15.766       11.946       10.383      248.565      142.707      107.797        0.334        0.025       78.007        4.218        0.003      322.313      -15.348      862.931
12/08/2013  05:43:00      -35.764      -21.954       -7.798       16.946       11.868        7.725      287.172      140.853       59.672        0.115        0.024       41.965        4.207        0.010      322.499      -15.051      862.941
12/08/2013  05:44:00      -28.227      -28.597       -1.424       19.010       14.198        9.106      361.373      201.571       82.914        0.113        0.032       40.182        7.110        0.031      322.506      -15.041      862.957
12/08/2013  05:45:00      -61.691      -16.484       -4.083       14.264       15.233       11.008      203.454      232.053      121.186        0.233        0.028       63.855        7.586        0.014      322.335      -15.315      862.987
12/08/2013  05:46:00      -72.561      -16.031       -0.969       11.259       17.772        9.663      126.768      315.844       93.380        0.303        0.027       74.311        4.530        0.004      322.347      -15.295      863.001
12/08/2013  05:47:00      -89.122      -15.461      -13.512       15.728       15.235       11.109      247.358      232.108      123.401        0.448        0.030       90.453        9.266        0.010      322.334      -15.317      863.014
12/08/2013  05:48:00      -98.804      -23.862      -11.838       19.463       14.928       13.526      378.810      222.839      182.950        0.563        0.039      101.645        8.865        0.008      322.325      -15.331      863.036
12/08/2013  05:49:00     -100.865      -13.249      -11.518       20.840       22.299       16.685      434.306      497.264      278.380        0.585        0.060      101.731       13.063        0.016      322.293      -15.382      863.069
12/08/2013  05:50:00      -93.209      -19.839       -8.908       17.443       16.234       13.404      304.245      263.545      179.657        0.495        0.037       95.296       10.333        0.012      322.248      -15.454      863.102
12/08/2013  05:51:00     -100.323       -9.915      -16.016       17.207       14.190       12.588      296.074      201.366      158.447        0.554        0.033      100.812        7.959        0.006      322.202      -15.527      863.120
12/08/2013  05:52:00     -121.236      -22.875      -16.783       23.461       20.902       13.485      550.400      436.886      181.852        0.834        0.058      123.375        8.385        0.005      322.166      -15.584      863.133
12/08/2013  05:53:00     -119.338      -37.419      -16.221       18.815       21.929       13.331      354.011      480.900      177.704        0.846        0.051      125.067        3.711        0.001      322.139      -15.628      863.160
12/08/2013  05:54:00     -107.238      -56.971       -4.946       25.531       31.603       17.292      651.834      998.764      299.002        0.836        0.097      121.432        7.388        0.004      322.210      -15.514      863.191
12/08/2013  05:55:00     -115.874      -45.652      -13.735       22.894       23.795       17.412      524.146      566.218      303.177        0.855        0.070      124.542       11.827        0.009      322.232      -15.479      863.213
12/08/2013  05:56:00     -128.364      -26.780       -7.014       35.524       35.543       21.947     1261.928     1263.277      481.663        1.012        0.150      131.127       19.256        0.022      322.191      -15.545      863.244
12/08/2013  05:57:00     -139.841      -25.158      -10.069       33.763       36.742       23.199     1139.943     1349.972      538.204        1.166        0.151      142.086       18.949        0.018      322.215      -15.506      863.267
12/08/2013  05:58:00     -104.622      -30.260       -6.399       47.982       34.587       24.068     2302.291     1196.250      579.281        0.799        0.204      108.911       25.360        0.054      322.283      -15.397      863.287
12/08/2013  05:59:00     -127.980       -2.168       -1.104       53.455       28.743       27.051     2857.446      826.164      731.755        1.040        0.221      127.998       27.575        0.046      322.347      -15.297      863.297
12/08/2013  06:00:00     -134.488      -18.637      -11.202       50.204       24.039       20.424     2520.421      577.883      417.148        1.104        0.176      135.773       20.998        0.024      322.378      -15.247      863.303
12/08/2013  06:01:00     -104.965       -8.436       -0.966       47.240       30.288       24.249     2231.635      917.359      587.991        0.741        0.187      105.303       21.199        0.041      322.327      -15.327      863.307
12/08/2013  06:02:00     -110.246       -6.672       -3.211       55.033       38.871       26.776     3028.653     1510.916      716.942        0.873        0.263      110.447       30.198        0.075      322.371      -15.258      863.319
12/08/2013  06:03:00     -104.236       20.907      -11.166       46.184       36.909       22.847     2132.998     1362.272      521.980        0.772        0.201      106.312       21.697        0.042      322.356      -15.282      863.316
12/08/2013  06:04:00     -111.713       16.167      -13.224       40.312       27.683       21.430     1625.017      766.375      459.236        0.788        0.143      112.877       17.979        0.025      322.444      -15.141      863.304
12/08/2013  06:05:00      -87.569       29.198      -14.558       37.512       30.757       22.452     1407.144      945.999      504.111        0.579        0.143       92.308       16.203        0.031      322.526      -15.008      863.304
12/08/2013  06:06:00      -76.726       13.887       -8.692       33.562       33.325       22.202     1126.378     1110.569      492.925        0.444        0.136       77.973       20.524        0.069      322.673      -14.774      863.308
12/08/2013  06:07:00      -66.517        2.873       -3.571       24.828       23.122       18.943      616.422      534.623      358.832        0.298        0.075       66.579       13.353        0.040      322.576      -14.929      863.327
12/08/2013  06:08:00     -107.108      -12.351       -6.252       27.579       19.103       12.845      760.625      364.935      164.996        0.648        0.065      107.818       11.376        0.011      322.594      -14.899      863.350
12/08/2013  06:09:00      -86.316      -12.288       -4.712       22.687       28.423       16.975      514.705      807.847      288.146        0.462        0.081       87.186       14.798        0.029      322.513      -15.030      863.388
12/08/2013  06:10:00     -106.179        4.351      -11.094       31.865       18.423       14.411     1015.384      339.422      207.673        0.649        0.078      106.268       13.630        0.016      322.523      -15.014      863.426
12/08/2013  06:11:00     -110.376      -23.356      -11.953       22.645       20.745       14.559      512.778      430.347      211.965        0.701        0.058      112.820       10.640        0.009      322.485      -15.074      863.458
12/08/2013  06:12:00      -82.762      -14.274       -3.924       41.223       23.925       18.897     1699.368      572.389      357.107        0.485        0.131       83.983       22.565        0.072      322.470      -15.098      863.480
12/08/2013  06:13:00     -142.639       -8.510      -14.937       29.104       31.298       21.429      847.020      979.544      459.196        1.146        0.114      142.893       14.731        0.011      322.424      -15.172      863.506
12/08/2013  06:14:00     -114.698      -30.899       -1.503       38.996       28.478       20.122     1520.665      811.003      404.879        0.842        0.137      118.787       20.262        0.029      322.414      -15.189      863.540
12/08/2013  06:15:00      -93.233      -35.991        3.379       32.392       35.859       21.255     1049.256     1285.894      451.755        0.639        0.139       99.939       18.932        0.036      322.520      -15.019      863.557
12/08/2013  06:16:00     -118.995       -1.477       -4.271       33.569       20.444       21.541     1126.901      417.941      463.998        0.809        0.100      119.004       19.917        0.028      322.413      -15.190      863.576
12/08/2013  06:17:00     -100.685      -17.089       -7.472       51.703       27.243       21.730     2673.174      742.156      472.189        0.719        0.194      102.125       26.415        0.067      322.429      -15.165      863.591
12/08/2013  06:18:00      -86.458       -2.656      -10.682       43.262       36.730       24.510     1871.590     1349.075      600.723        0.571        0.191       86.498       20.200        0.055      322.324      -15.332      863.588
12/08/2013  06:19:00     -116.152       -6.711       -4.918       41.260       27.226       22.572     1702.402      741.261      509.499        0.826        0.148      116.346       25.161        0.047      322.272      -15.415      863.588
12/08/2013  06:20:00     -115.204      -19.752       -5.421       36.863       32.430       22.957     1358.894     1051.681      527.007        0.831        0.147      116.885       19.778        0.029      322.234      -15.476      863.580
12/08/2013  06:21:00     -110.593       -9.956      -12.865       28.987       27.730       15.897      840.271      768.929      252.727        0.718        0.093      111.041       14.752        0.018      322.251      -15.448      863.574
12/08/2013  06:22:00     -123.106        2.759      -16.050       24.676       24.683       16.548      608.904      609.230      273.822        0.846        0.075      123.137       10.575        0.007      322.215      -15.506      863.570
12/08/2013  06:23:00     -107.081      -12.094       -3.641       42.476       36.351       24.764     1804.219     1321.382      613.242        0.768        0.187      107.762       23.249        0.047      322.227      -15.487      863.578
12/08/2013  06:24:00     -120.426      -14.040       -1.581       56.092       43.042       27.512     3146.349     1852.592      756.920        1.023        0.288      121.242       30.450        0.063      322.139      -15.628      863.588
12/08/2013  06:25:00     -154.056        4.943      -14.834       45.183       39.382       21.668     2041.459     1550.911      469.499        1.402        0.203      154.135       12.419        0.006      322.089      -15.707      863.610
12/08/2013  06:26:00     -164.974       23.411      -18.736       43.465       38.902       22.887     1889.179     1513.359      523.819        1.602        0.196      166.626       19.864        0.014      322.064      -15.749      863.623
12/08/2013  06:27:00     -154.106       -1.441      -14.973       32.474       30.563       18.823     1054.547      934.068      354.304        1.316        0.117      154.113       15.279        0.010      322.151      -15.608      863.626
12/08/2013  06:28:00      -97.015      -33.248       -3.176       59.833       42.217       25.561     3579.966     1782.256      653.340        0.827        0.301      102.555       27.236        0.071      322.241      -15.465      863.613
12/08/2013  06:29:00      -96.680      -21.349       -3.217       55.142       43.352       26.068     3040.670     1879.417      679.552        0.771        0.280       99.009       21.484        0.047      322.190      -15.546      863.611
12/08/2013  06:30:00     -133.012      -25.704      -13.861       47.493       49.743       24.225     2255.588     2474.366      586.847        1.193        0.266      135.472       22.003        0.026      322.187      -15.551      863.618
12/08/2013  06:31:00     -165.089       -1.063      -16.700       58.245       45.432       29.200     3392.481     2064.029      852.616        1.692        0.315      165.093       24.859        0.023      322.160      -15.596      863.642
12/08/2013  06:32:00     -205.289       31.451      -13.275       40.695       33.971       26.318     1656.098     1153.996      692.646        2.341        0.175      207.684       24.232        0.014      322.123      -15.655      863.655
12/08/2013  06:33:00     -220.677       18.480      -23.370       22.982       28.519       17.219      528.174      813.354      296.504        2.561        0.082      221.449       13.333        0.004      322.176      -15.570      863.646
12/08/2013  06:34:00     -177.048      -10.647      -22.912       23.915       33.489       19.071      571.948     1121.523      363.710        1.702        0.103      177.367       12.394        0.005      322.265      -15.425      863.637
12/08/2013  06:35:00     -160.742      -21.543      -22.065       43.237       41.121       17.472     1869.405     1690.967      305.279        1.533        0.193      162.180       16.438        0.010      322.295      -15.380      863.628
12/08/2013  06:36:00     -118.022      -25.810      -11.269       29.013       43.364       24.117      841.735     1880.454      581.625        0.901        0.165      120.811       18.237        0.023      322.418      -15.184      863.630
12/08/2013  06:37:00     -132.191       -5.338      -19.609       36.307       36.666       20.456     1318.170     1344.368      418.450        1.048        0.154      132.299       17.592        0.018      322.430      -15.162      863.639
12/08/2013  06:38:00     -156.714      -15.777      -18.738       29.117       27.597       16.287      847.812      761.613      265.269        1.352        0.094      157.506       12.005        0.006      322.322      -15.336      863.653
12/08/2013  06:39:00     -156.024        9.699      -15.268       27.842       31.577       18.901      775.157      997.118      357.264        1.340        0.106      156.325       15.764        0.010      322.330      -15.322      863.665
12/08/2013  06:40:00     -120.470      -37.607      -20.655       46.327       26.318       18.395     2146.175      692.624      338.368        0.976        0.159      126.203       16.182        0.016      322.433      -15.158      863.688
12/08/2013  06:41:00     -112.570       19.721      -15.092       57.238       34.905       28.395     3276.215     1218.388      806.296        0.929        0.265      114.284       25.013        0.048      322.397      -15.215      863.732
12/08/2013  06:42:00     -166.851       11.669      -13.143       34.321       30.850       21.112     1177.925      951.699      445.720        1.536        0.129      167.259       16.022        0.009      322.224      -15.491      863.745
12/08/2013  06:43:00     -151.763        0.108       -5.671       25.511       31.595       20.892      650.817      998.261      436.458        1.257        0.104      151.763       13.951        0.008      322.226      -15.488      863.726
12/08/2013  06:44:00     -134.519       -8.494      -15.464       28.721       36.466       23.520      824.875     1329.733      553.203        1.056        0.135      134.787       10.002        0.006      322.355      -15.282      863.702
12/08/2013  06:45:00      -83.844      -19.984        4.932       49.258       34.312       28.019     2426.374     1177.343      785.085        0.592        0.219       86.193       29.941        0.121      322.341      -15.305      863.692
12/08/2013  06:46:00     -120.464      -19.469       -3.181       37.690       42.025       17.925     1420.515     1766.096      321.296        0.920        0.175      122.027       20.363        0.028      322.400      -15.211      863.697
12/08/2013  06:47:00     -144.835       -7.194      -17.237       32.204       18.127       16.847     1037.084      328.596      283.817        1.149        0.082      145.014       15.735        0.012      322.397      -15.217      863.715
12/08/2013  06:48:00     -145.595      -19.963      -14.507       37.025       22.991       18.848     1370.837      528.582      355.254        1.203        0.113      146.957       17.539        0.014      322.422      -15.177      863.741
12/08/2013  06:49:00     -114.899      -13.793       -4.690       37.618       28.201       20.580     1415.135      795.294      423.522        0.802        0.132      115.724       19.680        0.029      322.398      -15.214      863.757
12/08/2013  06:50:00     -144.155      -27.495       -6.698       21.262       21.507       17.110      452.083      462.548      292.752        1.139        0.060      146.754       12.022        0.007      322.377      -15.248      863.768
12/08/2013  06:51:00     -139.698      -40.112      -13.698       23.776       20.857       14.870      565.308      435.023      221.117        1.127        0.061      145.343       14.803        0.010      322.385      -15.234      863.794
12/08/2013  06:52:00     -150.220      -51.859      -12.643       29.189       26.222       19.806      852.004      687.602      392.273        1.367        0.097      158.919       18.414        0.013      322.365      -15.266      863.833
12/08/2013  06:53:00     -145.603      -51.491      -11.393       14.371       19.652       11.618      206.522      386.219      134.986        1.235        0.036      154.439        4.707        0.001      322.310      -15.355      863.871
12/08/2013  06:54:00     -128.081      -50.733       -9.074       24.749       34.844       18.714      612.512     1214.134      350.204        1.062        0.109      137.763       14.290        0.011      322.330      -15.324      863.908
12/08/2013  06:55:00     -110.595      -15.084       -0.799       50.957       30.261       25.818     2596.632      915.756      666.573        0.832        0.209      111.619       29.161        0.068      322.272      -15.416      863.949
12/08/2013  06:56:00     -151.479       -4.812      -15.328       35.955       25.147       24.279     1292.765      632.351      589.483        1.286        0.126      151.555       23.410        0.024      322.170      -15.578      863.983
12/08/2013  06:57:00     -125.297       -0.751      -12.472       44.485       27.971       25.255     1978.885      782.364      637.821        0.963        0.170      125.300       27.769        0.049      322.123      -15.653      864.003
12/08/2013  06:58:00     -128.513       -3.148      -14.028       31.054       42.314       27.443      964.325     1790.488      753.096        1.011        0.175      128.552       18.622        0.021      322.070      -15.737      863.998
12/08/2013  06:59:00     -110.186       -3.577       -8.753       39.714       33.827       22.712     1577.177     1144.281      515.853        0.773        0.162      110.244       22.728        0.043      322.045      -15.778      863.998
12/08/2013  07:00:00      -94.740      -26.316       -8.171       39.253       33.350       15.679     1540.804     1112.207      245.838        0.632        0.145       98.327       13.579        0.019      322.212      -15.512      863.993
12/08/2013  07:01:00      -19.725      -18.964        8.090       38.138       19.796       25.950     1454.520      391.866      673.419        0.167        0.126       27.363       20.740        0.574      322.262      -15.430      864.000
12/08/2013  07:02:00      -16.726      -36.460       11.103       55.097       33.673       29.268     3035.719     1133.858      856.622        0.338        0.251       40.113       35.371        0.778      322.241      -15.465      864.023
12/08/2013  07:03:00      -74.475      -40.437        3.933       61.866       27.938       23.864     3827.403      780.516      569.493        0.619        0.259       84.745       31.856        0.141      322.218      -15.501      864.050
12/08/2013  07:04:00     -109.969      -37.382       -7.658       28.974       22.886       19.018      839.478      523.762      361.674        0.764        0.086      116.149       13.466        0.013      322.222      -15.496      864.070
12/08/2013  07:05:00     -126.575      -20.810      -14.988       29.576       22.036       13.507      874.723      485.573      182.445        0.911        0.077      128.275       11.177        0.008      322.189      -15.547      864.070
12/08/2013  07:06:00      -82.708      -46.615      -10.338       25.766       22.662       16.238      663.899      513.558      263.686        0.528        0.072       94.940        7.907        0.007      322.235      -15.474      864.056
12/08/2013  07:07:00      -70.770      -23.047        5.307       14.754       20.965       16.671      217.669      439.529      277.915        0.325        0.047       74.428        9.912        0.018      322.249      -15.452      864.030
12/08/2013  07:08:00     -107.629      -16.941       -9.234       21.827       20.919       11.646      476.435      437.605      135.621        0.650        0.052      108.954        7.267        0.004      322.256      -15.440      864.007
12/08/2013  07:09:00     -112.985      -23.680      -12.398       18.488       16.650       12.892      341.795      277.208      166.209        0.713        0.039      115.440       11.906        0.011      322.297      -15.376      864.000
12/08/2013  07:10:00     -120.295      -10.866      -10.361       18.186       14.416       11.848      330.742      207.807      140.366        0.769        0.034      120.784        5.645        0.002      322.360      -15.274      863.999
12/08/2013  07:11:00     -117.534      -13.102       -7.083       25.873       15.932       11.159      669.419      253.837      124.533        0.754        0.052      118.262       12.062        0.010      322.384      -15.237      863.992
12/08/2013  07:12:00      -76.343      -18.644       -0.224       30.421       24.798       19.505      925.436      614.925      380.449        0.405        0.096       78.587       18.396        0.055      322.355      -15.283      863.976
12/08/2013  07:13:00      -83.037      -22.644        3.027       36.241       24.757       18.945     1313.437      612.923      358.904        0.485        0.114       86.069       21.401        0.062      322.415      -15.186      863.971
12/08/2013  07:14:00     -107.309      -41.889        2.728       28.219       23.674       15.133      796.285      560.444      229.007        0.743        0.079      115.195       14.276        0.015      322.402      -15.207      863.965
12/08/2013  07:15:00     -105.235      -52.402        1.400       40.171       37.510       17.891     1613.684     1407.016      320.075        0.858        0.167      117.560       16.432        0.020      322.413      -15.191      863.964
12/08/2013  07:16:00     -132.376      -34.653       -0.190       34.957       36.172       21.400     1221.986     1308.395      457.977        1.086        0.149      136.836       20.064        0.022      322.304      -15.363      863.978
12/08/2013  07:17:00      -99.081      -16.800       -0.442       50.546       36.784       23.445     2554.899     1353.045      549.674        0.728        0.223      100.495       24.445        0.059      322.308      -15.357      864.001
12/08/2013  07:18:00     -119.525      -15.338       -3.138       35.845       34.104       23.470     1284.882     1163.109      550.854        0.876        0.150      120.505       20.444        0.029      322.224      -15.492      864.025
12/08/2013  07:19:00     -103.772      -51.749       -2.496       45.672       29.648       23.702     2085.938      878.978      561.801        0.849        0.176      115.960       22.383        0.037      322.358      -15.278      864.038
12/08/2013  07:20:00      -46.851      -63.169        2.461       48.847       47.423       28.545     2386.006     2248.897      814.812        0.582        0.272       78.647       26.510        0.114      322.437      -15.151      864.047
12/08/2013  07:21:00      -84.743      -63.988        6.692       50.569       40.307       22.594     2557.191     1624.627      510.496        0.801        0.235      106.187       25.675        0.058      322.442      -15.144      864.046
12/08/2013  07:22:00      -95.132      -92.397        8.489       53.162       48.490       31.392     2826.148     2351.325      985.465        1.191        0.308      132.617       25.970        0.038      322.404      -15.205      864.053
12/08/2013  07:23:00     -155.477     -122.647      -13.555       46.034       33.578       30.065     2119.165     1127.472      903.878        2.177        0.208      198.028       17.506        0.008      322.291      -15.386      864.058
12/08/2013  07:24:00     -152.578      -82.706       -9.171       53.893       43.125       33.552     2904.441     1859.788     1125.707        1.805        0.294      173.552       35.068        0.041      322.311      -15.355      864.052
12/08/2013  07:25:00      -70.439      -67.374        6.037       70.185       44.033       36.920     4925.895     1938.894     1363.080        0.888        0.411       97.473       31.031        0.101      322.337      -15.312      864.049
12/08/2013  07:26:00     -132.658      -80.350       -6.599       38.773       38.025       29.451     1503.311     1445.890      867.354        1.396        0.191      155.094       12.874        0.007      322.347      -15.296      864.055
12/08/2013  07:27:00     -108.203      -97.469      -16.406       52.070       39.533       27.704     2711.262     1562.879      767.491        1.326        0.252      145.630       24.054        0.027      322.378      -15.246      864.084
12/08/2013  07:28:00     -125.795      -97.824      -12.177       30.150       28.924       20.277      908.998      836.604      411.173        1.385        0.108      159.354       12.627        0.006      322.362      -15.271      864.116
12/08/2013  07:29:00     -113.657      -48.867        2.591       32.102       35.374       18.168     1030.566     1251.306      330.091        0.896        0.131      123.717       12.969        0.011      322.509      -15.036      864.158
12/08/2013  07:30:00      -99.548      -40.997        4.863       37.898       31.254       16.363     1436.274      976.830      267.757        0.715        0.134      107.660       17.087        0.025      322.472      -15.097      864.192
12/08/2013  07:31:00      -79.305      -47.727       -1.459       34.623       30.788       18.755     1198.757      947.912      351.738        0.553        0.125       92.559       12.943        0.020      322.494      -15.060      864.225
12/08/2013  07:32:00      -82.351      -36.159       -2.857       42.412       24.388       17.488     1798.742      594.756      305.815        0.540        0.135       89.940       18.112        0.041      322.548      -14.973      864.247
12/08/2013  07:33:00      -86.116        1.290       -1.955       22.364       19.942       15.964      500.164      397.670      254.842        0.429        0.058       86.125       10.913        0.016      322.449      -15.132      864.259
12/08/2013  07:34:00      -95.667      -11.657       -6.193       23.414       18.904       14.623      548.201      357.379      213.827        0.522        0.056       96.374       14.089        0.021      322.412      -15.192      864.262
12/08/2013  07:35:00      -90.098       -0.474       -4.475       25.641       20.028       17.212      657.480      401.121      296.249        0.475        0.068       90.099       15.303        0.029      322.356      -15.281      864.267
12/08/2013  07:36:00      -68.823       -9.676       -4.944       30.431       23.604       18.203      926.049      557.155      331.355        0.333        0.091       69.500       16.220        0.054      322.360      -15.276      864.272
12/08/2013  07:37:00      -82.049       14.759       -6.881       32.861       25.874       15.068     1079.858      669.448      227.044        0.449        0.099       83.366       11.733        0.020      322.403      -15.207      864.286
12/08/2013  07:38:00      -63.893       17.419       -9.254       22.973       22.102       17.133      527.773      488.513      293.551        0.289        0.065       66.225       12.581        0.036      322.387      -15.233      864.317
12/08/2013  07:39:00      -95.998        6.340      -11.307       39.723       21.496       16.789     1577.951      462.070      281.861        0.585        0.116       96.207       14.106        0.021      322.451      -15.130      864.333
12/08/2013  07:40:00      -85.259      -21.069       -5.056       24.855       27.444       17.246      617.754      753.196      297.437        0.470        0.083       87.824       14.982        0.029      322.424      -15.172      864.355
12/08/2013  07:41:00      -70.625       -9.114       -4.699       20.407       22.472       13.091      416.458      504.997      171.378        0.309        0.055       71.211       11.010        0.024      322.429      -15.164      864.363
12/08/2013  07:42:00      -78.229       -4.023       -0.181       27.602       27.616       16.989      761.870      762.651      288.641        0.397        0.091       78.332       16.701        0.045      322.478      -15.086      864.383
12/08/2013  07:43:00      -82.323       -6.709      -11.642       27.166       19.420       14.903      737.995      377.149      222.111        0.415        0.067       82.596       12.932        0.025      322.510      -15.033      864.416
12/08/2013  07:44:00      -79.790       -0.662      -10.297       27.712       24.436       14.583      767.959      597.121      212.652        0.402        0.079       79.792       11.346        0.020      322.486      -15.073      864.448
12/08/2013  07:45:00      -62.869       -3.689      -16.746       19.808       15.266       12.312      392.349      233.061      151.586        0.251        0.039       62.977        6.731        0.011      322.497      -15.056      864.457
12/08/2013  07:46:00      -51.568       -1.485      -16.100       12.198       11.570       12.837      148.796      133.870      164.787        0.168        0.022       51.589        7.142        0.019      322.579      -14.923      864.457
12/08/2013  07:47:00      -48.716      -11.481       -8.251       12.825       14.473       11.229      164.491      209.458      126.082        0.154        0.025       50.050        7.365        0.022      322.545      -14.979      864.463
12/08/2013  07:48:00      -45.319      -12.983       -7.980       15.560       14.573       10.024      242.110      212.376      100.473        0.142        0.028       47.142        4.869        0.011      322.536      -14.993      864.476
12/08/2013  07:49:00      -30.858       -5.241       -6.408       13.467        7.646        7.908      181.372       58.456       62.532        0.066        0.015       31.300        5.465        0.030      322.576      -14.930      864.491
12/08/2013  07:50:00      -32.809      -16.203       -6.102       16.102       20.230       16.097      259.270      409.244      259.099        0.115        0.046       36.592       10.713        0.086      322.717      -14.702      864.507
12/08/2013  07:51:00      -25.473       42.804       -2.728       24.509       22.127       20.472      600.699      489.613      419.118        0.200        0.075       49.810       12.852        0.067      322.994      -14.259      864.534
12/08/2013  07:52:00      -35.833       11.465       -2.139       14.162       19.026       12.426      200.570      361.980      154.417        0.107        0.036       37.622        8.783        0.055      322.892      -14.424      864.549
12/08/2013  07:53:00      -29.436       32.226       -3.633       16.585       31.857       13.237      275.057     1014.883      175.212        0.169        0.073       43.646       15.141        0.120      322.971      -14.297      864.555
12/08/2013  07:54:00      -14.954        6.575        5.973        8.146       10.255       11.569       66.360      105.158      133.848        0.030        0.015       16.335        6.583        0.162      323.039      -14.189      864.555
12/08/2013  07:55:00      -19.210       -0.101       -1.401        7.473        8.326        5.687       55.840       69.321       32.339        0.026        0.008       19.211        3.960        0.042      322.870      -14.459      864.575
12/08/2013  07:56:00      -22.205        4.309       -6.619       11.587        7.021        7.700      134.262       49.293       59.293        0.040        0.012       22.619        5.363        0.056      322.925      -14.371      864.598
12/08/2013  07:57:00      -23.173       -4.011        4.129       17.057       11.724       11.072      290.926      137.448      122.596        0.056        0.028       23.517       11.242        0.229      323.195      -13.938      864.643
12/08/2013  07:58:00      -11.040       -4.665        0.346       12.059       13.537        7.212      145.428      183.237       52.009        0.026        0.019       11.986        5.999        0.251      323.153      -14.005      864.677
12/08/2013  07:59:00       18.803        6.136       13.684       18.182        9.622       13.368      330.594       92.589      178.706        0.059        0.030       19.779        9.968        0.254      323.453      -13.524      864.712
12/08/2013  08:00:00       34.574       22.598       -1.161       30.276       21.187       17.022      916.637      448.876      289.738        0.168        0.083       41.304       15.997        0.150      323.372      -13.654      864.741
12/08/2013  08:01:00       -2.140       22.418       21.936       15.578       12.735       12.930      242.667      162.168      167.183        0.078        0.029       22.520        9.494        0.178      323.589      -13.305      864.768
12/08/2013  08:02:00       17.346       18.447       12.909       19.016       12.592       16.411      361.596      158.558      269.321        0.080        0.039       25.322       13.419        0.281      323.587      -13.309      864.814
12/08/2013  08:03:00       11.023       23.479        9.061       20.125       10.519       12.040      405.005      110.655      144.952        0.071        0.033       25.938        7.889        0.093      323.437      -13.548      864.839
12/08/2013  08:04:00      -23.531       12.849       21.174       11.664        8.387       13.138      136.054       70.350      172.603        0.077        0.019       26.810        5.749        0.046      323.418      -13.581      864.851
12/08/2013  08:05:00      -11.910        4.694       10.487       14.311       14.431       12.017      204.807      208.249      144.415        0.042        0.028       12.802       11.329        0.783      323.526      -13.406      864.859
12/08/2013  08:06:00       11.980        9.822        4.996       22.524       13.587       12.090      507.329      184.604      146.158        0.055        0.042       15.492       12.410        0.642      323.548      -13.372      864.875
12/08/2013  08:07:00        5.467        1.353       18.264       14.194       12.107       10.387      201.456      146.578      107.889        0.041        0.023        5.632        8.680        2.375      324.013      -12.623      864.897
12/08/2013  08:08:00       -6.385       -1.981       18.682        9.519       11.754       14.519       90.619      138.161      210.805        0.042        0.022        6.685       10.782        2.601      324.027      -12.601      864.930
12/08/2013  08:09:00      -22.663        8.704        8.493       14.752       16.250       17.540      217.618      264.059      307.641        0.073        0.039       24.277       15.152        0.390      323.523      -13.411      864.961
12/08/2013  08:10:00      -17.124       -6.576       -1.825        7.849        8.288        6.449       61.601       68.694       41.594        0.026        0.009       18.343        5.140        0.079      323.502      -13.443      864.986
12/08/2013  08:11:00      -25.114       -1.827        5.232       14.812        7.587        9.426      219.398       57.569       88.850        0.051        0.018       25.181        8.983        0.127      323.628      -13.242      864.987
12/08/2013  08:12:00      -62.216      -20.015       -5.824       13.582       16.854       11.808      184.467      284.060      139.428        0.246        0.030       65.357       10.401        0.025      323.348      -13.692      864.984
12/08/2013  08:13:00      -62.794      -45.459       -1.948       16.207       24.862       15.608      262.675      618.096      243.594        0.357        0.056       77.522       11.224        0.021      323.341      -13.702      864.996
12/08/2013  08:14:00      -60.732      -51.650       -2.441       26.562       22.364       14.791      705.556      500.167      218.788        0.389        0.071       79.725       12.063        0.023      323.360      -13.672      865.020
12/08/2013  08:15:00      -46.952      -19.561        6.704       26.933       18.645       13.305      725.409      347.652      177.032        0.194        0.063       50.864        9.618        0.036      323.424      -13.570      865.045
12/08/2013  08:16:00      -16.686      -44.996       16.412       27.944       37.853       20.689      780.864     1432.859      428.038        0.261        0.132       47.990       19.197        0.160      323.663      -13.185      865.078
12/08/2013  08:17:00      -42.099      -23.633       -7.873       27.908       26.041       19.418      778.858      678.120      377.041        0.211        0.092       48.279       14.382        0.089      323.396      -13.615      865.099
12/08/2013  08:18:00      -46.338      -10.382        1.006       29.057       24.702       19.422      844.310      610.202      377.213        0.204        0.092       47.487       13.190        0.077      323.485      -13.472      865.103
12/08/2013  08:19:00      -23.525      -32.046       -1.133       30.258       26.604       15.113      915.576      707.782      228.418        0.172        0.093       39.754        9.617        0.059      323.461      -13.512      865.119
12/08/2013  08:20:00      -25.255      -12.243        5.403       19.232       21.136       17.815      369.874      446.727      317.359        0.098        0.057       28.066       11.669        0.173      323.619      -13.257      865.116
12/08/2013  08:21:00      -37.004      -38.083       -1.567       23.668       29.481       19.051      560.152      869.143      362.927        0.231        0.090       53.100       19.252        0.131      323.589      -13.305      865.092
12/08/2013  08:22:00      -28.739      -38.951        1.333       16.731       14.726       10.971      279.911      216.842      120.369        0.148        0.031       48.406        9.864        0.042      323.579      -13.322      865.077
12/08/2013  08:23:00      -35.528      -29.188       -5.423       21.518       25.111       15.421      463.039      630.569      237.814        0.174        0.067       45.980       13.806        0.090      323.628      -13.242      865.080
12/08/2013  08:24:00      -30.761      -53.556       -3.216       21.961       16.485       16.218      482.284      271.745      263.038        0.242        0.051       61.761       14.047        0.052      323.567      -13.341      865.104
12/08/2013  08:25:00      -48.767      -49.880        0.145       34.092       37.617       19.234     1162.292     1415.007      369.934        0.391        0.147       69.758       13.928        0.040      323.507      -13.436      865.140
12/08/2013  08:26:00      -55.804      -63.731       -1.495       23.436       30.138       16.328      549.243      908.321      266.609        0.445        0.086       84.709       13.226        0.024      323.427      -13.564      865.177
12/08/2013  08:27:00      -54.946      -59.655        4.282       22.422       22.786       21.508      502.741      519.216      462.584        0.404        0.074       81.104       12.695        0.025      323.568      -13.340      865.195
12/08/2013  08:28:00      -31.372      -45.671       -2.884       27.679       26.994       22.912      766.124      728.701      524.956        0.255        0.101       55.408       13.652        0.061      323.808      -12.954      865.196
12/08/2013  08:29:00      -66.978      -27.169       -4.267       19.522       23.578       14.236      381.102      555.909      202.650        0.319        0.057       72.279       12.207        0.029      323.638      -13.227      865.196
12/08/2013  08:30:00      -56.883      -36.120       -7.476       16.515       26.010       12.829      272.739      676.494      164.572        0.285        0.056       67.382        8.352        0.015      323.603      -13.282      865.199
12/08/2013  08:31:00      -39.285      -20.719        6.797       24.194       16.058       16.846      585.357      257.848      283.789        0.157        0.056       44.413       14.390        0.105      323.831      -12.915      865.190
12/08/2013  08:32:00      -22.778        2.241       11.097       23.924       29.042       18.421      572.362      843.420      339.327        0.120        0.088       22.888       15.954        0.486      323.922      -12.770      865.179
12/08/2013  08:33:00       -8.964       11.288       -2.501       28.993       30.362       16.418      840.588      921.879      269.557        0.112        0.102       14.415       15.231        1.116      323.991      -12.658      865.183
12/08/2013  08:34:00       -7.096        3.527        5.862       24.685       30.889       19.900      609.357      954.155      396.008        0.103        0.098        7.924       17.333        4.785      324.114      -12.461      865.185
12/08/2013  08:35:00      -74.549      -29.271       -2.277       44.163       40.316       24.162     1950.355     1625.384      583.821        0.529        0.208       80.090        7.244        0.008      323.837      -12.907      865.202
12/08/2013  08:36:00       -3.733      -43.736        1.508       45.044       33.146       25.684     2029.001     1098.689      659.691        0.286        0.189       43.895       17.748        0.163      323.890      -12.821      865.219
12/08/2013  08:37:00      -40.942      -44.698        5.750       41.970       42.925       26.545     1761.439     1842.554      704.646        0.401        0.215       60.615       26.434        0.190      323.945      -12.733      865.237
12/08/2013  08:38:00      -28.721      -41.505        0.613       30.683       39.998       23.944      941.460     1599.873      573.325        0.283        0.156       50.473       21.075        0.174      323.937      -12.746      865.263
12/08/2013  08:39:00      -52.558      -39.724       11.172       46.024       38.274       22.074     2118.197     1464.878      487.276        0.427        0.204       65.881       12.831        0.038      323.841      -12.900      865.287
12/08/2013  08:40:00      -52.305      -68.531      -15.056       33.574       32.342       19.687     1127.185     1045.974      387.586        0.511        0.128       86.211       12.892        0.022      323.835      -12.909      865.306
12/08/2013  08:41:00      -70.130      -35.470       -5.108       40.369       39.249       27.759     1629.626     1540.449      770.582        0.507        0.197       78.590       24.626        0.098      323.777      -13.003      865.304
12/08/2013  08:42:00      -75.701      -58.714        6.630       53.475       39.782       25.509     2859.534     1582.624      650.693        0.716        0.255       95.802       19.977        0.043      323.793      -12.978      865.289
12/08/2013  08:43:00      -18.489      -11.153       20.672       41.614       30.664       24.892     1731.700      940.270      619.621        0.209        0.165       21.592       23.275        1.162      324.155      -12.395      865.275
12/08/2013  08:44:00      -35.968      -60.219        9.068       37.294       38.708       26.111     1390.865     1498.317      681.766        0.429        0.179       70.143       20.675        0.087      323.884      -12.831      865.261
12/08/2013  08:45:00      -47.323      -42.700        7.131       57.730       35.150       30.814     3332.744     1235.553      949.509        0.481        0.276       63.740       32.352        0.258      323.951      -12.723      865.248
12/08/2013  08:46:00      -59.389      -60.729        8.878       50.866       37.384       29.252     2587.345     1397.582      855.692        0.607        0.242       84.942       23.149        0.074      323.876      -12.842      865.259
12/08/2013  08:47:00      -91.296     -101.874       -6.857       38.584       39.664       18.393     1488.747     1573.253      338.301        1.108        0.170      136.797       21.721        0.025      323.720      -13.094      865.250
12/08/2013  08:48:00      -99.527      -95.745       -4.477       35.495       38.346       21.499     1259.908     1470.398      462.202        1.114        0.160      138.105       20.270        0.022      323.635      -13.232      865.244
12/08/2013  08:49:00      -95.428      -56.191        0.062       46.893       30.007       21.134     2198.914      900.442      446.662        0.790        0.177      110.743       22.783        0.042      323.734      -13.072      865.236
12/08/2013  08:50:00      -53.703      -37.633        1.623       63.865       28.847       26.585     4078.725      832.161      706.764        0.496        0.281       65.576       31.081        0.225      323.866      -12.859      865.243
12/08/2013  08:51:00      -73.261      -44.905       -6.132       35.030       40.129       25.218     1227.094     1610.365      635.967        0.545        0.174       85.928       24.818        0.083      323.755      -13.039      865.259
12/08/2013  08:52:00      -53.304      -22.508        4.800       39.473       24.722       22.467     1558.122      611.200      504.768        0.302        0.134       57.861       20.626        0.127      323.983      -12.673      865.267
12/08/2013  08:53:00      -79.793      -53.183       -2.028       33.863       38.929       21.741     1146.683     1515.433      472.650        0.617        0.157       95.892       16.203        0.029      323.882      -12.834      865.274
12/08/2013  08:54:00      -71.000      -45.436       -1.897       42.355       32.521       20.959     1793.960     1057.592      439.262        0.520        0.165       84.294       20.510        0.059      323.869      -12.855      865.285
12/08/2013  08:55:00      -20.004      -23.967        2.238       23.694       23.509       16.198      561.402      552.666      262.369        0.118        0.069       31.218       12.474        0.160      324.174      -12.365      865.287
12/08/2013  08:56:00      -49.313      -26.053        0.592       17.159       17.231       13.399      294.444      296.903      179.539        0.194        0.039       55.772        9.781        0.031      324.029      -12.599      865.285
12/08/2013  08:57:00      -46.860      -17.247        0.243       24.330       22.897       13.974      591.937      524.286      195.277        0.190        0.066       49.934        7.937        0.025      323.988      -12.664      865.269
12/08/2013  08:58:00      -31.960       16.407       -4.861       12.854       12.528       11.937      165.222      156.941      142.480        0.089        0.023       35.926        8.099        0.051      324.108      -12.472      865.262
12/08/2013  08:59:00      -38.292       14.218       -6.355       12.092       19.293        8.056      146.221      372.227       64.900        0.115        0.029       40.846        2.822        0.005      324.071      -12.529      865.274
12/08/2013  09:00:00      -33.755       -0.713       -4.137        9.444       11.114        8.107       89.186      123.523       65.723        0.072        0.014       33.762        4.869        0.021      324.132      -12.433      865.288
12/08/2013  09:01:00      -18.722        9.028       -6.753       15.027       13.356       10.716      225.811      178.394      114.835        0.050        0.026       20.786        6.445        0.096      324.522      -11.805      865.307
12/08/2013  09:02:00      -26.441       12.619        0.076       24.132       30.215       17.703      582.348      912.957      313.390        0.133        0.090       29.298       17.236        0.346      324.552      -11.756      865.326
12/08/2013  09:03:00      -13.649       11.407       25.033       22.046       33.519       23.375      486.022     1123.530      546.373        0.155        0.108       17.788       21.411        1.449      324.831      -11.305      865.335
12/08/2013  09:04:00       19.355       39.258       67.943       33.612       30.588       25.084     1129.775      935.644      629.187        0.461        0.135       43.769       26.927        0.378      324.581      -11.709      865.353
12/08/2013  09:05:00       24.743       10.181       37.166       20.088       24.131       22.624      403.539      582.294      511.831        0.180        0.075       26.756       16.794        0.394      324.680      -11.550      865.370
12/08/2013  09:06:00       20.417       21.367       53.801       40.362       63.029       38.438     1629.112     3972.691     1477.509        0.542        0.354       29.554       40.781        1.904      324.490      -11.856      865.365
12/08/2013  09:07:00       12.637       44.371       72.003       41.636       48.166       35.695     1733.524     2319.937     1274.139        0.632        0.266       46.135       35.333        0.587      324.716      -11.491      865.369
12/08/2013  09:08:00       47.615       33.318       49.263       36.888       30.210       27.911     1360.727      912.638      779.036        0.443        0.153       58.114       22.641        0.152      324.588      -11.699      865.394
12/08/2013  09:09:00       57.545       21.187       41.908       36.581       22.766       22.706     1338.173      518.311      515.582        0.394        0.119       61.322       17.543        0.082      324.575      -11.720      865.415
12/08/2013  09:10:00       36.703       22.911       34.006       49.462       36.531       30.754     2446.491     1334.486      945.800        0.388        0.236       43.267       35.961        0.691      324.712      -11.500      865.438
12/08/2013  09:11:00       24.432       56.190       36.544       42.299       29.584       25.972     1789.199      875.210      674.546        0.421        0.167       61.272       20.623        0.113      325.000      -11.034      865.453
12/08/2013  09:12:00       29.448       44.471       27.996       45.194       33.337       34.292     2042.461     1111.372     1175.909        0.398        0.216       53.337       26.058        0.239      324.965      -11.091      865.481
12/08/2013  09:13:00       94.844       80.331       60.375       60.600       34.058       41.504     3672.383     1159.931     1722.619        1.282        0.328      124.292       36.499        0.086      324.588      -11.698      865.479
12/08/2013  09:14:00      109.617       64.152       26.067       33.629       37.980       35.454     1130.937     1442.474     1257.010        1.032        0.192      127.010       16.857        0.018      324.489      -11.859      865.479
12/08/2013  09:15:00       96.628       72.444       12.504       35.421       32.703       33.366     1254.647     1069.468     1113.287        0.909        0.172      120.768       21.500        0.032      324.561      -11.741      865.461
12/08/2013  09:16:00       43.671       48.423       40.321       46.830       36.816       39.452     2193.010     1355.394     1556.458        0.549        0.255       65.207       22.186        0.116      324.752      -11.433      865.447
12/08/2013  09:17:00      107.255       82.893       18.375       31.481       21.921       33.483      991.070      480.515     1121.097        1.065        0.130      135.554       23.790        0.031      324.198      -12.326      865.456
12/08/2013  09:18:00       91.910       69.855       -4.680       34.911       33.696       28.839     1218.761     1135.406      831.715        0.827        0.159      115.443       10.211        0.008      324.462      -11.902      865.457
12/08/2013  09:19:00       98.448       69.161       -3.394       24.476       24.334       27.328      599.072      592.155      746.806        0.821        0.097      120.314       11.540        0.009      324.479      -11.872      865.468
12/08/2013  09:20:00       76.274       62.091        4.806       50.816       32.180       33.940     2582.287     1035.575     1151.941        0.723        0.238       98.352       24.275        0.061      324.602      -11.676      865.494
12/08/2013  09:21:00       99.026       73.285        6.551       41.013       29.200       31.268     1682.094      852.621      977.677        0.937        0.176      123.194       21.063        0.029      324.554      -11.753      865.524
12/08/2013  09:22:00      134.009      109.308       14.663       42.755       27.653       40.959     1827.959      764.704     1677.656        1.720        0.214      172.935       31.075        0.032      324.454      -11.915      865.560
12/08/2013  09:23:00       69.378       83.163       50.425       58.543       38.719       43.457     3427.339     1499.183     1888.539        1.054        0.341      108.302       33.962        0.098      324.714      -11.495      865.590
12/08/2013  09:24:00      133.085       95.065       11.298       38.913       23.444       43.462     1514.250      549.624     1888.954        1.541        0.198      163.551       24.264        0.022      324.414      -11.979      865.598
12/08/2013  09:25:00      119.736       66.395        0.825       32.444       31.172       25.353     1052.614      971.713      642.758        1.071        0.133      136.912       21.610        0.025      324.356      -12.072      865.586
12/08/2013  09:26:00       84.822       43.253       10.039       35.131       30.629       29.239     1234.221      938.138      854.898        0.610        0.151       95.214       17.457        0.034      324.679      -11.551      865.589
12/08/2013  09:27:00       18.310       46.661       36.676       29.719       37.138       35.977      883.241     1379.234     1294.338        0.371        0.178       50.125       29.126        0.338      325.387      -10.410      865.587
12/08/2013  09:28:00       93.638       82.013       32.143       49.246       28.801       44.911     2425.167      829.495     2017.019        1.090        0.264      124.476       34.485        0.077      324.777      -11.392      865.605
12/08/2013  09:29:00       52.973       44.868       28.491       41.967       38.848       33.735     1761.261     1509.192     1138.062        0.502        0.220       69.421       25.324        0.133      324.916      -11.171      865.624
12/08/2013  09:30:00       10.863       37.806       58.841       36.191       41.387       26.146     1309.771     1712.912      683.603        0.436        0.185       39.335       16.665        0.179      325.285      -10.572      865.621
12/08/2013  09:31:00      121.469       83.627        6.573       40.265       31.020       31.901     1621.292      962.229     1017.685        1.270        0.180      147.473       12.455        0.007      324.629      -11.632      865.614
12/08/2013  09:32:00       47.633       48.491       51.505       62.420       45.898       39.838     3896.196     2106.600     1587.088        0.743        0.379       67.972       39.215        0.333      325.153      -10.787      865.601
12/08/2013  09:33:00      111.567       48.025       18.330       60.552       39.381       46.688     3666.596     1550.884     2179.782        1.124        0.370      121.464       35.312        0.085      324.774      -11.399      865.608
12/08/2013  09:34:00      109.139       70.188        8.808       37.776       28.514       32.088     1427.055      813.046     1029.651        1.009        0.163      129.760       21.345        0.027      324.881      -11.227      865.612
12/08/2013  09:35:00      102.948       54.620        4.795       38.924       28.901       39.175     1515.050      835.257     1534.669        0.874        0.194      116.540       22.874        0.039      324.690      -11.534      865.618
12/08/2013  09:36:00       41.744       50.118       11.793       45.993       35.441       30.503     2115.317     1256.064      930.460        0.435        0.215       65.226       15.436        0.056      324.996      -11.040      865.624
12/08/2013  09:37:00       -9.465       64.858       83.605       27.467       38.412       26.438      754.454     1475.482      698.968        0.711        0.146       65.545       22.014        0.113      325.179      -10.745      865.630
12/08/2013  09:38:00       -7.443       49.794       67.514       26.101       33.205       25.627      681.277     1102.589      656.746        0.477        0.122       50.347       20.915        0.173      325.192      -10.724      865.634
12/08/2013  09:39:00      109.448       92.659        0.481       45.759       32.378       27.518     2093.898     1048.363      757.242        1.223        0.195      143.403       16.685        0.014      324.822      -11.322      865.637
12/08/2013  09:40:00      110.381       81.512       18.158       25.728       19.651       27.707      661.917      386.150      767.694        1.049        0.091      137.216       12.140        0.008      324.602      -11.675      865.625
12/08/2013  09:41:00       70.507       58.944       11.172       26.993       27.058       30.367      728.614      732.118      922.162        0.548        0.119       91.900       15.398        0.028      324.711      -11.501      865.614
12/08/2013  09:42:00       54.784       60.098        1.905       27.014       32.555       28.832      729.738     1059.853      831.295        0.462        0.131       81.321       21.661        0.071      324.952      -11.111      865.605
12/08/2013  09:43:00       56.810       48.258       13.254       34.524       29.889       27.268     1191.898      893.376      743.542        0.428        0.141       74.540       16.535        0.049      324.950      -11.115      865.606
12/08/2013  09:44:00       54.205       62.098       60.638       20.458       16.359       19.316      418.528      267.615      373.104        0.577        0.053       82.428        8.668        0.011      324.834      -11.301      865.610
12/08/2013  09:45:00       36.804       62.099       50.517       32.072       19.863       14.407     1028.610      394.547      207.574        0.470        0.082       72.186       13.902        0.037      324.749      -11.440      865.594
12/08/2013  09:46:00       86.680       53.813       28.744       20.084       23.145       33.325      403.386      535.688     1110.588        0.664        0.102      102.026        9.600        0.009      324.677      -11.555      865.593
12/08/2013  09:47:00       74.660       58.944       24.025       25.704       22.291       42.710      660.696      496.902     1824.162        0.630        0.149       95.123       24.861        0.068      324.852      -11.271      865.580
12/08/2013  09:48:00       17.946       29.388      -15.520       44.273       30.757       18.715     1960.140      945.985      350.270        0.234        0.163       34.434       13.640        0.157      324.829      -11.310      865.577
12/08/2013  09:49:00       15.197       34.261       43.685       20.323       25.873       24.987      413.021      669.401      624.327        0.251        0.085       37.481       16.149        0.186      325.433      -10.335      865.569
12/08/2013  09:50:00       45.875       52.704       56.505       68.736       53.855       32.534     4724.674     2900.329     1058.453        0.838        0.434       69.873       34.200        0.240      325.428      -10.343      865.575
12/08/2013  09:51:00      100.904      102.287       59.636       46.460       29.960       37.943     2158.515      897.584     1439.636        1.435        0.225      143.681       21.107        0.022      325.058      -10.940      865.590
12/08/2013  09:52:00       27.322       54.929       79.645       38.225       58.758       27.586     1461.121     3452.452      760.980        0.789        0.284       61.349       24.020        0.153      325.500      -10.225      865.612
12/08/2013  09:53:00       56.798       51.653       49.534       42.280       47.030       42.267     1787.602     2211.802     1786.525        0.707        0.289       76.772       30.575        0.159      325.259      -10.617      865.620
12/08/2013  09:54:00      138.582      113.703       35.891       41.942       32.315       40.191     1759.160     1044.264     1615.322        1.892        0.221      179.258       26.649        0.022      324.986      -11.057      865.608
12/08/2013  09:55:00       33.895       65.067       64.571       41.199       48.829       45.930     1697.361     2384.279     2109.555        0.787        0.310       73.366       32.099        0.191      325.469      -10.276      865.579
12/08/2013  09:56:00       -5.356       79.112      103.048       47.322       56.331       40.547     2239.334     3173.146     1644.039        1.198        0.353       79.293       35.424        0.200      325.663       -9.964      865.570
12/08/2013  09:57:00      110.341       93.630       59.211       59.527       48.270       52.926     3543.463     2329.947     2801.200        1.656        0.434      144.712       48.575        0.113      325.017      -11.007      865.559
12/08/2013  09:58:00       54.515      120.091      106.581       58.711       46.691       42.685     3447.007     2180.079     1821.984        1.810        0.372      131.886       37.697        0.082      325.290      -10.567      865.534
12/08/2013  09:59:00      116.795      122.006       74.433       74.200       38.366       49.375     5505.700     1471.921     2437.900        2.174        0.471      168.899       35.001        0.043      324.982      -11.064      865.539
12/08/2013  10:00:00       10.431       73.105       98.978       51.728       56.085       53.665     2675.752     3145.553     2879.976        1.197        0.435       73.845       48.687        0.435      325.390      -10.405      865.539
12/08/2013  10:01:00       41.788       60.772      109.140       61.292       56.016       42.283     3756.761     3137.834     1787.854        1.301        0.434       73.753       33.035        0.201      325.506      -10.217      865.548
12/08/2013  10:02:00       40.138       83.573       93.186       56.212       42.837       28.414     3159.758     1835.046      807.377        1.154        0.290       92.712       21.778        0.055      325.292      -10.561      865.556
12/08/2013  10:03:00       33.354       55.749       80.446       66.947       75.624       59.143     4481.870     5718.942     3497.909        1.219        0.685       64.965       57.861        0.793      325.501      -10.226      865.545
12/08/2013  10:04:00      110.412       81.214       58.118       69.955       62.741       64.457     4893.752     3936.430     4154.654        1.757        0.649      137.064       43.799        0.102      325.189      -10.730      865.528
12/08/2013  10:05:00       31.979       63.721       62.385       41.687       37.930       29.084     1737.791     1438.675      845.868        0.650        0.201       71.296       15.402        0.047      325.611      -10.047      865.520
12/08/2013  10:06:00       58.265       68.442       45.783       61.919       49.159       37.983     3833.923     2416.598     1442.704        0.893        0.385       89.884       20.262        0.051      325.575      -10.105      865.511
12/08/2013  10:07:00      113.289       80.218       18.766       68.252       46.211       57.300     4658.372     2135.483     3283.307        1.485        0.504      138.814       51.119        0.136      325.299      -10.551      865.512
12/08/2013  10:08:00       37.505       81.944       73.439       55.698       44.522       47.876     3102.319     1982.203     2292.127        1.044        0.369       90.119       37.028        0.169      325.647       -9.988      865.505
12/08/2013  10:09:00       31.910       43.633       75.917       42.635       54.647       31.138     1817.784     2986.244      969.599        0.723        0.289       54.056       27.860        0.266      325.594      -10.075      865.527
12/08/2013  10:10:00       47.630       14.157       32.378       44.780       57.162       27.796     2005.285     3267.481      772.607        0.478        0.302       49.689       32.221        0.420      325.558      -10.134      865.546
12/08/2013  10:11:00       79.069       86.396       57.029       71.070       44.228       44.777     5050.977     1956.129     2004.998        1.299        0.451      117.116       28.165        0.058      325.568      -10.116      865.561
12/08/2013  10:12:00       93.445       82.999       15.768       57.202       41.594       25.636     3272.078     1730.085      657.183        1.076        0.283      124.983       14.336        0.013      325.240      -10.647      865.576
12/08/2013  10:13:00       97.037       91.397       49.030       37.630       33.335       48.720     1416.038     1111.207     2373.635        1.254        0.245      133.302        5.649        0.002      325.271      -10.597      865.575
12/08/2013  10:14:00       51.760       48.901        1.278       48.546       26.615       26.393     2356.756      708.377      696.605        0.442        0.188       71.206       13.903        0.038      325.304      -10.543      865.585
12/08/2013  10:15:00       47.021       47.755       42.080       30.027       42.239       32.889      901.638     1784.110     1081.686        0.501        0.188       67.019       17.720        0.070      325.677       -9.940      865.588
12/08/2013  10:16:00       64.139       53.636       26.150       41.638       38.596       41.648     1733.693     1489.652     1734.577        0.632        0.248       83.610       28.277        0.114      325.730       -9.856      865.606
12/08/2013  10:17:00       93.879       89.825       48.996       36.629       35.577       28.204     1341.658     1265.707      795.493        1.134        0.170      129.930       13.714        0.011      325.536      -10.169      865.597
12/08/2013  10:18:00       84.880       66.702       43.912       41.234       40.534       39.977     1700.209     1643.031     1598.140        0.926        0.247      107.953       23.341        0.047      325.415      -10.363      865.589
12/08/2013  10:19:00        3.282       41.085       68.037       35.419       49.101       56.367     1254.487     2410.898     3177.237        0.658        0.342       41.216       42.891        1.083      325.836       -9.684      865.575
12/08/2013  10:20:00        4.439       82.016       86.173       37.838       47.905       34.128     1431.729     2294.893     1164.694        0.953        0.245       82.136       20.479        0.062      325.769       -9.792      865.556
12/08/2013  10:21:00       89.868       96.477        8.191       35.025       42.297       37.550     1226.719     1789.003     1410.023        1.094        0.221      131.849       16.216        0.015      325.463      -10.286      865.563
12/08/2013  10:22:00       80.051       52.882        7.258       26.275       33.913       32.163      690.394     1150.117     1034.489        0.607        0.144       95.941       21.119        0.048      325.346      -10.474      865.563
12/08/2013  10:23:00        7.413       29.962        4.201       39.802       19.911       26.029     1584.200      396.447      677.524        0.181        0.133       30.866       10.123        0.108      325.456      -10.297      865.573
12/08/2013  10:24:00      -35.551       -4.909       -7.324       27.952       12.679       14.467      781.320      160.752      209.300        0.125        0.058       35.888       18.612        0.269      325.374      -10.430      865.568
12/08/2013  10:25:00       10.030       47.297       59.216       33.923       39.627       27.451     1150.789     1570.322      753.550        0.466        0.174       48.349       21.758        0.203      325.934       -9.525      865.574
12/08/2013  10:26:00      159.933      103.531        3.263       78.996       40.347       45.720     6240.337     1627.887     2090.306        2.313        0.498      190.518       46.044        0.058      325.449      -10.312      865.581
12/08/2013  10:27:00       85.405       88.845      -18.424       53.722       51.555       19.288     2886.096     2657.895      372.025        1.072        0.296      123.238       15.139        0.015      325.282      -10.580      865.599
12/08/2013  10:28:00       -3.061       53.329       -2.861       20.212       16.455       17.187      408.512      270.757      295.384        0.192        0.049       53.417        9.555        0.032      325.641      -10.000      865.606
12/08/2013  10:29:00       42.120       65.370       15.371       47.170       46.735       34.407     2224.974     2184.130     1183.816        0.594        0.280       77.764       23.413        0.091      325.853       -9.656      865.611
12/08/2013  10:30:00       44.295        1.482       19.143       71.014       77.792       40.625     5042.959     6051.662     1650.399        0.754        0.637       44.320       30.827        0.484      325.811       -9.724      865.625
12/08/2013  10:31:00      -14.357       25.593       79.948       39.112       44.751       32.942     1529.736     2002.609     1085.153        0.593        0.231       29.345       23.580        0.646      326.269       -8.982      865.618
12/08/2013  10:32:00       52.089      -27.605       31.491       40.622       53.031       43.945     1650.160     2812.340     1931.169        0.543        0.320       58.952       22.321        0.143      325.999       -9.420      865.605
12/08/2013  10:33:00       40.678       52.428       31.727       48.754       31.759       39.294     2376.975     1008.611     1544.030        0.517        0.246       66.358       17.480        0.069      325.640      -10.000      865.581
12/08/2013  10:34:00       58.237       62.180        3.565       26.457       24.797       24.488      699.961      614.890      599.674        0.459        0.096       85.193       14.878        0.030      325.761       -9.805      865.563
12/08/2013  10:35:00       57.515       44.946        7.840       33.400       32.331       37.259     1115.590     1045.307     1388.202        0.447        0.177       72.994       15.867        0.047      326.074       -9.300      865.556
12/08/2013  10:36:00       50.547      116.568       98.652       67.679       44.522       54.185     4580.439     1982.234     2936.051        1.769        0.475      127.055       50.606        0.159      325.819       -9.712      865.530
12/08/2013  10:37:00       64.932       56.696       51.325       50.721       34.444       29.837     2572.605     1186.374      890.236        0.736        0.232       86.201       21.994        0.065      325.858       -9.649      865.529
12/08/2013  10:38:00       50.942       47.839       51.917       66.782       46.774       36.852     4459.876     2187.816     1358.089        0.779        0.400       69.883       39.435        0.318      325.999       -9.420      865.513
12/08/2013  10:39:00       72.856       58.841        2.307       49.177       31.528       21.067     2418.393      994.035      443.835        0.632        0.193       93.650        7.069        0.006      325.526      -10.182      865.525
12/08/2013  10:40:00        9.269       70.511       96.745       36.556       74.543       48.777     1336.307     5556.697     2379.188        1.184        0.464       71.117       52.534        0.546      326.111       -9.239      865.506
12/08/2013  10:41:00       72.266       96.300       82.585       40.455       56.047       35.566     1636.568     3141.258     1264.927        1.368        0.302      120.399       34.483        0.082      325.710       -9.888      865.514
12/08/2013  10:42:00       14.785       10.606       50.845       28.746       38.011       31.327      826.338     1444.806      981.356        0.308        0.163       18.195       24.820        1.861      326.232       -9.043      865.523
12/08/2013  10:43:00       58.697       29.330       36.716       30.178       30.248       31.007      910.691      914.936      961.413        0.422        0.139       65.617       24.488        0.139      325.687       -9.925      865.517
12/08/2013  10:44:00       33.267        9.209       36.545       33.062       42.512       32.983     1093.084     1807.299     1087.866        0.326        0.199       34.518       17.236        0.249      326.034       -9.362      865.508
12/08/2013  10:45:00        0.197        0.307       41.752       30.789       40.139       31.214      947.970     1611.172      974.303        0.264        0.177        0.365       23.261     4063.596      326.286       -8.954      865.490
12/08/2013  10:46:00       15.304      -13.286       46.700       37.321       50.935       46.362     1392.820     2594.400     2149.437        0.436        0.307       20.267       24.654        1.480      326.333       -8.880      865.476
12/08/2013  10:47:00       16.318      106.042      108.983       52.415       60.535       48.966     2747.292     3664.534     2397.682        1.610        0.440      107.290       40.368        0.142      326.184       -9.121      865.455
12/08/2013  10:48:00      105.935      104.276       59.648       25.000       20.601       29.358      624.989      424.393      861.877        1.378        0.096      148.646       16.209        0.012      325.475      -10.267      865.466
12/08/2013  10:49:00      112.239       61.755       18.407       27.977       29.626       26.502      782.700      877.710      702.367        0.956        0.118      128.107       22.526        0.031      325.425      -10.348      865.477
12/08/2013  10:50:00       55.968      -48.606        1.474       30.319       31.735       21.649      919.224     1007.084      468.695        0.395        0.120       74.128       13.612        0.034      325.816       -9.716      865.470
12/08/2013  10:51:00       52.328       58.235       91.484       80.014       73.055       46.454     6402.211     5336.985     2157.982        1.420        0.695       78.291       55.120        0.496      326.098       -9.261      865.452
12/08/2013  10:52:00       24.471       28.790       83.280       49.938       59.908       45.975     2493.785     3588.962     2113.728        0.828        0.410       37.784       43.365        1.317      325.995       -9.426      865.460
12/08/2013  10:53:00       35.667       72.105       91.746       39.328       38.401       26.312     1546.716     1474.651      692.337        0.930        0.186       80.444       23.502        0.085      325.945       -9.509      865.454
12/08/2013  10:54:00       36.865       59.668        3.879       33.368       37.863       33.170     1113.449     1433.618     1100.227        0.429        0.182       70.137       22.933        0.107      325.839       -9.678      865.438
12/08/2013  10:55:00       17.448        5.860       39.552       45.146       43.589       47.533     2038.176     1899.991     2259.339        0.405        0.310       18.406       37.181        4.081      326.115       -9.233      865.417
12/08/2013  10:56:00       59.839       57.403       57.407       39.037       50.358       28.834     1523.913     2535.911      831.403        0.753        0.245       82.921       21.730        0.069      325.866       -9.636      865.400
12/08/2013  10:57:00       71.333       74.324       71.974       65.630       47.304       37.969     4307.359     2237.704     1441.626        1.189        0.399      103.017       31.289        0.092      326.034       -9.364      865.398
12/08/2013  10:58:00       69.299       46.752       50.537       51.762       59.955       47.545     2679.345     3594.639     2260.568        0.904        0.427       83.595       34.227        0.168      325.990       -9.434      865.418
12/08/2013  10:59:00       41.932        2.397       55.099       46.449       53.190       35.203     2157.523     2829.211     1239.266        0.551        0.311       42.000       33.783        0.647      326.221       -9.061      865.419
12/08/2013  11:00:00       70.879       -8.666       28.609       62.239       27.524       26.973     3873.711      757.548      727.544        0.564        0.268       71.407       29.256        0.168      326.029       -9.370      865.397
12/08/2013  11:01:00       34.068       50.725       70.455       50.414       65.873       46.795     2541.560     4339.309     2189.743        0.888        0.454       61.104       57.008        0.870      326.343       -8.863      865.366
12/08/2013  11:02:00       39.120       17.632       35.370       44.681       55.249       44.391     1996.414     3052.464     1970.532        0.505        0.351       42.910       38.730        0.815      326.248       -9.018      865.333
12/08/2013  11:03:00       63.198       61.771       -1.346       61.488       45.136       32.164     3780.741     2037.263     1034.510        0.733        0.343       88.373       28.789        0.106      326.134       -9.201      865.305
12/08/2013  11:04:00       82.009       60.636       -8.949       64.062       42.725       37.047     4103.949     1825.394     1372.457        0.889        0.365      101.991       24.467        0.058      326.148       -9.177      865.274
12/08/2013  11:05:00       75.585       44.240       20.027       45.930       37.507       44.243     2109.607     1406.774     1957.484        0.677        0.274       87.580       29.279        0.112      326.259       -8.999      865.266
12/08/2013  11:06:00       66.241       61.469       20.453       45.560       39.898       40.863     2075.693     1591.820     1669.792        0.696        0.267       90.368       20.036        0.049      326.214       -9.072      865.246
12/08/2013  11:07:00       80.100       93.755       76.821       74.235       50.368       35.213     5510.835     2536.973     1239.973        1.520        0.464      123.313       27.443        0.050      326.302       -8.930      865.230
12/08/2013  11:08:00      148.755       95.884       51.392       69.303       39.491       46.439     4802.954     1559.557     2156.615        2.124        0.426      176.980       29.641        0.028      326.182       -9.126      865.209
12/08/2013  11:09:00       89.535      105.139       84.834       69.501       50.862       59.158     4830.340     2586.900     3499.629        1.859        0.546      138.097       54.970        0.158      326.070       -9.306      865.208
12/08/2013  11:10:00       88.696       61.044       60.420       67.256       48.378       37.983     4523.367     2340.470     1442.680        1.177        0.415      107.673       36.500        0.115      326.075       -9.298      865.203
12/08/2013  11:11:00       39.438        9.219       45.349       30.060       31.491       23.255      903.608      991.676      540.815        0.307        0.122       40.501       18.247        0.203      326.292       -8.947      865.204
12/08/2013  11:12:00       22.736       37.351       37.122       27.593       26.292       23.563      761.395      691.270      555.235        0.265        0.100       43.727       16.851        0.149      326.498       -8.613      865.183
12/08/2013  11:13:00       18.530       82.940      111.023       43.888       56.415       29.878     1926.149     3182.692      892.674        1.277        0.300       84.984       29.594        0.121      326.477       -8.645      865.185
12/08/2013  11:14:00       76.254      106.468      113.478       64.780       51.241       45.603     4196.493     2625.632     2079.611        1.946        0.445      130.958       39.238        0.090      326.151       -9.176      865.176
12/08/2013  11:15:00      119.387      125.865       81.067       48.510       37.210       48.565     2353.222     1384.594     2358.605        2.138        0.305      173.480       36.738        0.045      326.168       -9.148      865.176
12/08/2013  11:16:00       55.886       75.967       95.288       66.002       87.298       37.938     4356.281     7620.944     1439.275        1.569        0.671       94.309       46.867        0.247      326.293       -8.946      865.160
12/08/2013  11:17:00       32.134     -116.409       19.056       50.093       70.200       36.627     2509.347     4928.088     1341.562        1.186        0.439      120.763       35.657        0.087      326.481       -8.640      865.133
12/08/2013  11:18:00       -5.494      -14.322       41.757       30.468       48.543       32.242      928.303     2356.402     1039.552        0.315        0.216       15.340        5.225        0.116      326.758       -8.191      865.105
12/08/2013  11:19:00       58.356       49.595       38.507       55.948       39.677       31.315     3130.204     1574.292      980.605        0.652        0.284       76.584       16.299        0.045      326.364       -8.829      865.097
12/08/2013  11:20:00       28.034       43.296        6.121       15.604       18.496       25.745      243.498      342.100      662.824        0.197        0.062       51.579        7.043        0.019      326.173       -9.139      865.075
12/08/2013  11:21:00       38.570       73.097       58.929       44.730       47.916       64.668     2000.769     2295.957     4181.898        0.939        0.424       82.648       46.672        0.319      326.517       -8.582      865.072
12/08/2013  11:22:00       43.749       14.267       50.199       69.237       65.837       47.442     4793.707     4334.541     2250.780        0.801        0.569       46.016       46.730        1.031      326.405       -8.762      865.064
12/08/2013  11:23:00       25.800        7.154       39.156       28.328       25.636       26.287      802.503      657.226      690.988        0.220        0.108       26.774       15.750        0.346      326.730       -8.237      865.071
12/08/2013  11:24:00       21.822      -11.520       12.699       29.222       34.436       26.035      853.952     1185.810      677.821        0.174        0.136       24.676       25.391        1.059      326.529       -8.562      865.068
12/08/2013  11:25:00       -2.427       -9.639       33.505       21.081       40.138       25.682      444.395     1611.057      659.559        0.197        0.136        9.940       26.745        7.240      326.979       -7.832      865.073
12/08/2013  11:26:00       34.745      -17.743       41.072       38.440       39.670       35.250     1477.603     1573.704     1242.531        0.375        0.215       39.013       21.146        0.294      326.884       -7.986      865.084
12/08/2013  11:27:00       32.474       40.048       41.900       27.821       22.449       22.460      774.027      503.964      504.437        0.310        0.089       51.559       19.597        0.144      326.575       -8.487      865.073
12/08/2013  11:28:00       16.760       41.322       33.870       23.708       31.353       26.458      562.051      983.015      700.009        0.269        0.112       44.592       10.399        0.054      326.935       -7.903      865.074
12/08/2013  11:29:00       24.956      -33.183       13.039       31.339       70.351       34.948      982.160     4949.332     1221.356        0.452        0.358       41.519       39.130        0.888      326.741       -8.219      865.072
12/08/2013  11:30:00       36.620       47.775       64.516       55.860       54.221       44.463     3120.381     2939.867     1976.935        0.791        0.402       60.196       34.270        0.324      326.682       -8.313      865.076
12/08/2013  11:31:00       87.838       94.328       89.054       40.340       44.065       31.474     1627.303     1941.751      990.594        1.455        0.228      128.893       21.365        0.027      326.348       -8.854      865.090
12/08/2013  11:32:00       95.791       70.785       43.332       44.449       34.507       40.199     1975.695     1190.729     1615.919        1.042        0.239      119.107       33.484        0.079      326.303       -8.927      865.087
12/08/2013  11:33:00       98.109       68.767       21.234       26.330       21.777       27.778      693.265      474.244      771.633        0.837        0.097      119.809       20.089        0.028      326.058       -9.325      865.099
12/08/2013  11:34:00       43.428       35.085       23.137       30.393       29.281       24.659      923.709      857.392      608.072        0.302        0.119       55.829       15.299        0.075      326.351       -8.853      865.102
12/08/2013  11:35:00       40.057      -22.884       13.930       40.365       36.561       31.174     1629.313     1336.674      971.799        0.313        0.197       46.132       19.333        0.176      326.355       -8.844      865.113
12/08/2013  11:36:00       27.580       22.907       37.437       63.781       77.273       31.210     4068.023     5971.156      974.077        0.685        0.551       35.853       22.901        0.408      326.699       -8.286      865.097
12/08/2013  11:37:00       70.784      125.403      110.862       94.695       57.689       55.451     8967.049     3328.004     3074.791        2.420        0.768      144.001       60.328        0.176      326.544       -8.539      865.085
12/08/2013  11:38:00      143.147       93.952       37.841       40.545       28.188       30.390     1643.880      794.582      923.545        1.706        0.168      171.225       17.925        0.011      326.200       -9.095      865.086
12/08/2013  11:39:00       62.224       71.005       50.704       71.256       47.690       53.412     5077.469     2274.308     2852.799        1.084        0.510       94.412       40.547        0.184      326.444       -8.700      865.070
12/08/2013  11:40:00       24.130       39.280       66.651       40.860       50.681       40.736     1669.560     2568.577     1659.435        0.623        0.295       46.100       30.930        0.450      326.817       -8.095      865.043
12/08/2013  11:41:00       60.044       77.008       83.765       47.569       39.445       37.208     2262.785     1555.938     1384.450        1.088        0.260       97.650       22.882        0.055      326.700       -8.284      865.027
12/08/2013  11:42:00       -1.491       55.731       82.322       20.411       45.553       22.113      416.625     2075.089      488.965        0.643        0.149       55.751       22.505        0.163      327.083       -7.662      865.001
12/08/2013  11:43:00       49.439      -21.213       41.024       44.377       99.974       47.424     1969.319     9994.738     2249.071        0.939        0.711       53.798       60.191        1.252      326.607       -8.435      865.005
12/08/2013  11:44:00        7.735      -13.438       34.250       26.172       57.693       25.154      684.961     3328.470      632.744        0.303        0.232       15.505       30.636        3.904      326.953       -7.874      864.989
12/08/2013  11:45:00       -2.245       71.414      109.524       32.733       42.035       29.189     1071.422     1766.949      852.019        1.039        0.185       71.449       26.830        0.141      326.778       -8.159      864.984
12/08/2013  11:46:00       56.034       77.193       97.041       71.192       50.542       45.637     5068.365     2554.499     2082.766        1.411        0.485       95.386       47.682        0.250      326.700       -8.284      864.961
12/08/2013  11:47:00       28.108       39.589       81.021       45.606       44.936       32.458     2079.892     2019.235     1053.531        0.704        0.258       48.553       24.049        0.245      326.862       -8.023      864.957
12/08/2013  11:48:00      127.420       91.697       81.163       76.161       72.054       42.457     5800.423     5191.751     1802.580        2.201        0.640      156.985       41.626        0.070      326.448       -8.695      864.940
12/08/2013  11:49:00       30.368       45.992       62.630       51.355       52.030       39.366     2637.375     2707.138     1549.648        0.693        0.345       55.113       29.117        0.279      326.930       -7.912      864.940
12/08/2013  11:50:00       44.674       65.753       87.936       55.660       58.845       48.853     3098.058     3462.774     2386.638        1.150        0.447       79.494       48.545        0.373      326.849       -8.045      864.934
12/08/2013  11:51:00       67.082       81.129       63.401       70.782       64.356       59.494     5010.145     4141.678     3539.493        1.389        0.635      105.270       56.313        0.286      326.610       -8.432      864.920
12/08/2013  11:52:00       96.581       81.731       28.460       59.746       33.689       45.644     3569.577     1134.919     2083.402        1.180        0.339      126.522       34.292        0.073      326.710       -8.267      864.915
12/08/2013  11:53:00       78.622       69.842       28.196       52.559       39.595       44.971     2762.426     1567.733     2022.410        0.910        0.318      105.163       17.469        0.028      326.838       -8.061      864.906
12/08/2013  11:54:00       47.242       60.642       61.391       54.248       56.711       49.704     2942.798     3216.169     2470.487        0.915        0.431       76.872       42.686        0.308      327.086       -7.658      864.899
12/08/2013  11:55:00      152.305      111.232       30.328       67.810       47.706       64.996     4598.195     2275.843     4224.529        2.379        0.555      188.599       54.852        0.085      326.659       -8.353      864.901
12/08/2013  11:56:00      170.557      114.265       21.743       44.729       32.394       35.178     2000.670     1049.382     1237.500        2.345        0.214      205.296       17.660        0.007      326.357       -8.842      864.897
12/08/2013  11:57:00      133.392       84.842       28.433       60.655       50.506       39.930     3679.052     2550.862     1594.418        1.681        0.391      158.087       29.130        0.034      326.529       -8.563      864.895
12/08/2013  11:58:00      126.341       73.141       60.115       73.894       36.508       50.145     5460.299     1332.827     2514.517        1.711        0.465      145.985       48.431        0.110      326.774       -8.166      864.869
12/08/2013  11:59:00       55.719      138.942      122.970       70.892       50.652       42.552     5025.654     2565.602     1810.640        2.346        0.470      149.698       34.024        0.052      326.712       -8.266      864.845
12/08/2013  12:00:00       77.863       60.446       87.447       80.655       56.945       50.527     6505.213     3242.751     2552.974        1.483        0.615       98.571       54.551        0.306      326.575       -8.487      864.845
12/08/2013  12:01:00      112.995       85.279       59.917       73.143       54.770       52.836     5349.839     2999.733     2791.633        1.738        0.557      141.564       50.739        0.128      326.614       -8.424      864.821
12/08/2013  12:02:00       94.639       90.724       62.897      102.310       52.935       40.531    10467.255     2802.076     1642.759        1.802        0.746      131.101       46.488        0.126      326.940       -7.897      864.808
12/08/2013  12:03:00      109.296      111.931       97.305       47.591       49.366       41.359     2264.875     2437.021     1710.530        2.018        0.321      156.442       20.745        0.018      326.782       -8.153      864.816
12/08/2013  12:04:00       89.322      105.446       98.166       72.031       49.041       56.562     5188.499     2405.040     3199.210        1.976        0.540      138.193       50.446        0.133      326.661       -8.349      864.815
12/08/2013  12:05:00       76.686       81.103       50.184       45.622       46.627       48.664     2081.331     2174.077     2368.197        1.080        0.331      111.617       39.695        0.126      326.536       -8.552      864.806
12/08/2013  12:06:00       89.104       58.538       28.470       56.050       35.925       42.477     3141.579     1290.616     1804.310        0.921        0.312      106.612       22.310        0.044      326.600       -8.448      864.792
12/08/2013  12:07:00       40.742       62.602        4.908       45.698       54.497       33.890     2088.326     2969.888     1148.518        0.590        0.310       74.692       26.412        0.125      326.824       -8.083      864.764
12/08/2013  12:08:00      106.819       68.436        2.587       43.219       37.701       34.357     1867.860     1421.400     1180.381        1.028        0.223      126.861       19.844        0.024      326.640       -8.382      864.754
12/08/2013  12:09:00       55.879       87.199        2.111       40.344       60.376       39.488     1627.646     3645.259     1559.295        0.878        0.342      103.567       33.738        0.106      326.740       -8.221      864.738
12/08/2013  12:10:00       27.477       53.937        9.913       56.023       44.340       36.987     3138.621     1966.067     1368.062        0.512        0.324       60.532       22.564        0.139      326.803       -8.118      864.731
12/08/2013  12:11:00       83.714       35.729       49.032       71.943       56.943       45.257     5175.833     3242.548     2048.157        1.058        0.523       91.020       35.294        0.150      327.095       -7.646      864.716
12/08/2013  12:12:00      132.030      116.661       89.846       71.723       49.656       49.212     5144.122     2465.693     2421.861        2.457        0.502      176.187       39.578        0.050      326.886       -7.986      864.707
12/08/2013  12:13:00       97.181       79.267       63.195       91.767       51.974       51.923     8421.091     2701.335     2696.047        1.677        0.691      125.409       47.976        0.146      326.897       -7.967      864.703
12/08/2013  12:14:00       59.370       67.568       27.498       59.399       46.403       43.408     3528.267     2153.212     1884.282        0.820        0.378       89.946       32.811        0.133      326.941       -7.893      864.702
12/08/2013  12:15:00      104.335       57.749       24.023       65.835       41.777       38.404     4334.199     1745.323     1474.848        1.117        0.378      119.251       24.422        0.042      327.050       -7.718      864.700
12/08/2013  12:16:00       76.420      116.217       97.376       84.382       48.935       63.953     7120.387     2394.604     4090.004        2.121        0.680      139.091       65.306        0.220      327.070       -7.687      864.691
12/08/2013  12:17:00       15.824       32.746       68.360       61.856       83.458       67.987     3826.207     6965.164     4622.210        1.070        0.771       36.369       67.061        3.400      327.113       -7.616      864.685
12/08/2013  12:18:00       28.289       12.215       55.160       44.920       42.581       36.950     2017.775     1813.137     1365.299        0.459        0.260       30.814       32.855        1.137      327.236       -7.414      864.684
12/08/2013  12:19:00       33.670      -81.110        2.345       32.442       87.529       34.790     1052.491     7661.313     1210.358        0.882        0.496       87.820       27.604        0.099      326.790       -8.139      864.676
12/08/2013  12:20:00      140.038       79.545       30.801       51.265       48.105       38.493     2628.097     2314.105     1481.713        1.665        0.321      161.053       12.360        0.006      326.652       -8.363      864.679
12/08/2013  12:21:00       -7.487       16.358       17.298       35.169       36.065       37.072     1236.834     1300.708     1374.308        0.227        0.196       17.990       22.891        1.619      326.921       -7.926      864.677
12/08/2013  12:22:00       14.101       44.729       43.015       39.237       48.925       37.506     1539.512     2393.615     1406.666        0.469        0.267       46.899       27.493        0.344      327.204       -7.466      864.664
12/08/2013  12:23:00      113.900       80.667       32.262       66.566       49.784       45.755     4431.069     2478.445     2093.540        1.476        0.450      139.572       38.072        0.074      326.956       -7.871      864.659
12/08/2013  12:24:00       53.346       68.574       74.074       59.109       56.715       54.287     3493.886     3216.567     2947.117        1.134        0.483       86.881       48.786        0.315      327.285       -7.335      864.662
12/08/2013  12:25:00       80.623      113.950      105.331       59.799       72.992       47.913     3575.895     5327.890     2295.638        2.089        0.560      139.587       39.363        0.080      327.013       -7.777      864.666
12/08/2013  12:26:00       79.381      134.693      113.837       62.880       55.723       55.325     3953.851     3105.024     3060.826        2.376        0.506      156.344       47.255        0.091      326.802       -8.119      864.658
12/08/2013  12:27:00      109.212      118.822       74.871       73.524       53.793       71.442     5405.813     2893.705     5104.031        2.252        0.670      161.387       60.464        0.140      326.777       -8.162      864.648
12/08/2013  12:28:00       94.121       20.334       36.631       62.954       52.494       55.299     3963.266     2755.586     3057.983        1.019        0.489       96.292       46.847        0.237      326.947       -7.884      864.629
12/08/2013  12:29:00       47.203       55.624       81.603       53.465       52.645       42.770     2858.544     2771.467     1829.310        0.972        0.373       72.953       42.763        0.344      326.921       -7.926      864.617
12/08/2013  12:30:00       73.791       45.669       40.325       62.058       48.665       39.604     3851.196     2368.326     1568.471        0.847        0.389       86.780       35.263        0.165      327.020       -7.766      864.587
12/08/2013  12:31:00       80.725      103.906       87.763       77.332       81.249       66.424     5980.195     6601.441     4412.082        2.100        0.850      131.578       64.750        0.242      327.066       -7.693      864.575
12/08/2013  12:32:00       39.259       52.339       70.041       46.712       36.537       33.547     2181.994     1334.965     1125.425        0.691        0.232       65.426       21.395        0.107      327.051       -7.714      864.577
12/08/2013  12:33:00      140.868       89.432       59.513       59.329       53.822       55.430     3519.933     2896.818     3072.456        2.043        0.474      166.859       50.000        0.090      326.976       -7.836      864.558
12/08/2013  12:34:00       74.871       52.625       20.615       42.252       39.695       42.992     1785.211     1575.698     1848.344        0.700        0.260       91.515       26.621        0.085      326.845       -8.050      864.551
12/08/2013  12:35:00       62.087       45.200        7.726       31.410       23.498       29.127      986.589      552.173      848.383        0.417        0.119       76.797       17.373        0.051      326.887       -7.983      864.519
12/08/2013  12:36:00       53.701       89.449       44.063       49.338       44.149       38.841     2434.245     1949.168     1508.647        0.936        0.295      104.331       32.693        0.098      327.333       -7.257      864.502
12/08/2013  12:37:00       84.140       82.821       69.579       55.850       47.461       54.537     3119.267     2252.590     2974.254        1.356        0.417      118.063       45.563        0.149      327.173       -7.518      864.501
12/08/2013  12:38:00       74.364       78.431       46.731       62.436       54.149       40.107     3898.220     2932.106     1608.563        1.115        0.422      108.081       39.955        0.137      327.236       -7.415      864.491
12/08/2013  12:39:00       75.450       39.907       13.238       61.441       38.810       39.143     3775.047     1506.232     1532.158        0.714        0.341       85.354       26.051        0.093      327.387       -7.171      864.487
12/08/2013  12:40:00       65.468       89.884       -8.587       55.190       37.070       35.540     3045.934     1374.172     1263.106        0.906        0.284      111.199       24.264        0.048      327.074       -7.678      864.469
12/08/2013  12:41:00      146.067      106.874       12.421       31.781       27.464       28.144     1010.043      754.254      792.111        1.773        0.128      180.991       17.622        0.009      326.788       -8.142      864.458
12/08/2013  12:42:00       63.702       89.330      -18.513       35.807       40.285       24.372     1282.154     1622.864      593.992        0.794        0.175      109.717       23.719        0.047      326.809       -8.108      864.467
12/08/2013  12:43:00       22.901      143.506       -3.000       42.055       76.428       46.453     1768.655     5841.166     2157.848        1.545        0.488      145.322       49.226        0.115      326.976       -7.839      864.453
12/08/2013  12:44:00        7.998      106.233       -2.769       28.865       67.583       32.234      833.203     4567.463     1039.039        0.890        0.322      106.534       35.958        0.114      327.066       -7.690      864.447
12/08/2013  12:45:00       54.849       84.183        8.075       54.092       50.166       33.209     2925.982     2516.615     1102.861        0.835        0.327      100.475       17.630        0.031      327.123       -7.598      864.450
12/08/2013  12:46:00       94.684      117.262      102.738       65.680       51.469       44.145     4313.847     2649.059     1948.825        2.109        0.446      150.716       28.476        0.036      327.073       -7.680      864.454
12/08/2013  12:47:00       93.353       92.695       78.800       46.146       54.004       34.521     2129.425     2916.435     1191.678        1.488        0.312      131.557       28.450        0.047      327.023       -7.763      864.459
12/08/2013  12:48:00       32.799       34.551       42.109       36.186       36.475       28.995     1309.411     1330.435      840.703        0.376        0.174       47.640       25.628        0.289      327.341       -7.244      864.486
12/08/2013  12:49:00       18.033       10.354       62.211       27.668       59.454       30.820      765.505     3534.744      949.861        0.478        0.263       20.794       29.742        2.046      327.435       -7.091      864.497
12/08/2013  12:50:00       12.150       57.197       73.670       41.060       47.535       31.854     1685.910     2259.534     1014.676        0.690        0.248       58.473       24.874        0.181      327.653       -6.737      864.489
12/08/2013  12:51:00       62.319      -43.381       26.768       42.986       47.519       28.269     1847.775     2258.069      799.154        0.569        0.245       75.931       29.613        0.152      327.134       -7.581      864.474
12/08/2013  12:52:00       78.293      -27.909       17.272       35.417       23.871       28.369     1254.331      569.806      804.825        0.492        0.131       83.118       15.090        0.033      327.081       -7.667      864.471
12/08/2013  12:53:00       59.487       73.215       89.214       63.201       46.727       42.464     3994.323     2183.379     1803.173        1.242        0.399       94.335       36.673        0.151      327.287       -7.332      864.458
12/08/2013  12:54:00       85.736       65.732       77.342       57.708       55.136       43.538     3330.173     3040.022     1895.577        1.296        0.413      108.035       35.694        0.109      327.163       -7.535      864.442
12/08/2013  12:55:00       59.383      105.409       90.259       56.532       52.066       39.372     3195.818     2710.904     1550.162        1.512        0.373      120.985       28.554        0.056      327.276       -7.352      864.435
12/08/2013  12:56:00       85.128       68.415       66.036       43.829       58.765       39.014     1920.956     3453.361     1522.091        1.159        0.345      109.212       33.763        0.096      327.096       -7.641      864.451
12/08/2013  12:57:00      114.024      -10.334       45.592       68.613       51.113       43.753     4707.781     2612.543     1914.294        1.221        0.462      114.491       42.692        0.139      327.028       -7.753      864.448
12/08/2013  12:58:00       62.593       62.558       77.714       73.226       75.374       56.422     5362.003     5681.192     3183.473        1.405        0.711       88.495       49.208        0.309      327.328       -7.267      864.415
12/08/2013  12:59:00       68.546       43.877       43.065       59.812       55.034       36.893     3577.497     3028.713     1361.062        0.822        0.398       81.386       26.664        0.107      327.444       -7.078      864.419
12/08/2013  13:00:00       77.272       65.110       57.421       53.435       38.880       48.988     2855.256     1511.622     2399.868        1.014        0.338      101.046       28.097        0.077      327.395       -7.156      864.437
12/08/2013  13:01:00       51.369       59.375       48.607       42.888       43.649       39.465     1839.382     1905.198     1557.495        0.691        0.265       78.512       23.223        0.087      327.547       -6.910      864.443
12/08/2013  13:02:00       79.822       42.917       21.866       69.280       45.136       35.925     4799.690     2037.269     1290.603        0.841        0.406       90.628       29.265        0.104      327.470       -7.034      864.447
12/08/2013  13:03:00       51.038       74.628       50.760       53.277       45.203       56.651     2838.470     2043.313     3209.354        0.942        0.405       90.411       42.611        0.222      327.558       -6.892      864.423
12/08/2013  13:04:00       39.406       97.426      133.711       74.972       73.674       51.726     5620.798     5427.792     2675.577        2.132        0.686      105.093       50.779        0.233      327.259       -7.380      864.402
12/08/2013  13:05:00      118.842      125.443      110.594       77.490       63.935       56.954     6004.673     4087.630     3243.731        2.771        0.667      172.799       50.088        0.084      327.213       -7.456      864.395
12/08/2013  13:06:00      118.533      108.507       71.948       77.177       52.862       52.482     5956.269     2794.396     2754.346        2.125        0.575      160.698       49.612        0.095      327.157       -7.545      864.414
12/08/2013  13:07:00       54.366       76.990       62.878       75.363       58.991       50.971     5679.524     3479.885     2598.016        1.229        0.588       94.250       38.746        0.169      327.421       -7.115      864.403
12/08/2013  13:08:00       30.794       96.190      108.237       49.183       53.784       48.186     2418.967     2892.671     2321.896        1.477        0.382      100.999       36.294        0.129      327.203       -7.468      864.386
12/08/2013  13:09:00       88.309       88.491      103.126       66.845       56.521       43.775     4468.263     3194.659     1916.282        1.792        0.479      125.017       38.611        0.095      327.273       -7.356      864.362
12/08/2013  13:10:00      103.520        9.573       13.896       78.102       88.476       61.353     6099.956     7828.022     3764.220        1.434        0.885      103.962       63.980        0.379      327.079       -7.671      864.345
12/08/2013  13:11:00       19.480      -77.426       18.025       38.282       69.545       41.476     1465.510     4836.559     1720.256        0.736        0.401       79.839       46.978        0.346      327.462       -7.049      864.321
12/08/2013  13:12:00       26.638      -13.716       32.360       38.126       44.436       32.878     1453.586     1974.519     1080.951        0.323        0.225       29.962       34.702        1.341      327.588       -6.843      864.323
12/08/2013  13:13:00       10.221       35.783       35.573       30.967       41.851       31.391      958.943     1751.494      985.421        0.317        0.185       37.214       27.589        0.550      327.645       -6.750      864.316
12/08/2013  13:14:00       18.973       12.150       26.108       35.912       47.250       29.986     1289.677     2232.555      899.178        0.280        0.221       22.530       24.595        1.192      327.687       -6.682      864.305
12/08/2013  13:15:00       84.800       95.658       72.790       72.244       44.792       42.975     5219.209     2006.314     1846.831        1.535        0.454      127.834       29.195        0.052      327.466       -7.042      864.289
12/08/2013  13:16:00       82.358       51.920       44.694       51.498       53.649       35.649     2652.024     2878.175     1270.855        0.914        0.340       97.358       29.767        0.093      327.306       -7.300      864.293
12/08/2013  13:17:00        4.427        1.318        3.088       23.206       29.696       18.167      538.504      881.851      330.023        0.089        0.088        4.619       10.148        4.827      327.483       -7.015      864.287
12/08/2013  13:18:00      -16.108      144.197      -23.436       20.655       28.953       24.137      426.627      838.250      582.582        1.172        0.092      145.094       14.857        0.010      327.098       -7.638      864.292
12/08/2013  13:19:00      -31.717      118.575      -15.738       50.914       66.872       25.676     2592.232     4471.863      659.233        1.152        0.386      122.743       23.761        0.037      327.186       -7.497      864.289
12/08/2013  13:20:00      -96.667       56.169       -6.313       69.284       46.653       33.491     4800.287     2176.492     1121.630        1.032        0.405      111.802       32.827        0.086      327.293       -7.322      864.264
12/08/2013  13:21:00       36.558      135.187       -9.869       52.628      109.639       52.203     2769.727    12020.678     2725.153        1.861        0.876      140.043       59.694        0.182      327.336       -7.255      864.253
12/08/2013  13:22:00       45.436      252.958      -27.324       54.625       85.497       52.096     2983.880     7309.766     2714.005        3.990        0.650      257.006       52.618        0.042      327.096       -7.646      864.227
12/08/2013  13:23:00       34.699      129.719      -20.287       68.504       79.735       44.017     4692.819     6357.746     1937.539        1.571        0.649      134.280       28.143        0.044      327.236       -7.416      864.208
12/08/2013  13:24:00       51.787       63.574       -1.374       58.670       57.443       32.920     3442.136     3299.668     1083.717        0.727        0.391       81.997       30.536        0.139      327.402       -7.145      864.218
12/08/2013  13:25:00       96.124       77.239        7.026       50.857       42.899       42.315     2586.476     1840.333     1790.553        1.073        0.311      123.311       22.372        0.033      327.172       -7.519      864.219
12/08/2013  13:26:00      108.661       82.494        5.296       43.167       45.639       38.479     1863.384     2082.955     1480.656        1.203        0.271      136.428       24.864        0.033      327.148       -7.558      864.234
12/08/2013  13:27:00       77.774       54.831       18.552       50.200       47.164       31.380     2520.052     2224.488      984.722        0.756        0.286       95.160       19.597        0.042      327.320       -7.278      864.242
12/08/2013  13:28:00       87.025       64.424       24.020       49.893       39.366       42.080     2489.292     1549.681     1770.702        0.905        0.290      108.276       15.748        0.021      327.248       -7.395      864.255
12/08/2013  13:29:00       -6.790       52.577       65.822       32.279       50.556       36.903     1041.928     2555.872     1361.806        0.605        0.248       53.014       24.110        0.207      327.528       -6.942      864.261
12/08/2013  13:30:00       91.835       88.942       -9.244       66.658       59.911       38.001     4443.262     3589.356     1444.103        1.295        0.474      127.845       32.442        0.064      327.268       -7.364      864.278
12/08/2013  13:31:00       14.945       45.516        0.097       21.461       30.596       23.969      460.587      936.111      574.528        0.213        0.099       47.907       20.241        0.179      327.377       -7.185      864.289
12/08/2013  13:32:00       21.827       36.760       23.401       25.117       21.981       22.688      630.879      483.179      514.752        0.200        0.081       42.752       17.791        0.173      327.460       -7.052      864.296
12/08/2013  13:33:00       71.905       93.760       44.889       73.561       31.665       45.604     5411.242     1002.684     2079.758        1.223        0.425      118.158       45.956        0.151      327.390       -7.165      864.303
12/08/2013  13:34:00      122.740       86.106       17.685       54.494       31.843       42.222     2969.584     1013.952     1782.661        1.428        0.288      149.931       22.601        0.023      327.342       -7.243      864.311
12/08/2013  13:35:00       17.161       56.118       26.433       38.466       38.128       31.835     1479.619     1453.773     1013.484        0.404        0.197       58.684       23.711        0.163      327.783       -6.526      864.303
12/08/2013  13:36:00       88.104       38.676       27.973       54.563       30.209       40.418     2977.090      912.595     1633.579        0.778        0.276       96.219       20.061        0.043      327.556       -6.895      864.289
12/08/2013  13:37:00       62.790       74.169       18.068       73.188       54.994       53.561     5356.434     3024.354     2868.751        1.051        0.562       97.178       33.162        0.116      327.475       -7.027      864.267
12/08/2013  13:38:00      211.809      112.219        3.256       67.448       56.404       47.548     4549.259     3181.411     2260.860        3.373        0.500      239.700       30.223        0.016      327.130       -7.591      864.263
12/08/2013  13:39:00      137.032       81.372       -4.538       73.669       57.627       37.984     5427.192     3320.925     1442.820        1.780        0.510      159.372       27.281        0.029      327.113       -7.616      864.272
12/08/2013  13:40:00      108.576       86.623       28.864       77.964       45.681       48.190     6078.316     2086.756     2322.285        1.530        0.524      138.897       39.468        0.081      327.232       -7.423      864.286
12/08/2013  13:41:00       76.228       65.445       26.188       76.243       75.443       46.611     5812.924     5691.592     2172.563        1.223        0.684      100.468       28.972        0.083      327.239       -7.411      864.300
12/08/2013  13:42:00       17.335       61.707       72.162       57.780       52.962       44.114     3338.526     2805.002     1946.069        0.870        0.404       64.096       38.357        0.358      327.578       -6.859      864.290
12/08/2013  13:43:00       -7.933       50.227       80.374       17.619       34.998       22.182      310.424     1224.849      492.043        0.554        0.101       50.850       19.632        0.149      327.573       -6.867      864.297
12/08/2013  13:44:00       29.536      110.746        0.853       27.276       69.647       39.726      743.977     4850.765     1578.117        1.015        0.359      114.617       44.492        0.151      327.211       -7.456      864.320
12/08/2013  13:45:00       41.644       71.550       -6.017       37.648       67.589       31.245     1417.358     4568.215      976.252        0.692        0.348       82.787       36.818        0.198      327.301       -7.310      864.336
12/08/2013  13:46:00      213.039      120.365       27.397      107.244       86.288       58.221    11501.288     7445.612     3389.725        4.148        1.117      244.690       44.380        0.033      327.282       -7.345      864.311
12/08/2013  13:47:00      152.322      109.348        6.969      112.845       65.668       48.621    12734.032     4312.242     2364.049        2.731        0.971      187.507       21.429        0.013      327.255       -7.387      864.318
12/08/2013  13:48:00       35.351       70.261       -4.860       51.413       74.152       34.476     2643.291     5498.485     1188.596        0.777        0.467       78.653       42.640        0.294      327.468       -7.039      864.335
12/08/2013  13:49:00        2.908       91.827      -17.752       62.614       72.300       43.444     3920.567     5227.302     1887.404        0.989        0.552       91.873       32.218        0.123      327.413       -7.128      864.336
12/08/2013  13:50:00       59.652       69.369        9.553       56.228       56.617       41.764     3161.542     3205.497     1744.264        0.828        0.406       91.490       34.963        0.146      327.449       -7.068      864.343
12/08/2013  13:51:00        4.537      106.926      -12.641       30.551       58.782       25.260      933.363     3455.279      638.047        0.832        0.251      107.023       24.163        0.051      327.218       -7.444      864.346
12/08/2013  13:52:00       21.535       37.383       -3.912       26.400       26.953       19.845      696.980      726.472      393.826        0.185        0.091       43.142       12.918        0.090      327.361       -7.213      864.307
12/08/2013  13:53:00       45.020       48.685        9.877       32.802       34.452       29.560     1075.992     1186.941      873.792        0.382        0.157       66.310       15.457        0.054      327.528       -6.940      864.275
12/08/2013  13:54:00       33.858       73.384       -2.276       48.243       46.778       36.564     2327.400     2188.142     1336.951        0.619        0.293       80.818       32.464        0.161      327.378       -7.184      864.261
12/08/2013  13:55:00       60.482      124.050       -6.838       43.777       61.538       43.580     1916.427     3786.956     1899.256        1.335        0.380      138.009       37.936        0.076      327.270       -7.360      864.254
12/08/2013  13:56:00       24.477      144.230      -16.524       44.972       54.838       36.875     2022.509     3007.210     1359.782        1.403        0.319      146.292       33.476        0.052      327.247       -7.397      864.255
12/08/2013  13:57:00        1.685      137.576      -26.111       24.117       46.299       17.614      581.612     2143.636      310.255        1.132        0.152      137.586       14.109        0.011      327.037       -7.738      864.264
12/08/2013  13:58:00      -63.755       61.597       -8.535       30.786       45.489       33.757      947.773     2069.265     1139.552        0.604        0.208       88.650       30.355        0.117      327.456       -7.057      864.265
12/08/2013  13:59:00       -8.455       35.735       21.919       47.561       29.871       24.413     2262.092      892.250      595.988        0.279        0.188       36.721       26.728        0.530      327.720       -6.628      864.270
12/08/2013  14:00:00       82.954       73.622       -2.530       58.766       38.446       30.218     3453.497     1478.101      913.106        0.908        0.292      110.912       18.140        0.027      327.245       -7.400      864.269
12/08/2013  14:01:00       45.953       56.235       -3.183       55.949       34.184       29.717     3130.345     1168.565      883.097        0.523        0.259       72.623       30.244        0.173      327.196       -7.482      864.263
12/08/2013  14:02:00       -4.709       13.572       10.200       20.415       22.451       19.819      416.763      504.046      392.785        0.081        0.066       14.365       17.871        1.548      327.327       -7.268      864.231
12/08/2013  14:03:00       21.082       33.158       -2.219       26.602       44.880       19.372      707.661     2014.205      375.265        0.232        0.155       39.293       23.411        0.355      327.419       -7.118      864.226
12/08/2013  14:04:00       44.516      105.838      -10.183       45.727       37.726       30.194     2090.994     1423.251      911.680        0.886        0.221      114.819       23.391        0.042      327.370       -7.197      864.230
12/08/2013  14:05:00       72.214       60.079       -8.747       43.189       44.032       25.956     1865.256     1938.788      673.736        0.669        0.224       93.938       22.970        0.060      327.256       -7.383      864.226
12/08/2013  14:06:00       53.243      110.442      -17.379       24.609       55.441       23.136      605.584     3073.714      535.260        0.977        0.211      122.606       12.952        0.011      327.163       -7.535      864.221
12/08/2013  14:07:00       11.864       73.426       -7.116       23.791       28.013       22.959      566.020      784.715      527.127        0.373        0.094       74.378       14.455        0.038      327.267       -7.364      864.227
12/08/2013  14:08:00        4.758       51.522       -6.174       13.222       24.200       19.031      174.810      585.617      362.172        0.192        0.056       51.741       11.535        0.050      327.332       -7.258      864.225
12/08/2013  14:09:00        2.470        1.476       -3.376        6.044       16.128       14.451       36.530      260.105      208.818        0.026        0.025        2.878        8.732        9.208      327.496       -6.993      864.224
12/08/2013  14:10:00       45.796       46.849       36.606       34.885       29.716       29.148     1216.968      883.025      849.599        0.429        0.147       65.514       19.671        0.090      327.440       -7.084      864.213
12/08/2013  14:11:00       63.947       68.437       56.427       31.123       20.520       26.001      968.616      421.076      676.029        0.701        0.103       93.663       15.189        0.026      327.365       -7.205      864.213
12/08/2013  14:12:00      -11.678       63.332       92.266       28.546       49.514       41.447      814.852     2451.616     1717.823        0.882        0.249       64.399       38.896        0.365      327.756       -6.570      864.205
12/08/2013  14:13:00       83.055      100.013      105.598       66.903       50.924       35.934     4476.039     2593.224     1291.218        1.820        0.418      130.003       28.171        0.047      327.366       -7.204      864.218
12/08/2013  14:14:00      115.338      106.350       75.737       52.440       49.180       50.897     2749.915     2418.712     2590.479        1.905        0.388      156.886       43.508        0.077      327.327       -7.268      864.226
12/08/2013  14:15:00      114.061       74.536       40.119       31.843       36.944       28.614     1013.969     1364.852      818.747        1.169        0.160      136.255       13.634        0.010      327.201       -7.471      864.225
12/08/2013  14:16:00       50.254       45.079       55.271       52.696       40.305       21.086     2776.903     1624.504      444.626        0.623        0.242       67.510       16.573        0.060      327.630       -6.775      864.218
12/08/2013  14:17:00       13.150       10.191       27.193       44.653       46.869       32.639     1993.883     2196.700     1065.273        0.314        0.263       16.637       27.496        2.731      327.804       -6.492      864.227
12/08/2013  14:18:00       23.121       30.966       33.880       45.003       46.347       20.897     2025.264     2148.021      436.686        0.362        0.230       38.646       12.765        0.109      327.641       -6.757      864.232
12/08/2013  14:19:00       18.426       -9.200       26.188       32.244       53.245       26.244     1039.644     2835.058      688.761        0.284        0.228       20.596       19.401        0.887      327.767       -6.553      864.232
12/08/2013  14:20:00       63.654      -87.152        9.615       51.356       59.680       29.232     2637.477     3561.730      854.528        0.940        0.353      107.922       28.817        0.071      327.594       -6.834      864.226
12/08/2013  14:21:00       15.557      -26.023       21.315       19.034       38.810       23.450      362.295     1506.182      549.887        0.190        0.121       30.318       17.245        0.324      327.851       -6.415      864.207
12/08/2013  14:22:00       16.272        0.206       31.903       20.858       30.236       23.612      435.039      914.198      557.532        0.159        0.095       16.273       17.980        1.221      328.002       -6.170      864.202
12/08/2013  14:23:00       28.546       32.015       22.729       25.688       36.182       32.738      659.876     1309.154     1071.781        0.270        0.152       42.893       21.874        0.260      327.846       -6.423      864.210
12/08/2013  14:24:00      -13.751      114.314      -19.516       45.367       50.702       25.837     2058.166     2570.647      667.568        0.947        0.265      115.138       17.725        0.024      327.406       -7.140      864.228
12/08/2013  14:25:00       -8.495      168.397      -22.757       21.080       39.868       19.700      444.356     1589.443      388.074        1.568        0.121      168.611       21.162        0.016      327.318       -7.282      864.236
12/08/2013  14:26:00      -53.303      103.340       -7.634       32.485       53.508       26.005     1055.290     2863.141      676.239        0.909        0.230      116.277       28.387        0.060      327.533       -6.933      864.263
12/08/2013  14:27:00      -24.936      100.880      -16.577       33.699       21.398       18.393     1135.642      457.861      338.287        0.650        0.097      103.916       13.664        0.017      327.495       -6.995      864.272
12/08/2013  14:28:00       49.173       45.566       19.402       35.390       29.545       37.454     1252.479      872.884     1402.790        0.420        0.176       67.039       10.712        0.026      327.751       -6.579      864.277
12/08/2013  14:29:00       72.801       70.089       35.723       60.364       43.754       50.622     3643.771     1914.427     2562.575        0.980        0.406      101.056       43.848        0.188      327.568       -6.877      864.269
12/08/2013  14:30:00       51.592       79.584       77.265       64.090       46.925       39.459     4107.571     2201.997     1557.029        1.141        0.393       94.844       40.379        0.181      327.585       -6.847      864.271
12/08/2013  14:31:00        5.196       75.539       85.452       38.088       32.553       33.208     1450.660     1059.666     1102.754        0.832        0.181       75.718       25.189        0.111      327.571       -6.870      864.276
12/08/2013  14:32:00       24.311       50.528       28.409       46.208       70.983       37.486     2135.178     5038.641     1405.194        0.626        0.429       56.072       42.491        0.574      327.777       -6.535      864.273
12/08/2013  14:33:00       77.712       95.334       -2.978       57.111       46.446       33.897     3261.695     2157.267     1148.986        1.085        0.328      122.995       25.911        0.044      327.403       -7.144      864.288
12/08/2013  14:34:00       34.552       73.192       -5.410       35.841       45.779       23.153     1284.573     2095.676      536.046        0.525        0.196       80.938       12.084        0.022      327.485       -7.010      864.297
12/08/2013  14:35:00       21.708       40.929       13.564       28.549       51.113       32.252      815.022     2612.494     1040.215        0.340        0.223       46.329       31.115        0.451      327.712       -6.641      864.318
12/08/2013  14:36:00      -20.453      139.841      -19.906       27.856       64.328       25.503      775.978     4138.112      650.418        1.297        0.278      141.328       29.119        0.042      327.432       -7.096      864.346
12/08/2013  14:37:00      -31.086      123.957      -13.151       36.883       55.928       29.352     1360.353     3127.922      861.558        1.093        0.267      127.795       30.304        0.056      327.509       -6.972      864.351
12/08/2013  14:38:00      -14.082       84.844        0.582       65.792       56.483       41.583     4328.525     3190.298     1729.107        0.832        0.462       86.005       40.740        0.224      327.647       -6.746      864.354
12/08/2013  14:39:00       13.403       51.171       -0.365       27.851       48.507       22.204      775.686     2352.931      493.017        0.321        0.181       52.897       16.620        0.099      327.601       -6.822      864.357
12/08/2013  14:40:00      -83.219       92.255      -24.117       36.446       39.815       23.469     1328.284     1585.269      550.811        0.974        0.173      124.244       24.053        0.037      327.555       -6.896      864.366
12/08/2013  14:41:00      -49.655       83.551      -10.671       37.586       40.862       27.692     1412.713     1669.704      766.840        0.670        0.192       97.192       30.196        0.097      327.669       -6.712      864.385
12/08/2013  14:42:00        5.655      125.349      -11.632       16.243       29.876       19.979      263.824      892.596      399.163        0.872        0.078      125.476       16.506        0.017      327.451       -7.067      864.412
12/08/2013  14:43:00       -4.098       81.512      -10.384       13.203       38.295       13.321      174.323     1466.518      177.459        0.429        0.091       81.615       12.954        0.025      327.349       -7.231      864.437
12/08/2013  14:44:00        6.297       90.558       -9.466       21.807       44.439       19.642      475.526     1974.830      385.819        0.558        0.142       90.777       14.567        0.026      327.418       -7.119      864.456
12/08/2013  14:45:00       14.718       67.828        2.949       29.383       49.526       23.782      863.363     2452.810      565.567        0.435        0.194       69.406       29.005        0.175      327.463       -7.046      864.470
12/08/2013  14:46:00      -17.674       63.673      -16.032       15.785       26.789       11.131      249.152      717.655      123.909        0.286        0.055       66.081        8.412        0.016      327.339       -7.247      864.495
12/08/2013  14:47:00       19.804       59.018        8.687       42.640       47.206       25.468     1818.207     2228.435      648.599        0.432        0.235       62.252       31.062        0.249      327.563       -6.884      864.516
12/08/2013  14:48:00       58.377       85.535        2.251       51.241       58.710       39.595     2625.663     3446.910     1567.798        0.918        0.382      103.557       38.620        0.139      327.487       -7.007      864.539
12/08/2013  14:49:00       58.950      167.552      -16.594       52.080       76.963       43.251     2712.306     5923.243     1870.655        2.116        0.525      177.620       43.191        0.059      327.461       -7.051      864.552
12/08/2013  14:50:00       40.120      157.575       -9.488       44.097       89.971       47.717     1944.576     8094.706     2276.955        1.942        0.616      162.603       53.726        0.109      327.473       -7.032      864.558
12/08/2013  14:51:00      128.857       98.167       -1.714       67.145       67.258       36.981     4508.395     4523.623     1367.619        1.832        0.520      161.990       36.053        0.050      327.561       -6.889      864.548
12/08/2013  14:52:00       35.956      171.339      -24.708       28.422       38.228       30.129      807.806     1461.415      907.759        1.722        0.159      175.071       25.081        0.021      327.306       -7.302      864.535
12/08/2013  14:53:00      106.846       87.443        9.574       64.177       40.867       43.378     4118.632     1670.081     1881.658        1.341        0.384      138.066       23.714        0.029      327.423       -7.112      864.514
12/08/2013  14:54:00      133.793       73.355        4.652       41.485       35.425       34.695     1720.993     1254.897     1203.736        1.374        0.209      152.583       13.995        0.008      327.390       -7.167      864.505
12/08/2013  14:55:00      136.681       66.676       -5.427       55.287       34.365       34.136     3056.681     1180.959     1165.297        1.428        0.270      152.077       13.570        0.008      327.424       -7.110      864.502
12/08/2013  14:56:00       69.722       45.397       15.107       50.397       19.838       25.898     2539.874      393.531      670.718        0.538        0.180       83.199       17.265        0.043      327.511       -6.969      864.508
12/08/2013  14:57:00       25.277       77.345       -7.322       36.062       36.963       17.119     1300.472     1366.293      293.065        0.482        0.148       81.371       17.461        0.046      327.534       -6.932      864.526
12/08/2013  14:58:00       14.002      178.560      -17.473       41.508       58.226       30.528     1722.940     3390.244      931.957        1.921        0.302      179.108       29.224        0.027      327.450       -7.068      864.542
12/08/2013  14:59:00       65.321       99.117       -0.530       80.265       52.595       35.957     6442.397     2766.200     1292.904        1.229        0.525      118.706       13.655        0.013      327.549       -6.907      864.557
12/08/2013  15:00:00       55.730       34.869       -4.985       37.670       33.677       27.699     1419.002     1134.121      767.227        0.383        0.166       65.740       22.001        0.112      327.529       -6.938      864.570
12/08/2013  15:01:00        9.430       76.200        1.682       34.184       46.792       29.198     1168.541     2189.488      852.536        0.505        0.211       76.782       29.805        0.151      327.456       -7.058      864.581
12/08/2013  15:02:00       51.012       90.919       -5.486       41.765       62.479       35.800     1744.299     3903.637     1281.648        0.891        0.346      104.252       26.734        0.066      327.402       -7.146      864.592
12/08/2013  15:03:00       24.107      126.204      -15.549       35.837       77.462       37.066     1284.265     6000.322     1373.855        1.270        0.433      128.486       40.069        0.097      327.369       -7.201      864.596
12/08/2013  15:04:00       35.207       73.755        2.612       38.262       32.875       26.951     1463.944     1080.751      726.363        0.498        0.164       81.727       22.545        0.076      327.461       -7.050      864.593
12/08/2013  15:05:00       23.264       61.470        8.132       46.231       43.511       30.826     2137.350     1893.200      950.269        0.468        0.249       65.725       28.781        0.192      327.568       -6.875      864.588
12/08/2013  15:06:00       21.827       64.861        3.666       27.654       38.974       26.956      764.755     1518.958      726.631        0.385        0.151       68.435       21.009        0.094      327.539       -6.924      864.585
12/08/2013  15:07:00      111.634       58.401       10.212       64.554       36.903       32.338     4167.223     1361.858     1045.758        1.127        0.329      125.987       15.315        0.015      327.410       -7.133      864.577
12/08/2013  15:08:00       60.553       71.376        1.273       49.171       42.013       35.643     2417.782     1765.123     1270.390        0.711        0.273       93.601       32.693        0.122      327.432       -7.097      864.564
12/08/2013  15:09:00       54.879       50.328        8.463       70.201       35.361       27.856     4928.114     1250.433      775.983        0.628        0.348       74.463       16.969        0.052      327.439       -7.085      864.549
12/08/2013  15:10:00       14.491      137.708      -20.511       19.733       39.012       22.707      389.386     1521.965      515.588        1.101        0.121      138.468       20.682        0.022      327.401       -7.148      864.556
12/08/2013  15:11:00       22.705       54.606       -0.799       47.072       50.470       38.113     2215.738     2547.172     1452.595        0.486        0.311       59.138       33.207        0.315      327.507       -6.974      864.564
12/08/2013  15:12:00       12.048      149.722      -22.597       33.335       35.209       24.634     1111.210     1239.657      606.836        1.301        0.148      150.206       18.809        0.016      327.460       -7.052      864.563
12/08/2013  15:13:00       -2.493      112.070       -9.954       36.512       51.879       23.500     1333.096     2691.431      552.228        0.862        0.229      112.098       24.105        0.046      327.470       -7.035      864.561
12/08/2013  15:14:00      -20.036       70.766        6.621       36.776       45.750       24.186     1352.469     2093.040      584.974        0.474        0.202       73.548       19.124        0.068      327.696       -6.665      864.552
12/08/2013  15:15:00      -58.331       56.109       -5.104       21.298       31.384       19.076      453.613      984.965      363.905        0.419        0.090       80.936       15.845        0.038      327.698       -6.663      864.544
12/08/2013  15:16:00      -22.553       32.343        5.011       32.981       41.665       24.593     1087.751     1735.933      604.806        0.250        0.171       39.429       26.310        0.445      327.683       -6.689      864.536
12/08/2013  15:17:00       -8.377       46.063        2.147       24.735       39.113       21.571      611.832     1529.852      465.327        0.240        0.130       46.818       22.406        0.229      327.720       -6.628      864.542
12/08/2013  15:18:00       -0.081      104.740        2.853       44.545       61.358       35.310     1984.237     3764.816     1246.774        0.899        0.350      104.740       42.625        0.166      327.518       -6.956      864.543
12/08/2013  15:19:00       -3.043      162.414      -21.956       28.333       51.446       19.246      802.732     2646.721      370.422        1.534        0.191      162.443       17.246        0.011      327.405       -7.141      864.541
12/08/2013  15:20:00       12.858      100.668      -12.545       32.433       42.197       22.685     1051.905     1780.581      514.626        0.690        0.167      101.486       20.570        0.041      327.496       -6.993      864.531
12/08/2013  15:21:00       27.887       61.223        6.790       36.006       35.420       37.967     1296.463     1254.578     1441.499        0.428        0.200       67.275       28.937        0.185      327.524       -6.948      864.526
12/08/2013  15:22:00       73.999       42.503        3.542       34.541       31.170       29.289     1193.060      971.569      857.831        0.516        0.151       85.337       20.657        0.059      327.619       -6.794      864.532
12/08/2013  15:23:00      109.892       72.047       16.550       44.450       40.365       34.273     1975.797     1629.297     1174.649        1.116        0.239      131.404       28.372        0.047      327.484       -7.013      864.545
12/08/2013  15:24:00       79.647       72.781       12.069       33.232       33.670       27.040     1104.388     1133.651      731.147        0.738        0.148      107.893       18.348        0.029      327.400       -7.149      864.549
12/08/2013  15:25:00       87.115       57.768       27.246       26.605       14.253       20.773      707.830      203.146      431.521        0.651        0.067      104.528        7.058        0.005      327.390       -7.165      864.527
12/08/2013  15:26:00       38.109       17.028       13.944       29.998       29.154       16.905      899.890      849.967      285.782        0.199        0.102       41.740       10.767        0.067      327.550       -6.906      864.513
12/08/2013  15:27:00       21.470      -46.661       -4.325       23.012       19.629       17.772      529.545      385.302      315.842        0.194        0.062       51.364       10.794        0.044      327.428       -7.104      864.505
12/08/2013  15:28:00        6.632      -19.708       -5.611       15.178        9.519       16.246      230.371       90.614      263.937        0.052        0.029       20.794       11.457        0.304      327.529       -6.939      864.510
12/08/2013  15:29:00       -2.473       11.205        7.052       11.235       12.584       12.826      126.223      158.353      164.502        0.032        0.022       11.474        8.740        0.580      327.706       -6.652      864.514
12/08/2013  15:30:00       40.183       26.317       22.599       17.145       15.018       15.797      293.963      225.539      249.536        0.179        0.038       48.034       10.894        0.051      327.507       -6.976      864.509
12/08/2013  15:31:00       18.530        9.168       11.100       26.647       14.161       13.287      710.069      200.542      176.544        0.082        0.054       20.674       15.689        0.576      327.770       -6.546      864.497
12/08/2013  15:32:00       22.506       23.930       23.023       19.068       19.418       13.121      363.591      377.048      172.166        0.126        0.046       32.851       10.167        0.096      327.755       -6.571      864.480
12/08/2013  15:33:00       37.953       27.598       17.321       24.292       14.765       14.405      590.106      218.010      207.516        0.176        0.051       46.926        5.922        0.016      327.712       -6.641      864.468
12/08/2013  15:34:00       17.394        8.490       16.769       31.692       36.744       26.724     1004.351     1350.117      714.154        0.186        0.153       19.355       14.257        0.543      327.728       -6.615      864.482
12/08/2013  15:35:00       18.587       47.629       59.205       27.065       34.079       21.961      732.489     1161.353      482.273        0.425        0.119       51.127       14.159        0.077      327.751       -6.577      864.500
12/08/2013  15:36:00       24.254       46.618       21.522       30.585       34.483       21.265      935.419     1189.097      452.208        0.290        0.129       52.550       16.977        0.104      327.716       -6.636      864.517
12/08/2013  15:37:00       44.128       37.411       22.842       45.523       30.705       19.183     2072.324      942.791      367.986        0.363        0.169       57.852       16.473        0.081      327.712       -6.642      864.531
12/08/2013  15:38:00       36.897       73.534       -5.559       39.648       78.334       31.063     1571.948     6136.225      964.899        0.773        0.434       82.272       39.961        0.236      327.531       -6.937      864.546
12/08/2013  15:39:00       54.501       47.795       -4.659       27.363       41.462       26.028      748.727     1719.083      677.457        0.421        0.157       72.490       26.137        0.130      327.410       -7.133      864.565
12/08/2013  15:40:00       45.925       78.755       -1.853       35.273       37.742       29.085     1244.195     1424.429      845.928        0.591        0.176       91.167       19.787        0.047      327.419       -7.118      864.568
12/08/2013  15:41:00       55.047       80.524       -4.573       42.646       58.418       24.533     1818.723     3412.674      601.846        0.768        0.292       97.541       26.414        0.073      327.481       -7.017      864.561
12/08/2013  15:42:00       42.609       66.351      -11.529       41.561       47.286       28.202     1727.324     2235.926      795.339        0.555        0.238       78.854       21.663        0.075      327.506       -6.976      864.552
12/08/2013  15:43:00       19.371       61.490       -8.322       29.589       44.710       23.740      875.493     1999.023      563.583        0.383        0.172       64.469       26.813        0.173      327.536       -6.929      864.547
12/08/2013  15:44:00       33.661       47.240       -3.649       40.676       41.518       20.851     1654.544     1723.709      434.766        0.359        0.191       58.006       16.837        0.084      327.572       -6.868      864.554
12/08/2013  15:45:00        8.480       83.320        0.033       41.533       42.948       27.879     1724.992     1844.531      777.264        0.568        0.217       83.750       25.140        0.090      327.541       -6.919      864.576
12/08/2013  15:46:00       15.321      132.135      -16.514       34.309       32.427       25.217     1177.085     1051.498      635.886        1.042        0.143      133.020       21.710        0.027      327.504       -6.978      864.602
12/08/2013  15:47:00       -7.907       72.886       -8.958       41.037       39.545       19.278     1684.027     1563.806      371.644        0.454        0.181       73.314       16.590        0.051      327.751       -6.580      864.622
12/08/2013  15:48:00      -22.447       80.164       -9.000       41.353       46.048       17.502     1710.089     2120.380      306.329        0.557        0.207       83.247       17.053        0.042      327.736       -6.603      864.646
12/08/2013  15:49:00      -45.703      142.046      -19.618       23.788       30.243       18.251      565.872      914.615      333.112        1.223        0.091      149.217       17.881        0.014      327.433       -7.096      864.679
12/08/2013  15:50:00      -28.497      120.645      -13.570       26.702       31.595       19.405      713.002      998.266      376.551        0.882        0.104      123.965       14.640        0.014      327.548       -6.909      864.705
12/08/2013  15:51:00       -4.368       95.689       -8.631       24.471       50.069       22.371      598.819     2506.860      500.447        0.643        0.180       95.788       23.850        0.062      327.529       -6.939      864.728
12/08/2013  15:52:00        6.744      111.596      -13.265       16.269       35.577       18.024      264.686     1265.728      324.860        0.726        0.093      111.799       21.176        0.036      327.435       -7.093      864.737
12/08/2013  15:53:00        0.114       26.984        3.086       22.795       18.593       14.380      519.621      345.703      206.794        0.090        0.054       26.984       10.553        0.153      327.664       -6.718      864.751
12/08/2013  15:54:00       14.845       62.208       -7.564       16.981       23.339       18.437      288.352      544.692      339.929        0.266        0.059       63.955       13.689        0.046      327.563       -6.884      864.763
12/08/2013  15:55:00       30.769      105.347       -9.652       22.121       45.800       18.856      489.319     2097.630      355.550        0.754        0.147      109.749       21.248        0.037      327.441       -7.081      864.773
12/08/2013  15:56:00        8.680       51.281        4.247       27.246       38.721       19.930      742.347     1499.308      397.197        0.268        0.132       52.010       18.086        0.121      327.510       -6.970      864.794
12/08/2013  15:57:00       35.408       66.278       -6.036       22.925       31.823       26.908      525.551     1012.711      724.046        0.397        0.113       75.143       25.254        0.113      327.440       -7.085      864.825
12/08/2013  15:58:00      116.378       64.093       11.562       54.106       31.101       33.264     2927.486      967.265     1106.475        1.139        0.250      132.859       19.699        0.022      327.398       -7.152      864.843
12/08/2013  15:59:00       67.069       71.006        3.939       40.059       49.700       33.760     1604.690     2470.126     1139.759        0.738        0.261       97.674       29.380        0.090      327.428       -7.103      864.853
12/08/2013  16:00:00       23.537      115.683      -11.278       29.613       47.868       24.337      876.948     2291.331      592.267        0.891        0.188      118.053       26.036        0.049      327.408       -7.136      864.837
12/08/2013  16:01:00       32.555      133.369      -18.697       25.800       30.142       23.456      665.658      908.543      550.191        1.066        0.106      137.285       16.854        0.015      327.371       -7.196      864.817
12/08/2013  16:02:00       52.148       59.234       -0.158       35.511       35.311       27.982     1261.027     1246.864      782.985        0.476        0.165       78.918       18.914        0.057      327.409       -7.133      864.807
12/08/2013  16:03:00       56.580       49.147       12.367       47.707       44.159       32.809     2275.990     1949.993     1076.445        0.553        0.265       74.945       27.633        0.136      327.390       -7.165      864.782
12/08/2013  16:04:00       35.380       86.686       -9.619       35.090       34.390       29.866     1231.296     1182.668      891.974        0.608        0.165       93.628       22.071        0.056      327.343       -7.241      864.791
12/08/2013  16:05:00       32.457       71.776        0.247       41.704       41.225       36.496     1739.198     1699.460     1331.981        0.549        0.239       78.774       32.659        0.172      327.344       -7.242      864.797
12/08/2013  16:06:00       24.760       59.226       -7.488       32.212       46.646       23.999     1037.641     2175.843      575.929        0.398        0.189       64.194       25.871        0.162      327.366       -7.204      864.815
12/08/2013  16:07:00       17.231       62.185      -12.214       20.356       23.962       17.797      414.378      574.174      316.721        0.281        0.065       64.528        7.407        0.013      327.375       -7.190      864.803
12/08/2013  16:08:00       28.101       75.189       -4.320       34.767       37.292       23.157     1208.722     1390.673      536.254        0.480        0.157       80.268       18.846        0.055      327.347       -7.234      864.776
12/08/2013  16:09:00       -0.485       46.153        2.066       17.623       27.503       17.898      310.574      756.412      320.353        0.176        0.069       46.156       10.077        0.048      327.472       -7.031      864.732
12/08/2013  16:10:00       22.342      110.204      -10.366       28.396       38.327       25.058      806.324     1468.943      627.926        0.783        0.145      112.446       25.692        0.052      327.254       -7.386      864.707
12/08/2013  16:11:00       14.905       81.075        0.392       30.852       36.486       25.776      951.840     1331.229      664.425        0.487        0.147       82.434       24.870        0.091      327.234       -7.417      864.700
12/08/2013  16:12:00       26.049       53.516       -3.309       27.453       25.563       24.290      753.673      653.474      590.020        0.277        0.100       59.519       15.708        0.070      327.190       -7.489      864.690
12/08/2013  16:13:00       39.192       63.609       -8.317       29.973       39.192       19.091      898.378     1536.013      364.482        0.422        0.140       74.714       19.961        0.071      327.184       -7.500      864.677
12/08/2013  16:14:00       37.724       70.101       -6.112       28.516       32.139       19.945      813.189     1032.896      397.819        0.431        0.112       79.606       19.467        0.060      327.204       -7.467      864.658
12/08/2013  16:15:00       21.613       90.692       -8.930       28.936       42.492       16.389      837.297     1805.529      268.605        0.584        0.146       93.232       16.715        0.032      327.208       -7.461      864.656
12/08/2013  16:16:00       14.374       40.265       -4.631       19.458       31.490       19.753      378.631      991.620      390.162        0.180        0.088       42.754       20.000        0.219      327.214       -7.451      864.633
12/08/2013  16:17:00        9.187       19.822        0.653       12.743       15.998       12.829      162.393      255.936      164.587        0.053        0.029       21.847        9.618        0.194      327.188       -7.493      864.592
12/08/2013  16:18:00       10.035       32.367       -2.117       24.857       31.188       13.281      617.884      972.661      176.394        0.146        0.088       33.887       16.988        0.251      327.178       -7.510      864.541
12/08/2013  16:19:00        7.713       71.072      -11.047        6.922       14.693        8.858       47.915      215.870       78.461        0.279        0.017       71.489        7.524        0.011      327.169       -7.526      864.512
12/08/2013  16:20:00       -0.427       66.902       -8.571       10.678       21.420       12.045      114.022      458.828      145.091        0.263        0.036       66.904       10.794        0.026      327.178       -7.509      864.515
12/08/2013  16:21:00        4.623       48.060       -4.102       17.468       31.163       15.240      305.136      971.133      232.245        0.193        0.075       48.282       16.919        0.123      327.197       -7.481      864.518
12/08/2013  16:22:00        0.981       95.957      -13.652       12.241       13.763        8.611      149.830      189.418       74.147        0.490        0.021       95.962        6.603        0.005      327.193       -7.486      864.495
12/08/2013  16:23:00        1.944       81.402      -15.157        7.332       11.166        6.148       53.756      124.680       37.803        0.354        0.011       81.425        4.497        0.003      327.190       -7.492      864.475
12/08/2013  16:24:00       16.623       76.871       -7.498       16.820       31.798       13.609      282.920     1011.107      185.213        0.386        0.074       78.647       16.128        0.042      327.191       -7.488      864.493
12/08/2013  16:25:00       22.426       43.409       -6.221       20.353       25.939       14.247      414.239      672.837      202.987        0.186        0.065       48.860       12.449        0.065      327.230       -7.424      864.501
12/08/2013  16:26:00       27.065       38.533       -5.103       13.682       18.960       12.176      187.198      359.467      148.266        0.147        0.035       47.088        4.018        0.007      327.195       -7.481      864.500
12/08/2013  16:27:00       10.455       62.612       -8.898       18.588       32.910       12.222      345.531     1083.038      149.380        0.284        0.079       63.479       12.335        0.038      327.222       -7.439      864.507
12/08/2013  16:28:00       -7.677      115.194      -13.697       14.494       15.936       14.041      210.071      253.953      197.145        0.709        0.033      115.450        7.847        0.005      327.228       -7.429      864.550
12/08/2013  16:29:00        0.138      110.886      -12.736        6.159       12.030        6.903       37.938      144.719       47.652        0.634        0.012      110.886        3.612        0.001      327.192       -7.487      864.595
12/08/2013  16:30:00      -15.042       80.220       -6.030       27.077       25.181       11.558      733.177      634.066      133.584        0.410        0.075       81.619        9.122        0.012      327.199       -7.474      864.601
12/08/2013  16:31:00      -18.423       41.986        7.237       20.495       25.324       18.616      420.048      641.316      346.544        0.178        0.070       45.850       10.896        0.056      327.198       -7.477      864.597
12/08/2013  16:32:00      -58.010        4.060       -6.058       52.598       40.238       17.036     2766.516     1619.128      290.235        0.405        0.234       58.152       20.315        0.122      327.012       -7.779      864.613
12/08/2013  16:33:00      -99.431      -20.885      -20.287       23.240       35.473       16.603      540.090     1258.322      275.674        0.640        0.104      101.601       10.274        0.010      326.895       -7.968      864.648
12/08/2013  16:34:00      -85.185       -8.286      -11.007       30.493       43.112       19.131      929.840     1858.668      366.009        0.530        0.158       85.587        6.655        0.006      326.894       -7.968      864.669
12/08/2013  16:35:00      -42.783       53.980       -4.422       26.508       25.266       20.899      702.660      638.376      436.767        0.327        0.089       68.879       18.180        0.070      326.873       -8.005      864.679
12/08/2013  16:36:00      -56.717       24.735      -22.693       17.248       18.600       12.485      297.483      345.976      155.884        0.257        0.040       61.876        8.512        0.019      326.895       -7.969      864.705
12/08/2013  16:37:00      -60.303       22.512      -14.806       19.604       26.122       12.306      384.313      682.381      151.436        0.279        0.061       64.368       11.219        0.030      326.835       -8.066      864.757
12/08/2013  16:38:00      -73.896       32.642      -16.180       12.882       21.893       14.821      165.955      479.309      219.676        0.383        0.043       80.785        4.289        0.003      326.898       -7.963      864.803
12/08/2013  16:39:00      -49.938        8.906       -5.341       13.302       22.994       13.936      176.954      528.716      194.198        0.175        0.045       50.726       12.326        0.059      326.970       -7.848      864.808
12/08/2013  16:40:00      -44.259        6.868      -11.471       17.700       25.518       10.749      313.302      651.158      115.541        0.161        0.054       44.789        9.895        0.049      327.026       -7.755      864.776
12/08/2013  16:41:00      -46.382       -0.595       -9.739       21.034       20.650       16.440      442.438      426.436      270.289        0.169        0.057       46.386        8.821        0.036      326.967       -7.851      864.736
12/08/2013  16:42:00      -32.131       -4.267       -3.039       19.640       17.992       14.679      385.742      323.710      215.461        0.099        0.046       32.413       11.992        0.137      326.871       -8.007      864.721
12/08/2013  16:43:00      -31.643       -0.378       -5.175       27.463       14.415       16.469      754.192      207.801      271.241        0.113        0.062       31.645       18.283        0.334      326.874       -8.003      864.741
12/08/2013  16:44:00       11.417       21.445        5.299       19.809       18.800       10.910      392.410      353.442      119.029        0.074        0.043       24.295       10.267        0.179      326.901       -7.960      864.776
12/08/2013  16:45:00       26.104       56.438        2.206       31.270       23.969       16.730      977.797      574.491      279.885        0.285        0.092       62.183       16.423        0.070      327.023       -7.762      864.793
12/08/2013  16:46:00       -4.411       54.750      -11.169       27.580       16.669        9.136      760.647      277.858       83.460        0.213        0.056       54.928        4.179        0.006      326.992       -7.810      864.818
12/08/2013  16:47:00       15.721       73.034       -4.360       30.583       30.102       17.028      935.328      906.156      289.941        0.387        0.107       74.707       18.061        0.058      327.057       -7.705      864.855
12/08/2013  16:48:00        8.912       37.324       11.312       24.943       27.137       17.507      622.149      736.413      306.487        0.163        0.083       38.373       13.203        0.118      327.056       -7.707      864.909
12/08/2013  16:49:00       -1.793       26.915       15.189       18.274       21.535       20.575      333.944      463.752      423.347        0.109        0.061       26.975       17.112        0.402      326.961       -7.862      864.956
12/08/2013  16:50:00       11.639       53.278       -5.865       23.899       26.460       19.148      571.182      700.151      366.663        0.232        0.082       54.535       16.652        0.093      326.999       -7.800      864.977
12/08/2013  16:51:00      -19.572       12.515        5.965       22.608       23.160       14.211      511.104      536.366      201.949        0.091        0.062       23.231       12.304        0.281      326.846       -8.047      864.997
12/08/2013  16:52:00      -31.226       -5.807      -14.381       12.524       16.314       12.505      156.845      266.161      156.366        0.090        0.029       31.762        8.183        0.066      326.593       -8.458      865.033
12/08/2013  16:53:00      -24.589        2.371      -12.632       13.084       16.147       10.977      171.190      260.713      120.501        0.066        0.028       24.703        7.377        0.089      326.499       -8.611      865.081
12/08/2013  16:54:00      -28.599        6.303      -17.595       16.952       18.490       15.794      287.358      341.885      249.438        0.102        0.044       29.285        6.152        0.044      326.421       -8.737      865.123
12/08/2013  16:55:00      -30.727       -0.382       -8.472       14.790       18.995       18.725      218.748      360.826      350.635        0.097        0.047       30.729       15.060        0.240      326.405       -8.763      865.163
12/08/2013  16:56:00      -22.260       11.830       -3.777       12.070       14.605       10.485      145.692      213.320      109.935        0.056        0.023       25.208        6.748        0.072      326.571       -8.494      865.200
12/08/2013  16:57:00      -26.176        1.507       -7.455       16.457       15.423       17.664      270.829      237.878      312.014        0.078        0.041       26.219        8.183        0.097      326.635       -8.392      865.235
12/08/2013  16:58:00      -24.539       -3.103       -1.141       12.676       11.235        9.841      160.678      126.219       96.850        0.050        0.019       24.734        8.522        0.119      326.624       -8.407      865.263
12/08/2013  16:59:00      -39.671        1.184       -6.474       18.872       13.839       11.342      356.169      191.505      128.652        0.115        0.034       39.689        5.878        0.022      326.445       -8.697      865.279
12/08/2013  17:00:00      -62.933       -4.740      -13.348       20.853       22.038       11.401      434.868      485.675      129.990        0.261        0.053       63.111        8.439        0.018      326.367       -8.823      865.284
12/08/2013  17:01:00      -69.241       -0.680       -7.520       26.371       20.518       14.478      695.430      420.981      209.599        0.309        0.066       69.244        7.060        0.010      326.316       -8.907      865.295
12/08/2013  17:02:00     -115.958        9.103      -18.503       31.040       23.279       18.996      963.483      541.915      360.858        0.787        0.093      116.315       15.177        0.017      326.240       -9.030      865.314
12/08/2013  17:03:00      -62.279       -1.354      -15.789       28.082       26.135       19.712      788.604      683.015      388.545        0.299        0.093       62.294       17.990        0.083      326.240       -9.029      865.328
12/08/2013  17:04:00      -27.081        2.766       -4.941       29.070       19.951       18.926      845.041      398.036      358.204        0.118        0.080       27.222       15.406        0.320      326.275       -8.975      865.333
12/08/2013  17:05:00      -33.624      -11.430       -5.107       18.835       22.986       16.635      354.740      528.352      276.738        0.122        0.058       35.514       13.626        0.147      326.253       -9.009      865.322
12/08/2013  17:06:00      -59.151       -2.219      -12.987       18.159       18.106       16.215      329.756      327.843      262.920        0.230        0.046       59.193       11.188        0.036      326.296       -8.940      865.310
12/08/2013  17:07:00      -70.262      -21.289      -11.656       19.788       21.316       16.055      391.577      454.372      257.749        0.331        0.055       73.417        9.098        0.015      326.326       -8.891      865.320
12/08/2013  17:08:00      -53.940       -0.907       -6.131       21.024       18.585       13.083      442.029      345.393      171.159        0.195        0.048       53.948        8.839        0.027      326.380       -8.805      865.355
12/08/2013  17:09:00      -92.612       -4.167      -10.325       33.734       23.788       14.259     1137.956      565.876      203.310        0.530        0.095       92.706        9.935        0.011      326.299       -8.935      865.364
12/08/2013  17:10:00      -88.610       -5.993       -7.899       39.434       23.336       19.265     1555.078      544.553      371.146        0.521        0.124       88.813       16.567        0.035      326.298       -8.937      865.359
12/08/2013  17:11:00     -118.775      -11.840       -8.635       34.189       25.558       18.461     1168.879      653.235      340.801        0.824        0.108      119.364       12.668        0.011      326.399       -8.772      865.343
12/08/2013  17:12:00     -108.308      -13.671      -10.331       32.797       28.920       19.070     1075.634      836.390      363.660        0.715        0.114      109.167       10.873        0.010      326.167       -9.147      865.357
12/08/2013  17:13:00     -101.629       -9.110       -3.356       42.423       29.232       23.061     1799.673      854.504      531.806        0.680        0.159      102.036       20.796        0.042      326.099       -9.257      865.393
12/08/2013  17:14:00      -75.380      -11.278       -2.857       43.025       21.024       19.876     1851.186      441.990      395.040        0.425        0.134       76.219       20.194        0.070      326.151       -9.175      865.418
12/08/2013  17:15:00     -121.030       -1.903      -13.139       30.521       29.711       18.636      931.524      882.761      347.311        0.849        0.108      121.045       10.211        0.007      326.152       -9.174      865.423
12/08/2013  17:16:00     -139.520      -10.629      -11.449       41.114       31.214       24.658     1690.394      974.320      607.999        1.149        0.164      139.924       22.237        0.025      326.019       -9.387      865.424
12/08/2013  17:17:00     -140.873      -19.129      -10.227       44.669       32.906       26.512     1995.317     1082.834      702.899        1.205        0.189      142.166       22.695        0.025      325.890       -9.596      865.434
12/08/2013  17:18:00     -113.988      -17.473      -10.574       38.817       31.482       22.717     1506.721      991.143      516.073        0.821        0.151      115.320       23.307        0.041      325.892       -9.593      865.452
12/08/2013  17:19:00     -136.109      -37.308      -13.968       29.526       25.906       19.813      871.779      671.144      392.566        1.102        0.097      141.130       13.187        0.009      325.854       -9.655      865.462
12/08/2013  17:20:00     -120.685      -28.193      -14.758       34.051       37.950       16.013     1159.478     1440.197      256.405        0.922        0.143      123.934       16.619        0.018      325.856       -9.652      865.504
12/08/2013  17:21:00      -75.731      -20.720       -8.228       43.230       22.677       20.261     1868.816      514.243      410.526        0.451        0.140       78.514       15.139        0.037      325.797       -9.749      865.540
12/08/2013  17:22:00      -83.726       -9.252      -12.578       23.606       19.987       15.023      557.262      399.494      225.682        0.422        0.059       84.236       12.472        0.022      325.934       -9.526      865.576
12/08/2013  17:23:00      -72.199      -13.346       -4.919       18.731       16.142       15.542      350.849      260.550      241.552        0.313        0.043       73.422       10.217        0.019      326.009       -9.404      865.614
12/08/2013  17:24:00      -68.289      -12.295       -6.142       22.464       20.432       15.079      504.618      417.476      227.385        0.300        0.057       69.387       12.116        0.030      326.131       -9.207      865.646
12/08/2013  17:25:00     -103.451      -16.234      -11.422       24.067       20.274       13.921      579.235      411.026      193.802        0.614        0.059      104.717        8.212        0.006      326.053       -9.333      865.652
12/08/2013  17:26:00      -54.153        6.277       -3.602       40.732       21.516       18.151     1659.119      462.926      329.476        0.272        0.123       54.515       17.765        0.106      326.070       -9.306      865.661
12/08/2013  17:27:00      -76.361      -13.243      -10.010       37.561       25.406       15.649     1410.842      645.474      244.891        0.420        0.115       77.501       15.690        0.041      326.159       -9.161      865.644
12/08/2013  17:28:00      -99.470      -33.093       -5.875       25.860       28.221       15.847      668.731      796.430      251.118        0.637        0.086      104.831       10.338        0.010      326.193       -9.105      865.624
12/08/2013  17:29:00      -74.595       -7.018       -9.339       36.398       26.817       14.528     1324.802      719.149      211.075        0.398        0.113       74.925       12.820        0.029      326.109       -9.241      865.624
12/08/2013  17:30:00      -83.950       -6.906      -10.409       19.533       21.952       13.950      381.550      481.908      194.607        0.413        0.053       84.234        9.596        0.013      326.126       -9.214      865.647
12/08/2013  17:31:00      -91.853       21.501      -14.407       26.909       32.690       14.447      724.079     1068.633      208.724        0.555        0.100       94.336        6.091        0.004      326.171       -9.142      865.687
12/08/2013  17:32:00      -89.432       43.285      -12.500       28.688       51.429       21.670      822.987     2644.927      469.585        0.698        0.197       99.356       25.977        0.068      326.147       -9.181      865.726
12/08/2013  17:33:00     -130.613      112.436      -20.712       40.074       59.547       29.293     1605.898     3545.798      858.077        1.807        0.300      172.342       19.420        0.013      326.133       -9.203      865.777
12/08/2013  17:34:00     -104.839       85.927      -21.487       47.241       38.341       24.670     2231.759     1470.020      608.585        1.157        0.216      135.553       24.033        0.031      326.105       -9.248      865.827
12/08/2013  17:35:00      -81.993       73.236      -19.664       27.020       36.619       18.904      730.094     1340.931      357.345        0.745        0.121      109.938       12.866        0.014      326.164       -9.153      865.846
12/08/2013  17:36:00      -62.289       13.103      -11.242       37.428       32.793       19.172     1400.869     1075.373      367.582        0.351        0.142       63.652        8.144        0.016      326.213       -9.075      865.857
12/08/2013  17:37:00      -80.289       -0.241       -7.919       33.923       22.575       15.280     1150.761      509.624      233.493        0.420        0.095       80.289        7.548        0.009      326.155       -9.167      865.864
12/08/2013  17:38:00      -75.570        9.015      -17.928       28.564       22.121       18.137      815.929      489.322      328.950        0.387        0.082       76.105       12.422        0.027      326.185       -9.119      865.869
12/08/2013  17:39:00      -51.323      -10.976        6.058       41.641       29.524       20.076     1734.002      871.671      403.049        0.290        0.150       52.483       17.189        0.107      326.138       -9.194      865.875
12/08/2013  17:40:00      -90.550       87.040      -22.876       61.825       85.281       38.463     3822.354     7272.910     1479.373        1.443        0.629      125.600       46.920        0.140      326.057       -9.327      865.879
12/08/2013  17:41:00     -105.318       26.286      -11.778       53.928       50.622       33.809     2908.211     2562.601     1143.081        0.927        0.331      108.549       31.957        0.087      326.129       -9.210      865.884
12/08/2013  17:42:00     -113.491       71.152      -24.273       52.673       38.353       25.650     2774.492     1470.965      657.914        1.172        0.245      133.951       23.970        0.032      326.079       -9.291      865.895
12/08/2013  17:43:00      -61.858       52.729       -6.367       54.430       58.018       28.102     2962.669     3366.128      789.700        0.688        0.356       81.282       31.593        0.151      326.170       -9.144      865.919
12/08/2013  17:44:00     -109.373       92.468      -23.849       53.269       75.210       36.511     2837.579     5656.507     1333.089        1.545        0.491      143.223       34.598        0.058      326.129       -9.210      865.949
12/08/2013  17:45:00      -64.487      -17.553       -4.299       48.184       33.618       23.989     2321.731     1130.186      575.452        0.426        0.201       66.833       20.177        0.091      326.204       -9.090      865.977
12/08/2013  17:46:00      -87.168      116.830      -29.373       56.389       59.612       34.545     3179.755     3553.531     1193.324        1.502        0.396      145.765       30.753        0.045      326.102       -9.253      866.001
12/08/2013  17:47:00      -74.523       47.998      -20.362       48.676       35.421       16.286     2369.342     1254.666      265.245        0.608        0.194       88.643       18.114        0.042      326.168       -9.147      866.030
12/08/2013  17:48:00      -61.893      -16.447       -8.002       41.945       22.761       16.332     1759.416      518.075      266.745        0.335        0.127       64.041       14.604        0.052      326.165       -9.152      866.061
12/08/2013  17:49:00      -27.219      -10.136        0.076       36.517       24.509       17.518     1333.513      600.704      306.895        0.154        0.112       29.045       19.515        0.451      326.187       -9.117      866.089
12/08/2013  17:50:00      -26.698       12.923       -4.270       22.026       16.480       13.684      485.129      271.580      187.259        0.092        0.047       29.661       10.337        0.121      326.225       -9.055      866.069
12/08/2013  17:51:00      -61.735      -30.401      -10.583       47.284       21.571       18.676     2235.792      465.300      348.789        0.395        0.152       68.814       23.489        0.117      326.115       -9.232      866.044
12/08/2013  17:52:00      -71.463      -31.257       -5.772       33.242       26.690       16.175     1105.013      712.379      261.628        0.410        0.104       78.000       11.806        0.023      326.139       -9.193      866.039
12/08/2013  17:53:00      -55.243      -19.080       -8.544       26.784       22.375       15.970      717.395      500.630      255.031        0.248        0.074       58.445       13.361        0.052      326.088       -9.277      866.057
12/08/2013  17:54:00      -85.187      -19.589       -1.676       36.208       23.607       18.419     1310.999      557.279      339.269        0.492        0.110       87.410       17.425        0.040      326.029       -9.373      866.055
12/08/2013  17:55:00     -111.937      -51.385       -6.302       33.577       35.227       20.749     1127.418     1240.960      430.500        0.900        0.140      123.167       13.308        0.012      326.043       -9.349      866.051
12/08/2013  17:56:00      -88.849      -20.642       -2.742       29.072       27.515       20.456      845.163      757.070      418.441        0.517        0.101       91.215       14.414        0.025      326.047       -9.343      866.054
12/08/2013  17:57:00      -93.643      -51.657       -5.008       44.401       35.993       21.394     1971.420     1295.513      457.691        0.759        0.186      106.946       10.261        0.009      326.010       -9.403      866.070
12/08/2013  17:58:00      -98.461      -30.155       -3.839       33.393       39.704       20.376     1115.103     1576.409      415.190        0.686        0.155      102.976       10.074        0.010      326.037       -9.359      866.082
12/08/2013  17:59:00      -93.351      -45.316       -6.652       35.856       34.229       24.031     1285.639     1171.643      577.470        0.692        0.152      103.769       20.739        0.040      325.957       -9.487      866.091
12/08/2013  18:00:00     -129.259      -37.500      -16.263       37.667       41.048       23.158     1418.778     1684.914      536.275        1.101        0.182      134.589       11.410        0.007      325.933       -9.527      866.086
12/08/2013  18:01:00     -135.884      -39.042      -12.426       47.819       38.330       23.952     2286.689     1469.152      573.722        1.224        0.216      141.381       17.843        0.016      325.951       -9.498      866.093
12/08/2013  18:02:00     -136.801      -56.588      -15.589       29.889       33.400       20.199      893.343     1115.584      407.984        1.229        0.121      148.043       11.291        0.006      325.916       -9.553      866.092
12/08/2013  18:03:00     -117.161      -23.570      -11.827       40.966       40.821       24.703     1678.217     1666.325      610.235        0.919        0.198      119.508       20.302        0.029      325.885       -9.605      866.105
12/08/2013  18:04:00     -131.590      -32.320      -14.125       33.481       36.528       17.617     1121.004     1334.316      310.351        1.066        0.138      135.501        9.098        0.005      325.873       -9.624      866.085
12/08/2013  18:05:00     -122.902      -22.789      -13.524       52.493       48.324       31.626     2755.490     2335.212     1000.225        1.095        0.305      124.997       28.771        0.053      325.908       -9.568      866.075
12/08/2013  18:06:00      -84.052      -22.502       -3.337       29.335       36.469       18.938      860.571     1330.003      358.645        0.507        0.127       87.012       14.299        0.027      325.873       -9.625      866.084
12/08/2013  18:07:00     -113.342      -56.419      -14.069       35.202       21.703       18.779     1239.161      471.021      352.649        0.914        0.103      126.607       12.732        0.010      325.890       -9.597      866.081
12/08/2013  18:08:00     -106.001      -49.250      -16.901       49.491       29.104       22.124     2449.365      847.034      489.469        0.887        0.189      116.884       20.981        0.032      325.783       -9.770      866.080
12/08/2013  18:09:00      -53.085       -8.437       10.221       97.065       33.413       26.764     9421.643     1116.425      716.309        0.712        0.563       53.751       35.367        0.433      325.783       -9.771      866.069
12/08/2013  18:10:00     -215.698      -50.651      -16.590       33.148       42.120       23.040     1098.778     1774.118      530.858        2.638        0.170      221.565       18.914        0.007      325.631      -10.016      866.096
12/08/2013  18:11:00     -140.432      -44.211       -2.275       66.161       49.426       29.108     4377.228     2442.908      847.283        1.467        0.383      147.227       29.471        0.040      325.660       -9.968      866.103
12/08/2013  18:12:00     -126.065      -65.671      -12.572       40.747       44.691       22.463     1660.301     1997.300      504.599        1.226        0.208      142.145       10.378        0.005      325.635      -10.009      866.118
12/08/2013  18:13:00     -133.461     -102.987      -10.068       53.444       48.542       31.300     2856.287     2356.316      979.662        1.735        0.310      168.576       32.538        0.037      325.549      -10.148      866.165
12/08/2013  18:14:00      -93.792      -44.573       -4.914       67.032       42.015       25.825     4493.260     1765.261      666.935        0.887        0.346      103.844       22.284        0.046      325.591      -10.080      866.195
12/08/2013  18:15:00     -102.075      -79.149       -2.083       57.310       46.261       29.629     3284.474     2140.078      877.896        1.149        0.315      129.166       29.718        0.053      325.525      -10.186      866.232
12/08/2013  18:16:00     -100.418      -97.175       -6.452       64.070       44.727       32.240     4104.991     2000.508     1039.437        1.336        0.357      139.738       35.191        0.063      325.505      -10.219      866.257
12/08/2013  18:17:00     -111.757      -52.047      -16.734       59.666       45.627       24.195     3559.974     2081.853      585.389        1.085        0.311      123.282       27.267        0.049      325.540      -10.164      866.277
12/08/2013  18:18:00     -152.923      -23.015      -10.064       51.833       61.767       26.727     2686.613     3815.170      714.307        1.561        0.361      154.645       26.280        0.029      325.535      -10.171      866.299
12/08/2013  18:19:00     -126.552      -13.741       -4.232       30.592       44.011       21.168      935.859     1936.925      448.084        0.977        0.166      127.296       17.108        0.018      325.569      -10.115      866.311
12/08/2013  18:20:00     -160.870       -0.563      -13.332       34.854       21.294       18.716     1214.822      453.422      350.304        1.404        0.101      160.871       19.169        0.014      325.516      -10.200      866.342
12/08/2013  18:21:00     -119.290       12.312       -7.292       41.994       49.768       26.651     1763.536     2476.886      710.300        0.969        0.248      119.924       19.685        0.027      325.578      -10.100      866.356
12/08/2013  18:22:00     -165.102       34.117      -10.918       36.658       25.899       22.844     1343.817      670.749      521.849        1.554        0.127      168.590       16.584        0.010      325.697       -9.909      866.353
12/08/2013  18:23:00     -169.342       20.496      -14.751       33.681       21.496       21.638     1134.384      462.057      468.203        1.569        0.103      170.578       17.938        0.011      325.632      -10.014      866.343
12/08/2013  18:24:00     -110.787       -0.629       -3.674       47.768       36.220       25.087     2281.793     1311.923      629.351        0.825        0.211      110.789       24.042        0.047      325.687       -9.925      866.334
12/08/2013  18:25:00     -138.012        1.751       -8.734       34.428       32.539       22.725     1185.288     1058.766      516.429        1.094        0.138      138.023       18.212        0.017      325.640      -10.000      866.337
12/08/2013  18:26:00     -137.849        5.446      -16.256       36.512       29.093       19.190     1333.111      846.424      368.273        1.092        0.127      137.957       17.823        0.017      325.654       -9.977      866.357
12/08/2013  18:27:00     -153.393       -5.042      -16.615       31.705       19.701       12.806     1005.210      388.148      163.988        1.269        0.078      153.476       12.583        0.007      325.651       -9.983      866.376
12/08/2013  18:28:00     -110.017       -9.657       -7.923       45.171       28.668       20.040     2040.401      821.878      401.601        0.776        0.163      110.440       21.418        0.038      325.664       -9.962      866.377
12/08/2013  18:29:00     -113.384      -17.638       -8.384       34.614       28.322       19.487     1198.140      802.134      379.743        0.781        0.119      114.747       16.670        0.021      325.758       -9.809      866.385
12/08/2013  18:30:00      -95.183      -12.034       -1.735       36.407       36.616       24.160     1325.452     1340.695      583.720        0.623        0.162       95.941       19.399        0.041      325.657       -9.973      866.374
12/08/2013  18:31:00     -128.077       -2.853      -16.253       34.078       33.487       24.198     1161.312     1121.412      585.546        0.977        0.143      128.108       17.002        0.018      325.560      -10.129      866.384
12/08/2013  18:32:00     -156.912       12.899      -16.698       32.749       25.119       23.950     1072.500      630.970      573.602        1.367        0.114      157.441       21.011        0.018      325.557      -10.134      866.397
12/08/2013  18:33:00     -136.282       12.342      -13.294       30.073       22.058       24.999      904.387      486.563      624.946        1.046        0.101      136.839       19.962        0.021      325.565      -10.121      866.424
12/08/2013  18:34:00     -178.533       12.852      -16.443       38.403       24.854       20.275     1474.758      617.701      411.073        1.741        0.125      178.995       18.119        0.010      325.549      -10.147      866.445
12/08/2013  18:35:00     -181.862        2.925      -20.922       45.935       27.974       19.819     2110.033      782.551      392.791        1.840        0.164      181.885       20.589        0.013      325.520      -10.195      866.458
12/08/2013  18:36:00     -144.577        4.301      -18.985       47.814       28.010       17.434     2286.144      784.547      303.929        1.233        0.169      144.641       19.587        0.018      325.584      -10.091      866.480
12/08/2013  18:37:00      -89.200       -4.266      -17.194       16.442       25.743       16.121      270.355      662.703      259.884        0.473        0.060       89.302        8.024        0.008      325.685       -9.928      866.480
12/08/2013  18:38:00      -77.802      -13.360      -20.422       31.365       22.669       15.993      983.770      513.874      255.785        0.420        0.088       78.940       17.044        0.047      325.683       -9.931      866.486
12/08/2013  18:39:00      -83.134      -14.076      -10.879       27.238       39.953       19.057      741.932     1596.207      363.181        0.496        0.135       84.317       11.551        0.019      325.676       -9.942      866.492
12/08/2013  18:40:00      -82.112      -24.480       -6.735       33.827       26.585       17.234     1144.299      706.772      297.010        0.477        0.107       85.683        5.500        0.004      325.559      -10.132      866.494
12/08/2013  18:41:00      -89.818      -35.263      -13.675       22.153       25.105       14.738      490.752      630.259      217.202        0.542        0.067       96.492        8.643        0.008      325.570      -10.114      866.500
12/08/2013  18:42:00      -82.129      -31.342      -12.214       15.010       12.111        9.162      225.298      146.683       83.948        0.417        0.023       87.906        5.021        0.003      325.570      -10.114      866.511
12/08/2013  18:43:00     -115.434      -14.385       -9.404       23.542       23.385       17.747      554.205      546.839      314.952        0.752        0.071      116.327       13.119        0.013      325.578      -10.102      866.511
12/08/2013  18:44:00     -142.437       -3.693      -15.411       33.325       21.270       20.658     1110.549      452.393      426.771        1.126        0.099      142.485       16.443        0.013      325.470      -10.275      866.529
12/08/2013  18:45:00     -127.912       -3.156      -15.618       23.797       15.585       15.287      566.277      242.878      233.700        0.883        0.052      127.951       13.179        0.011      325.472      -10.271      866.536
12/08/2013  18:46:00      -77.579        0.150       -5.897       28.362       17.571       20.308      804.377      308.728      412.417        0.379        0.076       77.579       14.070        0.033      325.517      -10.200      866.541
12/08/2013  18:47:00      -95.968       -4.349       -8.069       34.568       21.557       15.905     1194.921      464.701      252.955        0.560        0.096       96.067       16.178        0.028      325.639      -10.002      866.544
12/08/2013  18:48:00     -104.872       -7.028      -10.775       23.471       14.330       12.140      550.899      205.339      147.390        0.603        0.045      105.107       10.444        0.010      325.592      -10.079      866.546
12/08/2013  18:49:00      -88.599       -6.146       -7.581       30.051       22.504       14.847      903.040      506.428      220.426        0.479        0.081       88.812       14.228        0.026      325.601      -10.063      866.536
12/08/2013  18:50:00      -80.673       -8.758       -3.441       35.972       23.869       15.912     1293.957      569.729      253.184        0.436        0.106       81.147       14.719        0.033      325.566      -10.120      866.532
12/08/2013  18:51:00      -94.028      -10.291       -5.452       26.502       18.032       15.814      702.371      325.150      250.086        0.513        0.064       94.590       13.099        0.019      325.611      -10.048      866.543
12/08/2013  18:52:00     -100.376       -1.785       -7.383       30.125       18.247       17.974      907.495      332.969      323.062        0.585        0.078      100.392       18.706        0.035      325.594      -10.076      866.550
12/08/2013  18:53:00     -127.802       -9.648      -17.912       20.477       23.172       12.301      419.295      536.919      151.324        0.893        0.055      128.165        8.349        0.004      325.374      -10.430      866.540
12/08/2013  18:54:00      -87.717       -0.468      -11.423       26.208       17.643       17.043      686.867      311.281      290.450        0.456        0.064       87.719       15.138        0.030      325.469      -10.278      866.531
12/08/2013  18:55:00     -115.818        4.517      -11.726       15.208       13.896       12.766      231.270      193.095      162.974        0.708        0.029      115.906        7.585        0.004      325.383      -10.415      866.523
12/08/2013  18:56:00      -82.281       -6.428       -2.178       24.965       21.211       17.301      623.230      449.925      299.339        0.409        0.069       82.532       15.448        0.035      325.433      -10.335      866.525
12/08/2013  18:57:00      -97.815      -23.396       -9.113       20.670       22.405       14.517      427.265      501.983      210.748        0.567        0.057      100.574       11.157        0.012      325.422      -10.351      866.516
12/08/2013  18:58:00      -88.632      -16.106       -6.617       27.100       23.990       18.416      734.431      575.503      339.134        0.490        0.082       90.083       17.406        0.037      325.349      -10.471      866.508
12/08/2013  18:59:00     -115.267      -28.386      -12.682       17.632       23.474       14.644      310.903      551.021      214.455        0.766        0.054      118.711        6.651        0.003      325.298      -10.553      866.498
12/08/2013  19:00:00     -150.847      -36.506      -14.403       23.561       25.729       21.270      555.100      661.966      452.420        1.298        0.083      155.202       17.733        0.013      325.173      -10.754      866.507
12/08/2013  19:01:00     -145.272      -29.367      -10.275       37.820       30.227       18.686     1430.356      913.659      349.158        1.238        0.135      148.210       18.139        0.015      325.120      -10.841      866.513
12/08/2013  19:02:00     -127.742      -66.252       -8.265       53.029       29.202       23.824     2812.031      852.747      567.579        1.250        0.212      143.901       27.477        0.036      325.139      -10.811      866.509
12/08/2013  19:03:00     -135.297      -32.084       -2.244       37.858       28.515       19.972     1433.207      813.123      398.881        1.099        0.132      139.049        7.172        0.003      325.173      -10.756      866.506
12/08/2013  19:04:00     -142.341      -66.773       -3.034       44.555       35.336       29.276     1985.119     1248.625      857.067        1.441        0.205      157.224       24.564        0.024      325.239      -10.648      866.499
12/08/2013  19:05:00      -78.891      -80.489       -0.044       49.277       59.293       27.777     2428.266     3515.697      771.580        0.971        0.336      112.704       25.100        0.050      325.111      -10.856      866.505
12/08/2013  19:06:00      -88.765      -72.756       -0.825       76.994       52.800       37.238     5928.095     2787.859     1386.683        1.164        0.505      114.772       42.763        0.139      325.101      -10.871      866.504
12/08/2013  19:07:00     -133.173      -77.980        0.815       54.734       43.394       26.316     2995.777     1883.023      692.522        1.469        0.279      154.324       22.935        0.022      325.185      -10.736      866.502
12/08/2013  19:08:00      -93.809      -60.720        5.263       66.231       42.487       32.583     4386.606     1805.186     1061.640        0.988        0.363      111.746       34.102        0.093      325.191      -10.726      866.507
12/08/2013  19:09:00     -103.424      -31.055       -3.639       44.207       34.855       22.180     1954.249     1214.898      491.939        0.767        0.183      107.986       19.796        0.034      325.178      -10.747      866.535
12/08/2013  19:10:00      -99.897      -12.567        3.230       42.194       45.112       30.556     1780.323     2035.107      933.651        0.745        0.237      100.684       22.844        0.051      325.145      -10.800      866.557
12/08/2013  19:11:00      -93.977      -37.538        1.561       49.598       37.662       24.445     2460.000     1418.458      597.568        0.736        0.224      101.197       28.386        0.079      325.164      -10.769      866.556
12/08/2013  19:12:00     -100.565      -38.673       -4.927       41.090       22.877       18.164     1688.349      523.357      329.946        0.709        0.127      107.745       19.138        0.032      325.203      -10.707      866.540
12/08/2013  19:13:00      -90.311      -23.187       -9.423       48.618       32.417       15.179     2363.713     1050.837      230.399        0.621        0.182       93.240       20.018        0.046      325.229      -10.663      866.553
12/08/2013  19:14:00     -106.144      -35.352      -11.328       35.030       24.360       12.940     1227.101      593.398      167.439        0.732        0.099      111.876        7.811        0.005      325.394      -10.398      866.566
12/08/2013  19:15:00      -63.400      -44.143        2.822       50.912       25.335       26.750     2592.082      641.865      715.569        0.496        0.197       77.254       32.665        0.179      325.399      -10.389      866.589
12/08/2013  19:16:00      -84.206      -13.245        1.028       48.477       25.928       19.143     2350.038      672.246      366.437        0.533        0.169       85.241       17.947        0.044      325.319      -10.518      866.585
12/08/2013  19:17:00      -44.000      -16.992        4.928       33.352       34.200       20.527     1112.334     1169.638      421.364        0.248        0.135       47.167       18.236        0.149      325.256      -10.621      866.549
12/08/2013  19:18:00      -67.183        3.170       -1.091       34.464       20.625       18.520     1187.787      425.395      343.008        0.324        0.098       67.258       13.917        0.043      325.167      -10.764      866.518
12/08/2013  19:19:00     -108.686        9.529       -3.136       43.953       24.536       21.049     1931.832      602.034      443.070        0.744        0.149      109.103       21.363        0.038      325.042      -10.966      866.511
12/08/2013  19:20:00     -100.454      -11.693       -6.061       33.486       31.360       19.914     1121.338      983.439      396.559        0.638        0.125      101.132       14.562        0.021      325.089      -10.890      866.488
12/08/2013  19:21:00      -60.637      -10.465       -3.435       50.678       33.808       23.040     2568.280     1143.003      530.849        0.402        0.212       61.533       25.461        0.171      325.045      -10.961      866.470
12/08/2013  19:22:00      -82.418      -16.503       -1.243       34.320       24.363       19.582     1177.886      593.554      383.442        0.461        0.108       84.054       19.108        0.052      325.015      -11.009      866.473
12/08/2013  19:23:00      -99.103      -11.893       -2.274       40.127       25.539       23.530     1610.205      652.242      553.646        0.639        0.141       99.814       24.340        0.059      324.979      -11.067      866.487
12/08/2013  19:24:00      -43.093      -24.838        8.302       33.662       30.897       18.792     1133.157      954.600      353.153        0.249        0.122       49.738       20.702        0.173      325.103      -10.868      866.499
12/08/2013  19:25:00      -71.036       -4.879        6.684       41.948       26.766       19.626     1759.612      716.438      385.177        0.399        0.143       71.203       24.187        0.115      325.038      -10.973      866.504
12/08/2013  19:26:00      -91.237      -11.697       -5.957       44.749       21.890       18.276     2002.508      479.178      334.025        0.566        0.141       91.984       22.236        0.058      324.994      -11.043      866.515
12/08/2013  19:27:00     -100.709       -7.305       -3.016       32.116       22.958       17.100     1031.468      527.087      292.413        0.603        0.093      100.974       13.087        0.017      325.021      -11.001      866.532
12/08/2013  19:28:00      -99.979       -7.979      -10.640       35.854       24.411       18.676     1285.519      595.906      348.801        0.620        0.112      100.297       16.656        0.028      325.015      -11.010      866.551
12/08/2013  19:29:00      -89.867       -3.712       -6.800       40.083       23.807       18.141     1606.675      566.784      329.087        0.532        0.125       89.944       17.569        0.038      325.024      -10.996      866.564
12/08/2013  19:30:00      -69.521       14.756       -3.274       44.415       19.709       17.051     1972.651      388.433      290.739        0.386        0.133       71.070       16.079        0.051      325.025      -10.993      866.583
12/08/2013  19:31:00     -104.963       37.309       -8.287       33.144       18.257       15.461     1098.517      333.312      239.035        0.707        0.084      111.396        6.430        0.003      324.980      -11.067      866.609
12/08/2013  19:32:00     -117.481       16.597      -10.017       26.828       27.834       15.173      719.739      774.755      230.235        0.795        0.086      118.647       10.380        0.008      325.042      -10.967      866.622
12/08/2013  19:33:00     -114.317      -13.092       -5.992       35.113       30.407       22.147     1232.889      924.596      490.470        0.796        0.132      115.065       18.315        0.025      324.988      -11.053      866.614
12/08/2013  19:34:00     -116.136      -29.254       -6.630       31.173       20.612       15.310      971.749      424.871      234.384        0.801        0.082      119.764        9.535        0.006      324.983      -11.061      866.597
12/08/2013  19:35:00     -134.312      -32.173      -11.836       23.203       28.670       16.331      538.379      821.951      266.699        1.042        0.081      138.112       11.619        0.007      324.872      -11.240      866.591
12/08/2013  19:36:00     -100.584      -24.841       -5.247       39.247       29.828       21.027     1540.356      889.699      442.139        0.682        0.144      103.606       19.392        0.035      324.899      -11.197      866.603
12/08/2013  19:37:00     -120.589      -29.283      -12.207       22.641       26.494       14.980      512.612      701.952      224.404        0.849        0.072      124.093       14.065        0.013      324.833      -11.302      866.627
12/08/2013  19:38:00     -112.002      -33.830      -17.977       15.363       23.883       10.650      236.027      570.407      113.423        0.747        0.046      117.000        9.399        0.006      324.872      -11.241      866.657
12/08/2013  19:39:00      -93.774      -26.145      -10.920       14.815       21.671       15.425      219.491      469.631      237.938        0.526        0.046       97.350        9.338        0.009      324.908      -11.182      866.684
12/08/2013  19:40:00     -105.764       -2.890      -10.139       16.387       16.150       15.410      268.543      260.824      237.458        0.603        0.038      105.803        8.357        0.006      324.919      -11.163      866.700
12/08/2013  19:41:00      -75.595      -10.555       -6.946       30.545       18.758       17.001      933.017      351.859      289.033        0.372        0.079       76.328       16.426        0.046      324.949      -11.116      866.712
12/08/2013  19:42:00      -72.671      -16.586       -3.157       35.856       23.749       18.827     1285.667      563.994      354.454        0.388        0.110       74.540       19.828        0.071      324.971      -11.080      866.732
12/08/2013  19:43:00      -81.620      -16.963       -9.684       16.270       14.950       10.889      264.729      223.517      118.577        0.382        0.030       83.364        4.747        0.003      324.957      -11.103      866.752
12/08/2013  19:44:00      -58.316      -19.555       -3.054       17.045       15.535       10.903      290.535      241.334      118.886        0.222        0.033       61.508        4.195        0.005      324.888      -11.213      866.771
12/08/2013  19:45:00      -66.267      -11.477       -0.649       16.589       14.586       13.074      275.201      212.745      170.938        0.259        0.033       67.254       10.476        0.024      324.871      -11.243      866.793
12/08/2013  19:46:00      -71.671       -6.668       -4.851       16.392       14.411       13.168      268.707      207.665      173.406        0.293        0.032       71.980        6.958        0.009      324.849      -11.278      866.826
12/08/2013  19:47:00      -72.418      -16.175       -7.615       12.870       10.980       10.146      165.629      120.562      102.945        0.298        0.019       74.202        7.390        0.010      324.860      -11.261      866.838
12/08/2013  19:48:00      -68.922      -19.755      -10.727       13.980       15.274       11.076      195.447      233.303      122.671        0.290        0.028       71.697        6.523        0.008      324.886      -11.218      866.852
12/08/2013  19:49:00      -67.507       -5.374       -6.947       23.167       13.012       10.486      536.708      169.308      109.966        0.272        0.041       67.720       10.199        0.023      324.763      -11.416      866.876
12/08/2013  19:50:00      -73.467       -1.914       -2.213       27.239       12.366       14.649      741.985      152.915      214.583        0.326        0.055       73.492       15.621        0.045      324.794      -11.365      866.894
12/08/2013  19:51:00      -74.252       -6.522        0.089       27.488       17.658       15.676      755.568      311.791      245.730        0.343        0.066       74.538       16.596        0.050      324.696      -11.526      866.912
12/08/2013  19:52:00      -61.290      -13.836        1.950       26.606       17.397       15.529      707.875      302.663      241.152        0.260        0.063       62.832       15.776        0.063      324.750      -11.437      866.913
12/08/2013  19:53:00      -55.519      -14.569       -3.097       23.066       18.360       14.799      532.061      337.073      219.001        0.220        0.054       57.398       13.001        0.051      324.776      -11.396      866.924
12/08/2013  19:54:00      -59.505       -5.238       -2.042       33.063       18.232       14.132     1093.165      332.422      199.723        0.260        0.081       59.735       16.861        0.080      324.685      -11.542      866.937
12/08/2013  19:55:00      -68.623      -11.321        3.643       38.272       27.228       19.291     1464.778      741.337      372.140        0.371        0.129       69.551       21.179        0.093      324.697      -11.522      866.938
12/08/2013  19:56:00      -63.727       -5.335        4.048       27.502       24.441       18.848      756.375      597.353      355.236        0.291        0.085       63.950       17.114        0.072      324.683      -11.545      866.921
12/08/2013  19:57:00     -110.364      -13.601       -6.427       29.224       20.754       19.665      854.031      430.709      386.705        0.704        0.084      111.199       16.190        0.021      324.593      -11.691      866.898
12/08/2013  19:58:00     -109.254      -13.523       -8.482       32.554       16.962       15.120     1059.781      287.724      228.625        0.688        0.079      110.087       17.169        0.024      324.575      -11.719      866.872
12/08/2013  19:59:00      -95.011      -14.942        1.494       32.915       25.964       17.238     1083.391      674.154      297.136        0.565        0.103       96.179       17.947        0.035      324.618      -11.650      866.866
12/08/2013  20:00:00      -84.887      -21.103       -1.735       26.264       22.885       15.430      689.783      523.742      238.081        0.455        0.073       87.470       13.782        0.025      324.682      -11.548      866.872
12/08/2013  20:01:00      -80.707      -18.172        1.514       27.192       23.502       18.059      739.424      552.351      326.121        0.423        0.081       82.727       17.250        0.043      324.629      -11.631      866.885
12/08/2013  20:02:00      -80.910       -8.678       -2.498       50.206       26.235       20.534     2520.669      688.291      421.656        0.513        0.182       81.374       23.411        0.083      324.591      -11.693      866.909
12/08/2013  20:03:00      -89.878      -17.635       -1.983       41.503       24.786       19.932     1722.494      614.363      397.286        0.556        0.137       91.591       21.624        0.056      324.559      -11.746      866.929
12/08/2013  20:04:00     -113.153        7.795       -9.093       44.371       27.221       23.852     1968.762      741.006      568.919        0.811        0.164      113.421       23.183        0.042      324.525      -11.800      866.951
12/08/2013  20:05:00     -128.125       -7.243       -7.779       32.043       28.856       19.057     1026.778      832.678      363.169        0.938        0.111      128.329       15.676        0.015      324.452      -11.917      866.967
12/08/2013  20:06:00      -81.658      -12.839       -7.417       43.838       24.076       24.354     1921.806      579.662      593.096        0.499        0.155       82.661       21.168        0.066      324.403      -11.997      866.980
12/08/2013  20:07:00      -50.163       -9.398        7.390       39.430       31.628       20.395     1554.751     1000.360      415.957        0.281        0.149       51.035       21.366        0.175      324.445      -11.928      867.000
12/08/2013  20:08:00      -73.173      -37.532       -4.658       41.686       25.803       21.110     1737.727      665.814      445.617        0.482        0.142       82.237       23.077        0.079      324.358      -12.069      867.023
12/08/2013  20:09:00     -111.117      -30.062      -15.011       18.260       19.842       14.113      333.439      393.711      199.170        0.720        0.046      115.112       11.887        0.011      324.245      -12.251      867.035
12/08/2013  20:10:00      -69.645      -22.504        4.452       28.878       16.707       20.057      833.961      279.130      402.266        0.345        0.076       73.191       17.211        0.055      324.376      -12.041      867.041
12/08/2013  20:11:00      -99.864      -41.702      -17.403       26.826       21.383       12.219      719.610      457.250      149.309        0.667        0.066      108.222        9.544        0.008      324.293      -12.174      867.041
12/08/2013  20:12:00     -127.446      -38.017      -19.405       24.658       23.194       12.193      608.018      537.971      148.669        0.968        0.065      132.995        9.707        0.005      324.341      -12.096      867.041
12/08/2013  20:13:00      -94.333      -59.955       -5.529       31.010       20.730       14.801      961.590      429.742      219.071        0.707        0.081      111.774       11.384        0.010      324.483      -11.867      867.037
12/08/2013  20:14:00      -71.167      -40.652        1.438       38.542       31.995       20.943     1485.505     1023.672      438.608        0.483        0.147       81.960       15.231        0.035      324.590      -11.694      867.021
12/08/2013  20:15:00      -67.684      -50.057        3.973       44.714       30.611       18.300     1999.384      937.021      334.907        0.519        0.164       84.183       19.763        0.055      324.539      -11.778      867.020
12/08/2013  20:16:00      -90.917      -23.421       -1.194       25.620       17.130       13.320      656.378      293.441      177.409        0.497        0.056       93.885       13.430        0.020      324.540      -11.774      867.031
12/08/2013  20:17:00      -54.338       -8.124       -0.735       27.840       18.737       14.458      775.078      351.092      209.045        0.218        0.067       54.942       13.370        0.059      324.539      -11.777      867.048
12/08/2013  20:18:00      -62.179      -12.042        2.197       31.606       23.305       18.223      998.909      543.141      332.071        0.294        0.094       63.334       18.321        0.084      324.434      -11.946      867.052
12/08/2013  20:19:00     -105.242        0.971       -8.362       34.256       31.953       21.856     1173.500     1021.026      477.698        0.691        0.134      105.247       16.704        0.025      324.431      -11.950      867.047
12/08/2013  20:20:00     -113.873        2.995       -4.618       41.388       24.339       24.519     1712.931      592.369      601.158        0.795        0.145      113.913       26.113        0.053      324.363      -12.061      867.049
12/08/2013  20:21:00     -110.431       -2.287       -8.204       35.336       21.947       20.594     1248.653      481.683      424.093        0.721        0.108      110.454       22.640        0.042      324.365      -12.058      867.056
12/08/2013  20:22:00      -85.554      -15.588        4.245       35.630       25.992       17.292     1269.519      675.587      299.029        0.491        0.112       86.963       18.486        0.045      324.367      -12.055      867.072
12/08/2013  20:23:00      -98.125        1.946       -3.939       27.020       21.493       22.194      730.076      461.962      492.588        0.567        0.084       98.145       18.023        0.034      324.367      -12.054      867.100
12/08/2013  20:24:00      -89.134       -3.754       -6.276       43.144       29.735       25.018     1861.438      884.194      625.918        0.568        0.169       89.213       25.004        0.079      324.385      -12.027      867.141
12/08/2013  20:25:00      -96.667       -4.749       -6.099       37.203       24.723       20.429     1384.054      611.236      417.342        0.591        0.121       96.783       17.650        0.033      324.319      -12.130      867.185
12/08/2013  20:26:00     -133.624       -6.702       -5.816       27.982       23.200       17.090      782.977      538.228      292.065        0.977        0.081      133.792       16.134        0.015      324.284      -12.189      867.208
12/08/2013  20:27:00     -102.261       -0.902       -5.936       55.255       26.759       21.985     3053.147      716.020      483.331        0.737        0.213      102.265       24.144        0.056      324.268      -12.213      867.215
12/08/2013  20:28:00      -90.687        1.739       -8.299       52.277       26.003       21.865     2732.897      676.162      478.094        0.609        0.194       90.704       21.990        0.059      324.171      -12.369      867.215
12/08/2013  20:29:00     -139.327      -13.388      -13.066       23.185       18.533       15.362      537.566      343.482      235.991        1.044        0.056      139.969       10.798        0.006      324.083      -12.512      867.225
12/08/2013  20:30:00     -102.488      -40.994       -8.946       26.743       34.683       17.322      715.191     1202.917      300.036        0.724        0.111      110.382       10.709        0.009      324.214      -12.301      867.235
12/08/2013  20:31:00      -94.994       -7.265       -9.141       24.340       29.668       17.393      592.441      880.214      302.527        0.547        0.089       95.272        6.865        0.005      324.268      -12.214      867.237
12/08/2013  20:32:00      -78.779      -24.596      -10.780       23.814       18.292       19.583      567.101      334.608      383.503        0.411        0.064       82.529       15.263        0.034      324.259      -12.228      867.253
12/08/2013  20:33:00      -79.847      -23.070      -11.862       22.625       20.529       18.316      511.911      421.437      335.474        0.416        0.063       83.113       11.066        0.018      324.230      -12.274      867.284
12/08/2013  20:34:00      -94.721      -14.001      -13.806       11.573       14.639       10.298      133.931      214.293      106.042        0.491        0.023       95.750        4.956        0.003      324.083      -12.511      867.300
12/08/2013  20:35:00     -101.689      -24.359      -11.087       20.311       19.076       12.156      412.520      363.904      147.767        0.599        0.046      104.566        7.878        0.006      324.129      -12.438      867.305
12/08/2013  20:36:00      -91.501      -21.514      -13.137       16.844       20.286       12.623      283.724      411.532      159.352        0.493        0.043       93.997        8.597        0.008      324.154      -12.397      867.309
12/08/2013  20:37:00      -97.464      -13.019       -9.712       17.802       20.507       15.071      316.911      420.551      227.126        0.536        0.048       98.330        9.281        0.009      324.122      -12.448      867.334
12/08/2013  20:38:00      -87.732      -21.553       -8.477       22.652       15.551       14.803      513.103      241.829      219.119        0.460        0.049       90.341        4.557        0.003      324.063      -12.544      867.361
12/08/2013  20:39:00      -59.279      -27.128       -3.905       19.006       13.876       12.917      361.240      192.542      166.859        0.249        0.036       65.191        7.954        0.015      324.100      -12.482      867.389
12/08/2013  20:40:00      -64.674      -37.032       -7.727       19.671       20.519       15.124      386.958      421.024      228.725        0.333        0.052       74.525        8.295        0.012      324.211      -12.305      867.418
12/08/2013  20:41:00      -92.323      -33.163      -18.348       22.102       17.097       14.690      488.497      292.291      215.806        0.548        0.050       98.099        7.693        0.006      324.134      -12.429      867.435
12/08/2013  20:42:00      -78.687      -16.088       -3.937       20.050       23.820       16.046      402.017      567.410      257.473        0.385        0.061       80.315        6.524        0.007      324.131      -12.433      867.438
12/08/2013  20:43:00      -80.880        4.150      -14.774       12.573       13.500        9.731      158.080      182.239       94.696        0.361        0.022       80.986        5.649        0.005      324.200      -12.322      867.441
12/08/2013  20:44:00      -84.654       -4.738       -7.862       13.679       16.056       11.941      187.105      257.810      142.581        0.392        0.029       84.786        6.514        0.006      324.152      -12.398      867.470
12/08/2013  20:45:00      -79.086       -6.395       -8.061       20.974       14.776       14.177      439.906      218.324      200.989        0.361        0.043       79.344       10.333        0.017      324.087      -12.505      867.496
12/08/2013  20:46:00      -50.550       -8.704       -5.615        9.972       11.161       10.204       99.449      124.573      104.112        0.150        0.016       51.294        4.277        0.007      324.205      -12.314      867.519
12/08/2013  20:47:00      -55.902      -12.740       -9.527       13.934       10.499       11.187      194.144      110.234      125.141        0.190        0.021       57.335        5.831        0.010      324.317      -12.135      867.542
12/08/2013  20:48:00      -66.584      -18.702       -8.641       14.781       14.410       10.191      218.468      207.649      103.864        0.269        0.026       69.161        6.273        0.008      324.411      -11.984      867.576
12/08/2013  20:49:00      -91.123      -21.045      -13.148       16.406       20.920       11.589      269.161      437.639      134.312        0.488        0.042       93.521        7.482        0.006      324.224      -12.285      867.597
12/08/2013  20:50:00     -101.045      -22.512      -12.063       21.308       21.767       14.628      454.042      473.806      213.987        0.600        0.057      103.522        9.221        0.008      324.128      -12.439      867.608
12/08/2013  20:51:00     -103.796       -9.092      -11.704       27.628       24.471       17.048      763.302      598.848      290.640        0.632        0.083      104.193       10.839        0.011      324.142      -12.415      867.620
12/08/2013  20:52:00      -89.092      -17.391      -11.921       21.510       21.531       14.258      462.701      463.576      203.299        0.476        0.056       90.774       12.771        0.020      324.188      -12.343      867.637
12/08/2013  20:53:00      -97.366      -17.896      -15.222       16.531       19.943       15.768      273.271      397.724      248.639        0.548        0.046       98.997       10.941        0.012      324.099      -12.485      867.646
12/08/2013  20:54:00      -65.109       -9.707        9.129       24.122       26.334       14.648      581.849      693.495      214.555        0.295        0.074       65.829       15.886        0.058      324.151      -12.402      867.664
12/08/2013  20:55:00      -54.831      -38.689       -8.006       35.944       29.140       16.266     1291.973      849.130      264.578        0.349        0.120       67.107       15.014        0.050      324.301      -12.161      867.676
12/08/2013  20:56:00      -24.743      -25.932       14.486       36.761       21.907       19.648     1351.381      479.902      386.052        0.186        0.111       35.842       13.343        0.139      324.276      -12.201      867.678
12/08/2013  20:57:00      -96.537      -30.653      -19.435       10.743       11.919        9.684      115.419      142.060       93.781        0.549        0.018      101.286        6.274        0.004      324.135      -12.429      867.692
12/08/2013  20:58:00      -88.902      -25.542       -9.674       25.253       16.950       11.663      637.695      287.310      136.026        0.486        0.053       92.498       10.484        0.013      324.261      -12.225      867.695
12/08/2013  20:59:00      -94.311      -26.957       -7.615       17.024       13.635       10.610      289.802      185.920      112.578        0.513        0.029       98.088        7.390        0.006      324.275      -12.201      867.697
12/08/2013  21:00:00      -82.840      -21.049       -4.098       26.527       16.370       11.163      703.659      267.982      124.619        0.421        0.055       85.472        7.823        0.008      324.317      -12.135      867.700
12/08/2013  21:01:00      -74.379      -24.119       -5.104       16.908       17.074       10.060      285.873      291.514      101.197        0.341        0.034       78.192        0.989        0.000      324.356      -12.072      867.702
12/08/2013  21:02:00      -77.368      -25.039       -6.151       16.280       15.895       11.006      265.050      252.648      121.127        0.364        0.032       81.319        6.248        0.006      324.423      -11.964      867.740
12/08/2013  21:03:00      -76.401      -36.070       -7.234       13.065       10.626       10.112      170.682      112.903      102.249        0.379        0.019       84.488        6.535        0.006      324.372      -12.047      867.777
12/08/2013  21:04:00      -82.434      -40.375      -15.957       10.398       11.957        8.312      108.112      142.967       69.087        0.450        0.016       91.790        4.653        0.003      324.337      -12.103      867.815
12/08/2013  21:05:00      -88.708      -30.198       -7.455       10.969       14.474        9.048      120.317      209.501       81.871        0.462        0.021       93.707        3.525        0.001      324.447      -11.925      867.838
12/08/2013  21:06:00      -86.633      -28.797       -7.051       19.129       17.153       11.531      365.930      294.235      132.959        0.459        0.040       91.293        9.481        0.011      324.496      -11.846      867.859
12/08/2013  21:07:00      -96.327      -37.694       -5.998       16.816       15.511        9.664      282.781      240.586       93.398        0.568        0.031      103.440        5.520        0.003      324.423      -11.964      867.892
12/08/2013  21:08:00     -105.059      -22.545       -4.509       22.845       17.587       14.805      521.916      309.295      219.186        0.631        0.053      107.451       11.965        0.012      324.426      -11.959      867.926
12/08/2013  21:09:00      -90.368      -10.917       -7.156       25.394       14.095       13.828      644.862      198.665      191.208        0.469        0.052       91.025       13.648        0.022      324.390      -12.018      867.951
12/08/2013  21:10:00     -113.868      -18.873       -9.964       18.658       15.857       10.908      348.137      251.432      118.982        0.707        0.036      115.422       10.735        0.009      324.344      -12.090      867.953
12/08/2013  21:11:00      -89.877      -21.340       -7.486       23.051       23.794       14.164      531.337      566.171      200.611        0.494        0.065       92.376       11.549        0.016      324.303      -12.157      867.956
12/08/2013  21:12:00      -89.473      -12.286       -2.399       26.560       21.900       14.341      705.428      479.629      205.665        0.478        0.070       90.313       12.990        0.021      324.333      -12.111      867.967
12/08/2013  21:13:00     -106.532       -2.011      -11.291       32.221       23.955       19.418     1038.184      573.851      377.064        0.673        0.099      106.551       19.484        0.033      324.243      -12.255      867.979
12/08/2013  21:14:00     -116.196      -17.027      -13.652       18.062       16.271       14.482      326.225      264.730      209.738        0.739        0.040      117.437        8.129        0.005      324.176      -12.362      867.998
12/08/2013  21:15:00      -93.772      -17.043      -11.773       23.843       18.956       16.467      568.502      359.338      271.169        0.521        0.060       95.308        8.308        0.008      324.218      -12.293      868.019
12/08/2013  21:16:00     -103.303      -12.936      -11.898       30.464       21.735       20.241      928.055      472.425      409.715        0.639        0.091      104.109       18.773        0.033      324.132      -12.433      868.044
12/08/2013  21:17:00     -104.023       -5.128       -9.561       33.698       23.828       16.074     1135.548      567.786      258.370        0.645        0.098      104.150       18.323        0.031      324.114      -12.461      868.071
12/08/2013  21:18:00     -113.917       -5.650      -10.973       33.959       23.172       16.578     1153.189      536.919      274.827        0.755        0.098      114.057       13.336        0.014      324.057      -12.553      868.090
12/08/2013  21:19:00     -139.041        2.578      -11.992       28.686       15.362       17.095      822.866      235.977      292.237        1.042        0.068      139.065       16.322        0.014      324.046      -12.571      868.094
12/08/2013  21:20:00     -113.471       -2.630      -11.443       24.847       19.715       18.271      617.369      388.673      333.823        0.718        0.067      113.501       16.432        0.021      324.070      -12.531      868.096
12/08/2013  21:21:00      -86.773      -15.436       -2.907       28.384       22.879       19.598      805.650      523.452      384.087        0.474        0.086       88.135       17.759        0.041      324.096      -12.492      868.105
12/08/2013  21:22:00     -114.605       -7.750       -3.268       41.190       25.937       21.620     1696.611      672.743      467.409        0.802        0.142      114.867       21.133        0.034      324.045      -12.572      868.124
12/08/2013  21:23:00      -81.818       -4.513       -2.846       48.816       28.941       16.768     2383.008      837.605      281.160        0.511        0.175       81.943       20.290        0.061      324.100      -12.484      868.144
12/08/2013  21:24:00      -27.096      -14.951        3.653       23.605       23.208       19.934      557.209      538.607      397.345        0.123        0.075       30.948       13.359        0.186      324.131      -12.435      868.149
12/08/2013  21:25:00      -43.231      -17.232        5.940       25.020       29.819       13.959      625.996      889.174      194.850        0.196        0.086       46.538       11.462        0.061      324.160      -12.388      868.138
12/08/2013  21:26:00      -44.249      -17.848        2.479       30.367       21.170       13.801      922.170      448.187      190.455        0.192        0.078       47.713       10.675        0.050      324.088      -12.503      868.133
12/08/2013  21:27:00      -40.993      -19.054       -3.641       23.895       22.354       19.619      570.950      499.682      384.899        0.176        0.073       45.205       14.829        0.108      324.104      -12.477      868.132
12/08/2013  21:28:00      -55.891      -20.695       -3.512       41.388       19.669       17.376     1712.976      386.857      301.938        0.298        0.120       59.600       20.314        0.116      324.060      -12.549      868.133
12/08/2013  21:29:00     -108.109       -9.101      -11.305       24.764       15.260       12.449      613.261      232.864      154.979        0.645        0.050      108.491        8.024        0.005      324.039      -12.582      868.135
12/08/2013  21:30:00     -119.137      -21.634      -11.566       30.679       19.835       17.095      941.195      393.428      292.255        0.821        0.081      121.086       11.134        0.008      324.043      -12.575      868.138
12/08/2013  21:31:00      -86.840      -12.871       -1.073       41.583       25.948       24.268     1729.148      673.290      588.942        0.535        0.150       87.789       27.048        0.095      323.999      -12.647      868.148
12/08/2013  21:32:00      -44.763       -6.297        0.928       33.382       25.290       18.046     1114.358      639.604      325.676        0.206        0.104       45.204       14.977        0.110      324.031      -12.596      868.154
12/08/2013  21:33:00      -57.042       -4.170       -3.017       29.284       22.654       14.334      857.565      513.182      205.476        0.243        0.079       57.194        6.612        0.013      324.090      -12.501      868.162
12/08/2013  21:34:00      -59.487       -7.474       -6.645       40.340       22.816       19.219     1627.284      520.588      369.381        0.308        0.126       59.955       20.573        0.118      324.089      -12.503      868.175
12/08/2013  21:35:00      -74.054      -10.662       -4.864       47.542       20.292       19.402     2260.227      411.769      376.429        0.433        0.152       74.818       23.804        0.101      324.047      -12.570      868.188
12/08/2013  21:36:00      -43.988      -24.833       -6.474       37.964       24.642       17.533     1441.297      607.241      307.391        0.247        0.118       50.514       13.405        0.070      324.056      -12.555      868.213
12/08/2013  21:37:00      -14.866      -22.322        4.603       33.188       21.612       15.325     1101.440      467.061      234.852        0.127        0.090       26.819       11.720        0.191      324.076      -12.522      868.220
12/08/2013  21:38:00      -40.175       -8.087       -2.532       23.660       15.994       12.847      559.791      255.806      165.037        0.133        0.049       40.981       14.414        0.124      324.070      -12.533      868.227
12/08/2013  21:39:00      -74.591      -29.411       -4.481       15.834       25.024       15.977      250.720      626.210      255.255        0.379        0.057       80.180       15.717        0.038      324.101      -12.484      868.245
12/08/2013  21:40:00      -52.429      -35.855        0.053       22.916       19.587       17.618      525.160      383.646      310.396        0.263        0.061       63.517       11.523        0.033      324.156      -12.395      868.276
12/08/2013  21:41:00      -35.315      -13.855       -3.460       15.175       19.372       13.720      230.274      375.293      188.237        0.112        0.040       37.935       11.687        0.095      324.121      -12.450      868.311
12/08/2013  21:42:00      -28.503      -12.497       -3.543       19.201       16.580        9.496      368.677      274.885       90.176        0.086        0.037       31.122        7.594        0.060      324.142      -12.416      868.340
12/08/2013  21:43:00      -16.848       -9.734       -1.998       31.182       16.911       13.752      972.319      285.989      189.119        0.091        0.072       19.458       15.580        0.641      324.222      -12.287      868.361
12/08/2013  21:44:00      -44.700       -6.667       -7.037       29.736       25.066       15.312      884.248      628.308      234.451        0.192        0.087       45.194       14.254        0.099      324.195      -12.331      868.388
12/08/2013  21:45:00      -54.167      -12.553      -10.329       30.767       25.710       20.935      946.619      661.005      438.256        0.262        0.102       55.603       15.664        0.079      324.111      -12.465      868.414
12/08/2013  21:46:00      -40.429       -4.224       -4.567       36.927       23.100       17.501     1363.621      533.627      306.284        0.194        0.110       40.649       17.499        0.185      324.179      -12.356      868.435
12/08/2013  21:47:00      -42.805      -10.443      -11.137       21.728       25.800       19.294      472.095      665.630      372.274        0.179        0.075       44.060       15.261        0.120      324.233      -12.268      868.450
12/08/2013  21:48:00      -31.459      -14.346       -4.768       20.148       19.835       20.471      405.933      393.413      419.053        0.122        0.061       34.576       14.170        0.168      324.199      -12.325      868.459
12/08/2013  21:49:00      -26.536       -9.451       -9.966       17.534       16.006       12.853      307.430      256.206      165.202        0.081        0.036       28.168       10.649        0.143      324.135      -12.428      868.456
12/08/2013  21:50:00      -26.579      -26.762        1.398       13.773       13.783       14.116      189.687      189.978      199.270        0.100        0.029       37.718        9.536        0.064      324.123      -12.447      868.447
12/08/2013  21:51:00      -42.466      -24.408       -2.682       11.339       10.909        9.641      128.567      119.008       92.954        0.137        0.017       48.981        4.898        0.010      324.127      -12.442      868.447
12/08/2013  21:52:00      -45.057      -28.605       -5.023       14.782       11.042       12.694      218.517      121.933      161.132        0.169        0.025       53.370        6.626        0.015      324.155      -12.395      868.457
12/08/2013  21:53:00      -65.162      -22.369      -11.536       12.166       13.400        9.379      148.012      179.564       87.971        0.265        0.021       68.894        6.580        0.009      324.189      -12.339      868.478
12/08/2013  21:54:00      -58.532       -8.922       -2.523       19.649       17.181       15.623      386.094      295.199      244.077        0.222        0.046       59.208       15.077        0.065      324.272      -12.207      868.504
12/08/2013  21:55:00      -67.416       -9.654       -6.795       13.497       13.028       11.886      182.171      169.719      141.279        0.259        0.025       68.104        1.677        0.001      324.283      -12.190      868.528
12/08/2013  21:56:00      -55.690      -17.880        1.831       15.887       14.255       10.516      252.404      203.191      110.593        0.200        0.028       58.490        8.824        0.023      324.344      -12.092      868.549
12/08/2013  21:57:00      -77.263      -37.797       -9.683       10.894       12.884        6.435      118.673      166.003       41.414        0.391        0.016       86.013        3.532        0.002      324.279      -12.195      868.584
12/08/2013  21:58:00      -71.507      -25.769       -7.306       13.972       17.585       12.134      195.210      309.239      147.226        0.324        0.033       76.009        7.838        0.011      324.307      -12.151      868.618
12/08/2013  21:59:00      -79.885       -5.489       -3.407       18.641       15.166       12.182      347.476      230.003      148.394        0.357        0.036       80.073        8.200        0.010      324.309      -12.148      868.651
12/08/2013  22:00:00      -81.258      -18.932       -4.018       21.847       16.724       14.612      477.312      279.677      213.498        0.397        0.049       83.434       13.307        0.025      324.274      -12.205      868.681
12/08/2013  22:01:00      -95.101      -15.037      -14.675        9.939       11.935        8.957       98.786      142.442       80.222        0.490        0.016       96.282        4.144        0.002      324.168      -12.375      868.693
12/08/2013  22:02:00      -97.054      -10.105       -7.375       18.459       12.228       13.150      340.732      149.525      172.928        0.512        0.033       97.579       10.182        0.011      324.191      -12.337      868.702
12/08/2013  22:03:00     -111.530      -11.730       -8.525       16.181       11.284       13.587      261.819      127.338      184.618        0.661        0.029      112.145        9.656        0.007      324.192      -12.335      868.719
12/08/2013  22:04:00     -110.341       -3.665       -8.745       21.027       18.846       16.340      442.122      355.181      266.990        0.666        0.053      110.402       13.528        0.015      324.132      -12.434      868.734
12/08/2013  22:05:00     -103.234      -11.628       -8.858       28.403       22.858       18.227      806.707      522.489      332.226        0.627        0.083      103.887       16.045        0.024      324.134      -12.429      868.760
12/08/2013  22:06:00      -88.026      -11.674       -8.185       31.438       28.697       21.692      988.376      823.516      470.551        0.512        0.114       88.796       18.205        0.042      324.064      -12.541      868.778
12/08/2013  22:07:00      -79.469       -2.326       -5.201       52.368       36.734       20.663     2742.367     1349.381      426.975        0.543        0.226       79.503       20.004        0.063      323.944      -12.734      868.797
12/08/2013  22:08:00     -124.787       -1.277      -10.798       39.640       26.762       18.184     1571.333      716.230      330.649        0.915        0.131      124.794       16.504        0.017      323.921      -12.772      868.830
12/08/2013  22:09:00     -123.786       -7.052       -9.535       34.489       29.283       17.890     1189.524      857.511      320.068        0.891        0.118      123.987       17.275        0.019      323.887      -12.825      868.868
12/08/2013  22:10:00      -92.677      -19.404       -2.661       27.877       19.025       17.249      777.134      361.939      297.524        0.520        0.072       94.687       16.035        0.029      324.020      -12.614      868.900
12/08/2013  22:11:00      -98.884      -19.992       -7.040       19.610       22.344       13.404      384.553      499.245      179.667        0.565        0.053      100.885       10.582        0.011      323.978      -12.681      868.938
12/08/2013  22:12:00     -104.814        2.096       -7.223       27.115       20.903       19.161      735.250      436.922      367.149        0.629        0.077      104.835       15.850        0.023      323.932      -12.754      868.976
12/08/2013  22:13:00     -120.312      -14.295       -3.979       30.361       22.843       15.867      921.783      521.789      251.767        0.819        0.085      121.159       16.182        0.018      323.868      -12.856      869.007
12/08/2013  22:14:00     -110.340       -8.639      -11.628       47.394       23.968       18.368     2246.229      574.463      337.392        0.777        0.158      110.678       19.378        0.031      323.902      -12.803      869.014
12/08/2013  22:15:00     -106.567      -21.961       -7.443       21.447       26.363       17.225      459.995      695.003      296.704        0.667        0.073      108.806       13.502        0.015      323.861      -12.868      869.021
12/08/2013  22:16:00     -119.077      -21.452      -16.088       21.531       24.434       18.018      463.595      597.028      324.661        0.814        0.069      120.994       12.828        0.011      323.861      -12.868      869.031
12/08/2013  22:17:00     -136.587      -16.843      -17.534       15.696       18.692       12.827      246.377      349.383      164.537        1.000        0.038      137.622        4.340        0.001      323.886      -12.827      869.043
12/08/2013  22:18:00     -118.204      -10.387      -15.384       23.110       32.475       22.095      534.092     1054.658      488.167        0.820        0.104      118.659       11.019        0.009      323.856      -12.876      869.037
12/08/2013  22:19:00     -124.378       -4.731      -14.657       18.757       19.675       16.724      351.809      387.118      279.676        0.836        0.051      124.468       11.899        0.009      323.786      -12.989      869.038
12/08/2013  22:20:00      -75.641      -28.641       -0.197       38.305       36.191       18.597     1467.260     1309.821      345.856        0.483        0.156       80.882       15.354        0.036      323.875      -12.846      869.064
12/08/2013  22:21:00     -101.773      -38.510       -8.087       38.521       37.912       17.956     1483.890     1437.289      322.430        0.757        0.162      108.816       18.764        0.030      323.831      -12.917      869.095
12/08/2013  22:22:00      -95.958      -22.365       -5.580       32.820       20.820       16.886     1077.159      433.459      285.125        0.577        0.090       98.530       17.630        0.032      323.879      -12.838      869.123
12/08/2013  22:23:00      -89.502      -20.640       -9.041       20.345       21.288       12.453      413.920      453.169      155.075        0.477        0.051       91.851        8.137        0.008      323.923      -12.768      869.135
12/08/2013  22:24:00     -103.381      -23.467       -7.371       33.366       18.314       13.556     1113.291      335.418      183.752        0.646        0.082      106.011       12.368        0.014      323.935      -12.749      869.143
12/08/2013  22:25:00      -61.692      -12.793        6.394       29.319       31.575       16.636      859.594      996.982      276.773        0.307        0.107       63.005       16.641        0.070      323.976      -12.683      869.131
12/08/2013  22:26:00      -63.339      -26.222        2.647       24.126       29.952       17.715      582.074      897.097      313.808        0.325        0.090       68.553       15.541        0.051      324.052      -12.560      869.118
12/08/2013  22:27:00      -91.940      -27.078        5.098       34.571       28.974       16.723     1195.158      839.498      279.673        0.576        0.116       95.844       14.568        0.023      324.013      -12.624      869.128
12/08/2013  22:28:00      -91.123      -53.013        1.593       48.195       29.920       25.566     2322.793      895.235      653.607        0.749        0.194      105.422       19.524        0.034      323.965      -12.701      869.139
12/08/2013  22:29:00      -76.183      -61.613        0.630       41.425       28.955       26.088     1716.034      838.410      680.570        0.642        0.162       97.979       20.509        0.044      324.041      -12.577      869.161
12/08/2013  22:30:00      -76.542      -49.578        5.159       44.109       40.841       23.407     1945.589     1667.975      547.886        0.625        0.208       91.196       23.321        0.065      324.058      -12.551      869.188
12/08/2013  22:31:00      -76.871      -58.219        1.001       53.882       33.069       23.696     2903.279     1093.553      561.521        0.693        0.228       96.429       19.971        0.043      324.011      -12.628      869.218
12/08/2013  22:32:00      -79.303      -57.568       -7.104       39.788       32.157       22.920     1583.071     1034.084      525.329        0.640        0.157       97.995       15.704        0.026      324.020      -12.614      869.236
12/08/2013  22:33:00      -55.406      -52.053        1.923       48.313       38.466       26.731     2334.185     1479.642      714.533        0.515        0.226       76.022       18.340        0.058      324.011      -12.626      869.251
12/08/2013  22:34:00      -91.122      -73.955       -7.337       50.375       26.898       25.037     2537.687      723.511      626.861        0.886        0.194      117.357       12.582        0.011      323.911      -12.788      869.268
12/08/2013  22:35:00      -47.895      -42.872        2.664       68.846       43.508       32.689     4739.803     1892.947     1068.547        0.592        0.385       64.280       38.752        0.363      323.950      -12.724      869.286
12/08/2013  22:36:00      -65.921      -43.345       -4.774       68.067       41.352       35.807     4633.147     1709.974     1282.119        0.693        0.381       78.895       46.056        0.341      323.906      -12.797      869.299
12/08/2013  22:37:00     -134.364      -28.192      -11.827       37.671       35.784       19.457     1419.075     1280.509      378.583        1.103        0.154      137.290       17.072        0.015      323.756      -13.037      869.315
12/08/2013  22:38:00     -133.348      -29.329       -5.330       39.455       33.179       24.756     1556.684     1100.820      612.841        1.097        0.164      136.535       22.869        0.028      323.748      -13.048      869.335
12/08/2013  22:39:00      -85.096      -24.453        4.388       43.389       32.986       22.058     1882.636     1088.045      486.551        0.566        0.173       88.540       20.920        0.056      323.828      -12.921      869.348
12/08/2013  22:40:00     -119.990      -44.067       -6.127       49.173       30.069       18.643     2418.013      904.149      347.552        1.002        0.183      127.826       14.519        0.013      323.815      -12.941      869.351
12/08/2013  22:41:00     -107.211      -46.920      -10.279       31.534       40.405       17.828      994.376     1632.525      317.852        0.837        0.147      117.029       17.605        0.023      323.839      -12.904      869.351
12/08/2013  22:42:00     -109.043      -45.801       -5.128       26.197       26.802       17.819      686.300      718.344      317.503        0.787        0.086      118.271       16.196        0.019      323.830      -12.918      869.354
12/08/2013  22:43:00      -88.133      -57.735       -9.677       40.410       30.060       18.168     1632.965      903.576      330.082        0.703        0.143      105.361        7.665        0.005      323.853      -12.882      869.361
12/08/2013  22:44:00      -70.250      -23.383        5.303       34.125       36.161       17.684     1164.512     1307.600      312.726        0.415        0.139       74.040       16.893        0.052      323.791      -12.980      869.363
12/08/2013  22:45:00     -104.072      -21.400       -3.479       31.782       38.763       18.726     1010.082     1502.567      350.659        0.708        0.143      106.249       15.375        0.021      323.811      -12.949      869.375
12/08/2013  22:46:00     -113.443      -15.340       -7.924       25.859       17.880       19.176      668.703      319.677      367.720        0.726        0.068      114.475       16.077        0.020      323.804      -12.961      869.391
12/08/2013  22:47:00      -81.468      -14.144       -1.050       28.012       26.028       16.854      784.679      677.434      284.073        0.429        0.087       82.686       13.137        0.025      323.789      -12.983      869.419
12/08/2013  22:48:00      -86.393       -5.200       -2.418       33.341       26.989       17.272     1111.645      728.401      298.315        0.482        0.107       86.550       12.702        0.022      323.813      -12.945      869.440
12/08/2013  22:49:00     -109.456      -17.059       -7.656       32.251       23.787       19.740     1040.138      565.814      389.684        0.716        0.100      110.777       16.723        0.023      323.726      -13.085      869.458
12/08/2013  22:50:00      -89.226      -14.017        0.206       41.349       26.600       22.631     1709.760      707.540      512.164        0.554        0.146       90.321       24.458        0.073      323.677      -13.165      869.461
12/08/2013  22:51:00     -101.062      -14.114       -2.605       44.191       25.838       24.873     1952.880      667.594      618.664        0.683        0.162      102.043       27.615        0.073      323.683      -13.154      869.466
12/08/2013  22:52:00     -123.179      -10.923       -7.848       33.178       19.027       18.284     1100.781      362.008      334.293        0.858        0.090      123.662       16.750        0.018      323.683      -13.155      869.477
12/08/2013  22:53:00     -111.657      -19.873       -2.585       32.981       20.757       18.020     1087.746      430.860      324.730        0.736        0.092      113.411       18.018        0.025      323.696      -13.133      869.480
12/08/2013  22:54:00      -99.255       -4.024       -6.477       40.884       26.409       21.861     1671.534      697.430      477.920        0.638        0.142       99.336       22.400        0.051      323.621      -13.255      869.480
12/08/2013  22:55:00     -112.030      -16.303       -3.513       32.948       22.490       18.236     1085.588      505.780      332.547        0.738        0.096      113.210       16.285        0.021      323.619      -13.256      869.482
12/08/2013  22:56:00     -113.407      -10.970       -4.520       42.463       23.953       17.477     1803.081      573.760      305.434        0.784        0.134      113.936       17.869        0.025      323.549      -13.369      869.488
12/08/2013  22:57:00     -168.613        0.297      -15.865       38.311       23.216       20.107     1467.760      538.989      404.285        1.555        0.121      168.613       20.565        0.015      323.487      -13.470      869.494
12/08/2013  22:58:00     -151.387      -14.059      -13.184       30.910       38.588       21.476      955.418     1489.063      461.223        1.310        0.145      152.038       19.257        0.016      323.541      -13.382      869.506
12/08/2013  22:59:00     -143.407       -9.192      -23.158       24.029       33.686       15.294      577.386     1134.758      233.892        1.157        0.097      143.701       12.769        0.008      323.542      -13.381      869.502
12/08/2013  23:00:00     -101.713      -17.993       -5.415       18.342       31.887       13.435      336.418     1016.774      180.494        0.612        0.077      103.292       11.710        0.013      323.528      -13.403      869.496
12/08/2013  23:01:00     -116.022      -34.722      -14.403       27.493       19.988       14.013      755.889      399.520      196.367        0.811        0.068      121.106       12.132        0.010      323.454      -13.521      869.497
12/08/2013  23:02:00     -120.802       -6.394       -7.778       33.259       20.772       19.586     1106.135      431.475      383.612        0.831        0.096      120.971       16.189        0.018      323.431      -13.557      869.509
12/08/2013  23:03:00     -109.954       -6.790       -6.715       41.345       35.475       24.519     1709.427     1258.458      601.187        0.787        0.178      110.164       22.497        0.042      323.463      -13.508      869.515
12/08/2013  23:04:00      -96.115      -34.903       -9.977       36.441       33.652       20.357     1327.926     1132.477      414.421        0.671        0.144      102.256       11.559        0.013      323.482      -13.475      869.513
12/08/2013  23:05:00      -71.759      -19.626        4.043       32.727       36.195       19.335     1071.051     1310.087      373.859        0.415        0.138       74.394       16.669        0.050      323.420      -13.576      869.514
12/08/2013  23:06:00      -17.086       -1.833        3.173       28.619       32.293       23.642      819.047     1042.845      558.947        0.136        0.121       17.184       17.314        1.015      323.453      -13.524      869.520
12/08/2013  23:07:00      -35.378      -30.418        0.983       28.720       24.903       13.572      824.814      620.165      184.195        0.190        0.081       46.657       11.417        0.060      323.458      -13.516      869.525
12/08/2013  23:08:00      -77.393      -48.341      -12.847       15.346       15.637        9.759      235.489      244.514       95.246        0.453        0.029       91.250        6.042        0.004      323.318      -13.738      869.520
12/08/2013  23:09:00     -108.343      -45.669       -7.996       20.958       13.348       11.062      439.235      178.156      122.371        0.731        0.037      117.575        6.447        0.003      323.348      -13.692      869.500
12/08/2013  23:10:00      -85.236      -41.965       -6.893       37.828       23.763       15.409     1430.991      564.691      237.440        0.565        0.112       95.006       16.699        0.031      323.449      -13.530      869.498
12/08/2013  23:11:00      -81.283      -18.612        1.495       22.780       18.251       18.580      518.945      333.108      345.222        0.408        0.060       83.386       13.382        0.026      323.396      -13.614      869.507
12/08/2013  23:12:00      -83.741      -15.258       -4.317       13.833       15.589       11.132      191.338      243.026      123.925        0.391        0.028       85.120        4.257        0.003      323.369      -13.657      869.530
12/08/2013  23:13:00     -100.159      -14.518      -11.268       18.011       20.519       12.562      324.398      421.041      157.793        0.564        0.045      101.206        6.794        0.005      323.380      -13.640      869.532
12/08/2013  23:14:00     -106.903       -3.142      -10.921       23.133       16.903       15.399      535.141      285.707      237.122        0.631        0.053      106.949       11.845        0.012      323.321      -13.737      869.531
12/08/2013  23:15:00     -113.661       -5.975      -11.601       21.030       15.231       15.193      442.269      231.987      230.834        0.700        0.045      113.818       12.521        0.012      323.275      -13.809      869.539
12/08/2013  23:16:00     -112.596       -9.103      -16.266       16.802       17.321       13.401      282.299      300.029      179.580        0.689        0.038      112.964        5.060        0.002      323.278      -13.804      869.563
12/08/2013  23:17:00     -105.693      -10.148      -14.924       22.972       18.047       14.593      527.735      325.681      212.960        0.628        0.053      106.179       10.377        0.010      323.293      -13.781      869.572
12/08/2013  23:18:00     -110.249      -43.762      -12.046       13.909       14.878       11.522      193.465      221.346      132.753        0.738        0.027      118.617        6.859        0.003      323.345      -13.696      869.574
12/08/2013  23:19:00     -108.420      -18.414      -12.883       21.475       20.866       15.024      461.169      435.380      225.709        0.669        0.056      109.973        5.901        0.003      323.361      -13.671      869.575
12/08/2013  23:20:00     -106.829      -35.835      -14.466       17.973       26.861       11.847      323.039      721.521      140.357        0.705        0.059      112.679        7.680        0.005      323.288      -13.788      869.584
12/08/2013  23:21:00     -104.211      -13.125      -10.590       31.442       18.492       16.543      988.576      341.967      273.678        0.637        0.080      105.034       17.455        0.028      323.389      -13.626      869.588
12/08/2013  23:22:00     -127.747      -12.369      -14.804       20.047       17.012       15.812      401.869      289.422      250.029        0.882        0.047      128.345        9.321        0.005      323.411      -13.589      869.585
12/08/2013  23:23:00     -141.347       -8.252      -13.273       28.543       18.979       16.810      814.676      360.189      282.563        1.084        0.073      141.587       17.905        0.016      323.366      -13.663      869.568
12/08/2013  23:24:00     -136.901       -6.686      -12.649       23.296       17.401       12.596      542.718      302.782      158.668        0.998        0.050      137.064        9.094        0.004      323.420      -13.576      869.557
12/08/2013  23:25:00     -121.966       -2.858       -8.219       34.400       22.081       23.546     1183.381      487.573      554.423        0.859        0.111      121.999       20.900        0.029      323.381      -13.639      869.575
12/08/2013  23:26:00     -139.259       -0.831      -16.412       27.454       17.923       16.551      753.697      321.232      273.923        1.051        0.067      139.261       14.466        0.011      323.391      -13.625      869.588
12/08/2013  23:27:00     -127.531       -1.412      -14.068       28.745       19.352       19.153      826.286      374.518      366.824        0.902        0.078      127.539       16.065        0.016      323.371      -13.655      869.601
12/08/2013  23:28:00     -121.298      -14.217      -12.005       38.617       24.208       17.851     1491.305      586.023      318.642        0.873        0.120      122.128       18.432        0.023      323.366      -13.663      869.622
12/08/2013  23:29:00     -133.038      -12.344      -14.278       33.207       22.127       15.787     1102.701      489.594      249.221        0.995        0.092      133.610       17.715        0.018      323.295      -13.777      869.628
12/08/2013  23:30:00     -122.621      -30.134      -12.101       20.708       31.258       14.880      428.820      977.054      221.401        0.886        0.081      126.269        8.692        0.005      323.298      -13.772      869.621
12/08/2013  23:31:00     -134.164      -49.293      -11.766       28.106       26.942       14.165      789.932      725.892      200.644        1.114        0.086      142.933        9.909        0.005      323.318      -13.741      869.600
12/08/2013  23:32:00     -152.661      -58.026       -8.912       13.491       20.507       12.520      182.004      420.541      156.741        1.376        0.038      163.317        6.137        0.001      323.261      -13.831      869.591
12/08/2013  23:33:00     -129.935      -62.366       -5.265       24.214       25.745       13.903      586.312      662.812      193.293        1.112        0.072      144.127       11.971        0.007      323.315      -13.744      869.584
12/08/2013  23:34:00     -132.939      -46.836      -10.298       25.568       17.550       12.320      653.745      308.018      151.771        1.054        0.056      140.948        6.914        0.002      323.244      -13.857      869.588
12/08/2013  23:35:00     -118.302      -29.795       -4.841       26.030       19.015       11.307      677.536      361.578      127.841        0.804        0.058      121.996       10.096        0.007      323.271      -13.815      869.613
12/08/2013  23:36:00     -128.818      -30.500      -10.221       19.265       16.787       14.105      371.156      281.790      198.946        0.924        0.043      132.380        8.390        0.004      323.266      -13.824      869.641
12/08/2013  23:37:00     -109.584      -49.274      -12.855       15.196       14.016       10.484      230.929      196.456      109.905        0.757        0.027      120.153        6.466        0.003      323.265      -13.825      869.665
12/08/2013  23:38:00      -91.989      -39.276      -10.123       15.835       21.737       12.045      250.748      472.483      145.077        0.549        0.043      100.023        5.433        0.003      323.220      -13.898      869.689
12/08/2013  23:39:00      -79.648      -39.245       -0.627       26.266       22.275       16.285      689.893      496.167      265.188        0.467        0.073       88.791       12.182        0.019      323.343      -13.701      869.696
12/08/2013  23:40:00      -69.678      -35.261       -2.198       18.506       26.052       10.647      342.486      678.709      113.353        0.362        0.057       78.092        8.320        0.011      323.288      -13.788      869.693
12/08/2013  23:41:00      -63.333      -25.110       -5.591       14.189       17.690       14.108      201.314      312.927      199.035        0.269        0.036       68.130       11.012        0.026      323.375      -13.648      869.683
12/08/2013  23:42:00      -87.842      -16.160      -13.809       16.767       12.700       13.630      281.120      161.285      185.775        0.440        0.031       89.317       10.713        0.014      323.327      -13.726      869.683
12/08/2013  23:43:00      -95.486      -25.316      -12.386       15.198       17.030       11.245      230.966      290.018      126.459        0.528        0.032       98.785        1.846        0.000      323.320      -13.736      869.686
12/08/2013  23:44:00      -90.673      -16.554       -0.797       24.120       20.914       14.933      581.781      437.414      222.996        0.487        0.062       92.171       14.022        0.023      323.367      -13.662      869.689
12/08/2013  23:45:00     -102.979      -45.555      -12.770       17.229       15.017       13.338      296.831      225.525      177.904        0.677        0.035      112.605        9.146        0.007      323.251      -13.848      869.685
12/08/2013  23:46:00      -94.597      -34.020       -5.559       19.004       27.989       12.273      361.147      783.361      150.616        0.572        0.065      100.529        9.404        0.009      323.285      -13.793      869.683
12/08/2013  23:47:00      -92.476       -9.540      -10.048       11.394       20.622       14.502      129.827      425.286      210.297        0.475        0.038       92.966        9.532        0.011      323.224      -13.890      869.678
12/08/2013  23:48:00     -116.096      -14.068      -12.699       24.612       18.489       13.959      605.755      341.846      194.840        0.749        0.057      116.946        6.884        0.003      323.177      -13.966      869.679
12/08/2013  23:49:00     -106.702      -54.520      -11.767       20.883       23.343       16.639      436.112      544.914      276.847        0.788        0.063      119.823       10.627        0.008      323.156      -14.001      869.683
12/08/2013  23:50:00      -77.915      -39.789       -3.064       37.586       29.956       19.062     1412.730      897.356      363.346        0.517        0.134       87.487       13.273        0.023      323.266      -13.823      869.670
12/08/2013  23:51:00     -111.300      -35.981       -7.258       22.694       33.099       16.512      515.008     1095.546      272.634        0.781        0.094      116.971        5.630        0.002      323.203      -13.925      869.661
12/08/2013  23:52:00      -99.017      -11.768       -9.450       22.476       24.383       16.614      505.180      594.525      276.035        0.570        0.069       99.714        9.453        0.009      323.151      -14.009      869.675
12/08/2013  23:53:00     -107.828      -21.453      -10.438       25.787       28.208       19.433      664.953      795.669      377.643        0.702        0.092      109.942       15.355        0.020      323.146      -14.016      869.704
12/08/2013  23:54:00     -134.478       -3.859      -12.602       28.133       19.064       15.598      791.453      363.449      243.290        0.983        0.070      134.534       10.354        0.006      323.004      -14.244      869.739
12/08/2013  23:55:00      -72.379       -8.742       -4.405       53.877       28.273       22.982     2902.736      799.359      528.185        0.478        0.212       72.905       26.000        0.127      323.030      -14.202      869.758
12/08/2013  23:56:00     -118.243      -16.551       -4.394       43.118       27.406       18.794     1859.183      751.067      353.207        0.862        0.148      119.395       17.047        0.020      323.005      -14.241      869.750
12/08/2013  23:57:00     -112.788        0.424       -5.787       58.692       32.111       25.801     3444.793     1031.145      665.697        0.895        0.257      112.789       27.947        0.061      322.917      -14.382      869.752
12/08/2013  23:58:00     -143.423       -3.275       -5.198       49.275       37.373       25.671     2428.074     1396.716      659.023        1.254        0.224      143.460       23.753        0.027      322.881      -14.441      869.748
12/08/2013  23:59:00     -115.838      -24.755       -9.907       25.325       39.990       17.743      641.333     1599.225      314.821        0.834        0.128      118.453       14.897        0.016      322.922      -14.374      869.734
